<?xml version="1.0" encoding="UTF-8" standalone="no" ?>
<gpx xmlns="http://www.topografix.com/GPX/1/1" xmlns:xsi="http://www.w3.org/2001/XMLSchema-instance" xsi:schemaLocation="http://www.topografix.com/GPX/1/1 http://www.topografix.com/GPX/1/1/gpx.xsd" version="1.1" creator="VisuGPX - https://www.visugpx.com">
  <metadata>
    <name>Trail de Moulinet 2013</name>
    <desc><![CDATA[1er trail de l\'année sous un grand soleil !]]></desc>
  </metadata>
  <trk>
    <name><![CDATA[Trail de Moulinet 2013]]></name>
    <trkseg>
      <trkpt lat="43.94061" lon="7.41273">
        <ele>805.24145507812</ele>
        <time>2013-04-14T08:06:11Z</time>
      </trkpt>
      <trkpt lat="43.94061" lon="7.41273">
        <ele>805.24145507812</ele>
        <time>2013-04-14T08:06:12Z</time>
      </trkpt>
      <trkpt lat="43.94062" lon="7.41273">
        <ele>805.72216796875</ele>
        <time>2013-04-14T08:06:14Z</time>
      </trkpt>
      <trkpt lat="43.94061" lon="7.41275">
        <ele>805.24145507812</ele>
        <time>2013-04-14T08:06:48Z</time>
      </trkpt>
      <trkpt lat="43.94084" lon="7.41262">
        <ele>808.60595703125</ele>
        <time>2013-04-14T08:07:02Z</time>
      </trkpt>
      <trkpt lat="43.94092" lon="7.41259">
        <ele>809.08666992188</ele>
        <time>2013-04-14T08:07:06Z</time>
      </trkpt>
      <trkpt lat="43.94111" lon="7.41234">
        <ele>807.64477539062</ele>
        <time>2013-04-14T08:07:11Z</time>
      </trkpt>
      <trkpt lat="43.94113" lon="7.41227">
        <ele>808.12548828125</ele>
        <time>2013-04-14T08:07:13Z</time>
      </trkpt>
      <trkpt lat="43.94116" lon="7.41219">
        <ele>811.00927734375</ele>
        <time>2013-04-14T08:07:19Z</time>
      </trkpt>
      <trkpt lat="43.94119" lon="7.41215">
        <ele>811.48999023438</ele>
        <time>2013-04-14T08:07:21Z</time>
      </trkpt>
      <trkpt lat="43.9413" lon="7.41142">
        <ele>809.5673828125</ele>
        <time>2013-04-14T08:07:34Z</time>
      </trkpt>
      <trkpt lat="43.941" lon="7.41135">
        <ele>808.12548828125</ele>
        <time>2013-04-14T08:07:39Z</time>
      </trkpt>
      <trkpt lat="43.94096" lon="7.41117">
        <ele>805.24145507812</ele>
        <time>2013-04-14T08:07:44Z</time>
      </trkpt>
      <trkpt lat="43.94098" lon="7.41114">
        <ele>803.79956054688</ele>
        <time>2013-04-14T08:07:46Z</time>
      </trkpt>
      <trkpt lat="43.94098" lon="7.41114">
        <ele>802.83813476562</ele>
        <time>2013-04-14T08:07:47Z</time>
      </trkpt>
      <trkpt lat="43.94089" lon="7.41119">
        <ele>800.43505859375</ele>
        <time>2013-04-14T08:07:51Z</time>
      </trkpt>
      <trkpt lat="43.94087" lon="7.41122">
        <ele>799.4736328125</ele>
        <time>2013-04-14T08:07:52Z</time>
      </trkpt>
      <trkpt lat="43.94076" lon="7.41134">
        <ele>795.62817382812</ele>
        <time>2013-04-14T08:07:57Z</time>
      </trkpt>
      <trkpt lat="43.9406" lon="7.41127">
        <ele>793.70556640625</ele>
        <time>2013-04-14T08:08:03Z</time>
      </trkpt>
      <trkpt lat="43.94055" lon="7.41124">
        <ele>794.18627929688</ele>
        <time>2013-04-14T08:08:06Z</time>
      </trkpt>
      <trkpt lat="43.94046" lon="7.41127">
        <ele>795.62817382812</ele>
        <time>2013-04-14T08:08:10Z</time>
      </trkpt>
      <trkpt lat="43.94036" lon="7.4112">
        <ele>795.62817382812</ele>
        <time>2013-04-14T08:08:15Z</time>
      </trkpt>
      <trkpt lat="43.94033" lon="7.41117">
        <ele>795.62817382812</ele>
        <time>2013-04-14T08:08:17Z</time>
      </trkpt>
      <trkpt lat="43.94033" lon="7.41117">
        <ele>797.55102539062</ele>
        <time>2013-04-14T08:08:23Z</time>
      </trkpt>
      <trkpt lat="43.94031" lon="7.41116">
        <ele>799.4736328125</ele>
        <time>2013-04-14T08:08:28Z</time>
      </trkpt>
      <trkpt lat="43.94024" lon="7.41114">
        <ele>803.79956054688</ele>
        <time>2013-04-14T08:08:36Z</time>
      </trkpt>
      <trkpt lat="43.94024" lon="7.41114">
        <ele>805.24145507812</ele>
        <time>2013-04-14T08:08:40Z</time>
      </trkpt>
      <trkpt lat="43.94024" lon="7.41114">
        <ele>806.20263671875</ele>
        <time>2013-04-14T08:08:42Z</time>
      </trkpt>
      <trkpt lat="43.94021" lon="7.41114">
        <ele>807.1640625</ele>
        <time>2013-04-14T08:08:44Z</time>
      </trkpt>
      <trkpt lat="43.94019" lon="7.41114">
        <ele>808.60595703125</ele>
        <time>2013-04-14T08:08:48Z</time>
      </trkpt>
      <trkpt lat="43.94007" lon="7.41118">
        <ele>810.0478515625</ele>
        <time>2013-04-14T08:08:52Z</time>
      </trkpt>
      <trkpt lat="43.94001" lon="7.41121">
        <ele>811.00927734375</ele>
        <time>2013-04-14T08:08:55Z</time>
      </trkpt>
      <trkpt lat="43.93996" lon="7.41126">
        <ele>813.41284179688</ele>
        <time>2013-04-14T08:08:59Z</time>
      </trkpt>
      <trkpt lat="43.93984" lon="7.41125">
        <ele>816.29663085938</ele>
        <time>2013-04-14T08:09:05Z</time>
      </trkpt>
      <trkpt lat="43.93983" lon="7.4112">
        <ele>816.29663085938</ele>
        <time>2013-04-14T08:09:07Z</time>
      </trkpt>
      <trkpt lat="43.93992" lon="7.41117">
        <ele>818.21923828125</ele>
        <time>2013-04-14T08:09:11Z</time>
      </trkpt>
      <trkpt lat="43.93993" lon="7.41111">
        <ele>819.1806640625</ele>
        <time>2013-04-14T08:09:14Z</time>
      </trkpt>
      <trkpt lat="43.94004" lon="7.41101">
        <ele>822.54516601562</ele>
        <time>2013-04-14T08:09:24Z</time>
      </trkpt>
      <trkpt lat="43.93997" lon="7.41102">
        <ele>823.50659179688</ele>
        <time>2013-04-14T08:09:26Z</time>
      </trkpt>
      <trkpt lat="43.93988" lon="7.41109">
        <ele>827.35180664062</ele>
        <time>2013-04-14T08:09:34Z</time>
      </trkpt>
      <trkpt lat="43.93986" lon="7.4111">
        <ele>827.35180664062</ele>
        <time>2013-04-14T08:09:35Z</time>
      </trkpt>
      <trkpt lat="43.93977" lon="7.41118">
        <ele>830.23583984375</ele>
        <time>2013-04-14T08:09:40Z</time>
      </trkpt>
      <trkpt lat="43.93977" lon="7.41124">
        <ele>830.23583984375</ele>
        <time>2013-04-14T08:09:43Z</time>
      </trkpt>
      <trkpt lat="43.93973" lon="7.41133">
        <ele>833.60034179688</ele>
        <time>2013-04-14T08:09:50Z</time>
      </trkpt>
      <trkpt lat="43.93968" lon="7.41137">
        <ele>835.04248046875</ele>
        <time>2013-04-14T08:09:54Z</time>
      </trkpt>
      <trkpt lat="43.93965" lon="7.4114">
        <ele>835.52294921875</ele>
        <time>2013-04-14T08:09:56Z</time>
      </trkpt>
      <trkpt lat="43.93962" lon="7.41144">
        <ele>837.92626953125</ele>
        <time>2013-04-14T08:09:59Z</time>
      </trkpt>
      <trkpt lat="43.93951" lon="7.41164">
        <ele>841.29077148438</ele>
        <time>2013-04-14T08:10:11Z</time>
      </trkpt>
      <trkpt lat="43.93951" lon="7.41169">
        <ele>842.73291015625</ele>
        <time>2013-04-14T08:10:15Z</time>
      </trkpt>
      <trkpt lat="43.93943" lon="7.41182">
        <ele>846.09765625</ele>
        <time>2013-04-14T08:10:24Z</time>
      </trkpt>
      <trkpt lat="43.93931" lon="7.41176">
        <ele>849.46215820312</ele>
        <time>2013-04-14T08:10:33Z</time>
      </trkpt>
      <trkpt lat="43.93916" lon="7.41173">
        <ele>852.82666015625</ele>
        <time>2013-04-14T08:10:43Z</time>
      </trkpt>
      <trkpt lat="43.93916" lon="7.41169">
        <ele>854.26879882812</ele>
        <time>2013-04-14T08:10:48Z</time>
      </trkpt>
      <trkpt lat="43.93912" lon="7.41164">
        <ele>856.19116210938</ele>
        <time>2013-04-14T08:10:52Z</time>
      </trkpt>
      <trkpt lat="43.9391" lon="7.41162">
        <ele>857.63330078125</ele>
        <time>2013-04-14T08:10:55Z</time>
      </trkpt>
      <trkpt lat="43.93906" lon="7.41161">
        <ele>859.55590820312</ele>
        <time>2013-04-14T08:11:00Z</time>
      </trkpt>
      <trkpt lat="43.939" lon="7.41165">
        <ele>860.998046875</ele>
        <time>2013-04-14T08:11:04Z</time>
      </trkpt>
      <trkpt lat="43.93891" lon="7.41159">
        <ele>862.43994140625</ele>
        <time>2013-04-14T08:11:11Z</time>
      </trkpt>
      <trkpt lat="43.93888" lon="7.41155">
        <ele>864.36254882812</ele>
        <time>2013-04-14T08:11:14Z</time>
      </trkpt>
      <trkpt lat="43.93891" lon="7.41147">
        <ele>866.76586914062</ele>
        <time>2013-04-14T08:11:20Z</time>
      </trkpt>
      <trkpt lat="43.93889" lon="7.41143">
        <ele>867.72705078125</ele>
        <time>2013-04-14T08:11:22Z</time>
      </trkpt>
      <trkpt lat="43.93888" lon="7.41137">
        <ele>869.16918945312</ele>
        <time>2013-04-14T08:11:25Z</time>
      </trkpt>
      <trkpt lat="43.93877" lon="7.41123">
        <ele>872.53369140625</ele>
        <time>2013-04-14T08:11:34Z</time>
      </trkpt>
      <trkpt lat="43.93875" lon="7.4112">
        <ele>873.01440429688</ele>
        <time>2013-04-14T08:11:36Z</time>
      </trkpt>
      <trkpt lat="43.93873" lon="7.41117">
        <ele>873.9755859375</ele>
        <time>2013-04-14T08:11:39Z</time>
      </trkpt>
      <trkpt lat="43.93864" lon="7.41109">
        <ele>876.37915039062</ele>
        <time>2013-04-14T08:11:46Z</time>
      </trkpt>
      <trkpt lat="43.9386" lon="7.41099">
        <ele>879.26293945312</ele>
        <time>2013-04-14T08:11:53Z</time>
      </trkpt>
      <trkpt lat="43.93855" lon="7.41093">
        <ele>879.26293945312</ele>
        <time>2013-04-14T08:11:56Z</time>
      </trkpt>
      <trkpt lat="43.93857" lon="7.41093">
        <ele>881.18579101562</ele>
        <time>2013-04-14T08:12:00Z</time>
      </trkpt>
      <trkpt lat="43.93859" lon="7.41092">
        <ele>882.62768554688</ele>
        <time>2013-04-14T08:12:03Z</time>
      </trkpt>
      <trkpt lat="43.9387" lon="7.41092">
        <ele>884.06958007812</ele>
        <time>2013-04-14T08:12:10Z</time>
      </trkpt>
      <trkpt lat="43.93873" lon="7.41086">
        <ele>887.43408203125</ele>
        <time>2013-04-14T08:12:19Z</time>
      </trkpt>
      <trkpt lat="43.93869" lon="7.4108">
        <ele>887.91479492188</ele>
        <time>2013-04-14T08:12:23Z</time>
      </trkpt>
      <trkpt lat="43.93864" lon="7.41069">
        <ele>890.31811523438</ele>
        <time>2013-04-14T08:12:28Z</time>
      </trkpt>
      <trkpt lat="43.93857" lon="7.41063">
        <ele>891.76000976562</ele>
        <time>2013-04-14T08:12:32Z</time>
      </trkpt>
      <trkpt lat="43.9385" lon="7.41052">
        <ele>895.12475585938</ele>
        <time>2013-04-14T08:12:40Z</time>
      </trkpt>
      <trkpt lat="43.93857" lon="7.4104">
        <ele>898.0087890625</ele>
        <time>2013-04-14T08:12:51Z</time>
      </trkpt>
      <trkpt lat="43.93853" lon="7.41035">
        <ele>899.45068359375</ele>
        <time>2013-04-14T08:12:55Z</time>
      </trkpt>
      <trkpt lat="43.93848" lon="7.41032">
        <ele>900.892578125</ele>
        <time>2013-04-14T08:12:59Z</time>
      </trkpt>
      <trkpt lat="43.93842" lon="7.41027">
        <ele>902.81518554688</ele>
        <time>2013-04-14T08:13:03Z</time>
      </trkpt>
      <trkpt lat="43.93842" lon="7.41021">
        <ele>905.21850585938</ele>
        <time>2013-04-14T08:13:09Z</time>
      </trkpt>
      <trkpt lat="43.9384" lon="7.41017">
        <ele>906.1796875</ele>
        <time>2013-04-14T08:13:12Z</time>
      </trkpt>
      <trkpt lat="43.93836" lon="7.41014">
        <ele>907.62182617188</ele>
        <time>2013-04-14T08:13:16Z</time>
      </trkpt>
      <trkpt lat="43.93833" lon="7.41002">
        <ele>909.54467773438</ele>
        <time>2013-04-14T08:13:22Z</time>
      </trkpt>
      <trkpt lat="43.93831" lon="7.4098">
        <ele>912.42846679688</ele>
        <time>2013-04-14T08:13:32Z</time>
      </trkpt>
      <trkpt lat="43.9382" lon="7.40947">
        <ele>916.75439453125</ele>
        <time>2013-04-14T08:13:46Z</time>
      </trkpt>
      <trkpt lat="43.93814" lon="7.40925">
        <ele>920.11889648438</ele>
        <time>2013-04-14T08:13:57Z</time>
      </trkpt>
      <trkpt lat="43.93804" lon="7.40909">
        <ele>921.56079101562</ele>
        <time>2013-04-14T08:14:02Z</time>
      </trkpt>
      <trkpt lat="43.93802" lon="7.40907">
        <ele>922.52221679688</ele>
        <time>2013-04-14T08:14:05Z</time>
      </trkpt>
      <trkpt lat="43.93793" lon="7.40895">
        <ele>925.40625</ele>
        <time>2013-04-14T08:14:13Z</time>
      </trkpt>
      <trkpt lat="43.9379" lon="7.40893">
        <ele>925.88696289062</ele>
        <time>2013-04-14T08:14:15Z</time>
      </trkpt>
      <trkpt lat="43.93774" lon="7.40871">
        <ele>930.212890625</ele>
        <time>2013-04-14T08:14:26Z</time>
      </trkpt>
      <trkpt lat="43.93772" lon="7.4087">
        <ele>930.212890625</ele>
        <time>2013-04-14T08:14:27Z</time>
      </trkpt>
      <trkpt lat="43.93754" lon="7.40846">
        <ele>931.65478515625</ele>
        <time>2013-04-14T08:14:37Z</time>
      </trkpt>
      <trkpt lat="43.93727" lon="7.40808">
        <ele>932.6162109375</ele>
        <time>2013-04-14T08:14:50Z</time>
      </trkpt>
      <trkpt lat="43.93699" lon="7.40778">
        <ele>934.53881835938</ele>
        <time>2013-04-14T08:15:03Z</time>
      </trkpt>
      <trkpt lat="43.93682" lon="7.40759">
        <ele>937.42260742188</ele>
        <time>2013-04-14T08:15:13Z</time>
      </trkpt>
      <trkpt lat="43.9366" lon="7.40737">
        <ele>940.78735351562</ele>
        <time>2013-04-14T08:15:25Z</time>
      </trkpt>
      <trkpt lat="43.93653" lon="7.40727">
        <ele>944.15209960938</ele>
        <time>2013-04-14T08:15:32Z</time>
      </trkpt>
      <trkpt lat="43.93652" lon="7.40726">
        <ele>944.15209960938</ele>
        <time>2013-04-14T08:15:33Z</time>
      </trkpt>
      <trkpt lat="43.93632" lon="7.40693">
        <ele>946.55541992188</ele>
        <time>2013-04-14T08:15:47Z</time>
      </trkpt>
      <trkpt lat="43.93624" lon="7.40683">
        <ele>947.03588867188</ele>
        <time>2013-04-14T08:15:51Z</time>
      </trkpt>
      <trkpt lat="43.9358" lon="7.40639">
        <ele>949.919921875</ele>
        <time>2013-04-14T08:16:10Z</time>
      </trkpt>
      <trkpt lat="43.93544" lon="7.40602">
        <ele>952.8037109375</ele>
        <time>2013-04-14T08:16:26Z</time>
      </trkpt>
      <trkpt lat="43.93512" lon="7.40571">
        <ele>956.16845703125</ele>
        <time>2013-04-14T08:16:41Z</time>
      </trkpt>
      <trkpt lat="43.93487" lon="7.40537">
        <ele>959.05249023438</ele>
        <time>2013-04-14T08:16:54Z</time>
      </trkpt>
      <trkpt lat="43.9345" lon="7.40498">
        <ele>962.4169921875</ele>
        <time>2013-04-14T08:17:11Z</time>
      </trkpt>
      <trkpt lat="43.93426" lon="7.40492">
        <ele>965.30102539062</ele>
        <time>2013-04-14T08:17:22Z</time>
      </trkpt>
      <trkpt lat="43.93413" lon="7.40493">
        <ele>966.74291992188</ele>
        <time>2013-04-14T08:17:28Z</time>
      </trkpt>
      <trkpt lat="43.93378" lon="7.40486">
        <ele>969.14624023438</ele>
        <time>2013-04-14T08:17:41Z</time>
      </trkpt>
      <trkpt lat="43.93366" lon="7.40485">
        <ele>970.107421875</ele>
        <time>2013-04-14T08:17:46Z</time>
      </trkpt>
      <trkpt lat="43.93335" lon="7.4048">
        <ele>973.47241210938</ele>
        <time>2013-04-14T08:17:59Z</time>
      </trkpt>
      <trkpt lat="43.93305" lon="7.40493">
        <ele>976.35620117188</ele>
        <time>2013-04-14T08:18:12Z</time>
      </trkpt>
      <trkpt lat="43.93303" lon="7.40494">
        <ele>976.35620117188</ele>
        <time>2013-04-14T08:18:13Z</time>
      </trkpt>
      <trkpt lat="43.93276" lon="7.40502">
        <ele>979.23999023438</ele>
        <time>2013-04-14T08:18:25Z</time>
      </trkpt>
      <trkpt lat="43.93256" lon="7.40509">
        <ele>980.68212890625</ele>
        <time>2013-04-14T08:18:33Z</time>
      </trkpt>
      <trkpt lat="43.93224" lon="7.40489">
        <ele>984.04663085938</ele>
        <time>2013-04-14T08:18:47Z</time>
      </trkpt>
      <trkpt lat="43.93194" lon="7.40469">
        <ele>987.4111328125</ele>
        <time>2013-04-14T08:19:00Z</time>
      </trkpt>
      <trkpt lat="43.93168" lon="7.40434">
        <ele>991.25659179688</ele>
        <time>2013-04-14T08:19:15Z</time>
      </trkpt>
      <trkpt lat="43.93134" lon="7.40398">
        <ele>994.62109375</ele>
        <time>2013-04-14T08:19:32Z</time>
      </trkpt>
      <trkpt lat="43.93115" lon="7.40368">
        <ele>997.98583984375</ele>
        <time>2013-04-14T08:19:44Z</time>
      </trkpt>
      <trkpt lat="43.93091" lon="7.40335">
        <ele>1000.8696289062</ele>
        <time>2013-04-14T08:19:57Z</time>
      </trkpt>
      <trkpt lat="43.93064" lon="7.4031">
        <ele>1004.2346191406</ele>
        <time>2013-04-14T08:20:09Z</time>
      </trkpt>
      <trkpt lat="43.93044" lon="7.40308">
        <ele>1004.7150878906</ele>
        <time>2013-04-14T08:20:19Z</time>
      </trkpt>
      <trkpt lat="43.93032" lon="7.40328">
        <ele>1007.5991210938</ele>
        <time>2013-04-14T08:20:26Z</time>
      </trkpt>
      <trkpt lat="43.93031" lon="7.40335">
        <ele>1007.5991210938</ele>
        <time>2013-04-14T08:20:28Z</time>
      </trkpt>
      <trkpt lat="43.93" lon="7.40363">
        <ele>1010.9636230469</ele>
        <time>2013-04-14T08:20:43Z</time>
      </trkpt>
      <trkpt lat="43.92999" lon="7.40365">
        <ele>1010.9636230469</ele>
        <time>2013-04-14T08:20:44Z</time>
      </trkpt>
      <trkpt lat="43.92986" lon="7.40373">
        <ele>1013.3669433594</ele>
        <time>2013-04-14T08:20:50Z</time>
      </trkpt>
      <trkpt lat="43.92962" lon="7.40375">
        <ele>1014.8088378906</ele>
        <time>2013-04-14T08:20:59Z</time>
      </trkpt>
      <trkpt lat="43.92952" lon="7.4038">
        <ele>1014.8088378906</ele>
        <time>2013-04-14T08:21:03Z</time>
      </trkpt>
      <trkpt lat="43.92936" lon="7.40397">
        <ele>1018.1733398438</ele>
        <time>2013-04-14T08:21:12Z</time>
      </trkpt>
      <trkpt lat="43.92911" lon="7.40441">
        <ele>1022.0187988281</ele>
        <time>2013-04-14T08:21:27Z</time>
      </trkpt>
      <trkpt lat="43.92907" lon="7.40453">
        <ele>1022.4995117188</ele>
        <time>2013-04-14T08:21:31Z</time>
      </trkpt>
      <trkpt lat="43.92907" lon="7.4046">
        <ele>1022.9802246094</ele>
        <time>2013-04-14T08:21:33Z</time>
      </trkpt>
      <trkpt lat="43.929" lon="7.405">
        <ele>1026.3447265625</ele>
        <time>2013-04-14T08:21:45Z</time>
      </trkpt>
      <trkpt lat="43.92861" lon="7.40516">
        <ele>1029.228515625</ele>
        <time>2013-04-14T08:22:02Z</time>
      </trkpt>
      <trkpt lat="43.92847" lon="7.40534">
        <ele>1030.6706542969</ele>
        <time>2013-04-14T08:22:09Z</time>
      </trkpt>
      <trkpt lat="43.92825" lon="7.4057">
        <ele>1034.03515625</ele>
        <time>2013-04-14T08:22:22Z</time>
      </trkpt>
      <trkpt lat="43.92814" lon="7.4059">
        <ele>1035.4770507812</ele>
        <time>2013-04-14T08:22:29Z</time>
      </trkpt>
      <trkpt lat="43.92813" lon="7.40599">
        <ele>1035.9577636719</ele>
        <time>2013-04-14T08:22:32Z</time>
      </trkpt>
      <trkpt lat="43.92811" lon="7.40614">
        <ele>1037.3999023438</ele>
        <time>2013-04-14T08:22:36Z</time>
      </trkpt>
      <trkpt lat="43.92812" lon="7.40627">
        <ele>1038.361328125</ele>
        <time>2013-04-14T08:22:40Z</time>
      </trkpt>
      <trkpt lat="43.92805" lon="7.4067">
        <ele>1041.7258300781</ele>
        <time>2013-04-14T08:22:54Z</time>
      </trkpt>
      <trkpt lat="43.92799" lon="7.40679">
        <ele>1043.1677246094</ele>
        <time>2013-04-14T08:22:58Z</time>
      </trkpt>
      <trkpt lat="43.92768" lon="7.40689">
        <ele>1046.0517578125</ele>
        <time>2013-04-14T08:23:11Z</time>
      </trkpt>
      <trkpt lat="43.92733" lon="7.40686">
        <ele>1049.4162597656</ele>
        <time>2013-04-14T08:23:25Z</time>
      </trkpt>
      <trkpt lat="43.92726" lon="7.40681">
        <ele>1050.8581542969</ele>
        <time>2013-04-14T08:23:29Z</time>
      </trkpt>
      <trkpt lat="43.9269" lon="7.40659">
        <ele>1047.0129394531</ele>
        <time>2013-04-14T08:23:42Z</time>
      </trkpt>
      <trkpt lat="43.92687" lon="7.40657">
        <ele>1047.0129394531</ele>
        <time>2013-04-14T08:23:43Z</time>
      </trkpt>
      <trkpt lat="43.92682" lon="7.40659">
        <ele>1046.0517578125</ele>
        <time>2013-04-14T08:23:44Z</time>
      </trkpt>
      <trkpt lat="43.9267" lon="7.40657">
        <ele>1042.6872558594</ele>
        <time>2013-04-14T08:23:47Z</time>
      </trkpt>
      <trkpt lat="43.92666" lon="7.40657">
        <ele>1042.6872558594</ele>
        <time>2013-04-14T08:23:48Z</time>
      </trkpt>
      <trkpt lat="43.92654" lon="7.40652">
        <ele>1040.7644042969</ele>
        <time>2013-04-14T08:23:51Z</time>
      </trkpt>
      <trkpt lat="43.92638" lon="7.40649">
        <ele>1038.8420410156</ele>
        <time>2013-04-14T08:23:55Z</time>
      </trkpt>
      <trkpt lat="43.9263" lon="7.40645">
        <ele>1037.8806152344</ele>
        <time>2013-04-14T08:23:57Z</time>
      </trkpt>
      <trkpt lat="43.92624" lon="7.4064">
        <ele>1036.4387207031</ele>
        <time>2013-04-14T08:23:59Z</time>
      </trkpt>
      <trkpt lat="43.92618" lon="7.40634">
        <ele>1036.4387207031</ele>
        <time>2013-04-14T08:24:01Z</time>
      </trkpt>
      <trkpt lat="43.92577" lon="7.40571">
        <ele>1035.4770507812</ele>
        <time>2013-04-14T08:24:20Z</time>
      </trkpt>
      <trkpt lat="43.92572" lon="7.4056">
        <ele>1034.03515625</ele>
        <time>2013-04-14T08:24:23Z</time>
      </trkpt>
      <trkpt lat="43.92559" lon="7.40524">
        <ele>1032.1125488281</ele>
        <time>2013-04-14T08:24:32Z</time>
      </trkpt>
      <trkpt lat="43.92558" lon="7.40513">
        <ele>1030.6706542969</ele>
        <time>2013-04-14T08:24:34Z</time>
      </trkpt>
      <trkpt lat="43.92548" lon="7.40485">
        <ele>1027.3061523438</ele>
        <time>2013-04-14T08:24:41Z</time>
      </trkpt>
      <trkpt lat="43.92545" lon="7.40478">
        <ele>1027.3061523438</ele>
        <time>2013-04-14T08:24:43Z</time>
      </trkpt>
      <trkpt lat="43.92528" lon="7.40466">
        <ele>1024.9028320312</ele>
        <time>2013-04-14T08:24:48Z</time>
      </trkpt>
      <trkpt lat="43.92516" lon="7.40446">
        <ele>1022.0187988281</ele>
        <time>2013-04-14T08:24:53Z</time>
      </trkpt>
      <trkpt lat="43.92512" lon="7.4043">
        <ele>1019.6154785156</ele>
        <time>2013-04-14T08:24:56Z</time>
      </trkpt>
      <trkpt lat="43.92511" lon="7.40408">
        <ele>1016.7314453125</ele>
        <time>2013-04-14T08:25:00Z</time>
      </trkpt>
      <trkpt lat="43.92511" lon="7.40377">
        <ele>1014.8088378906</ele>
        <time>2013-04-14T08:25:07Z</time>
      </trkpt>
      <trkpt lat="43.92465" lon="7.40343">
        <ele>1018.1733398438</ele>
        <time>2013-04-14T08:25:24Z</time>
      </trkpt>
      <trkpt lat="43.92448" lon="7.4033">
        <ele>1020.0961914062</ele>
        <time>2013-04-14T08:25:33Z</time>
      </trkpt>
      <trkpt lat="43.92416" lon="7.40293">
        <ele>1022.4995117188</ele>
        <time>2013-04-14T08:25:50Z</time>
      </trkpt>
      <trkpt lat="43.92411" lon="7.4026">
        <ele>1025.8640136719</ele>
        <time>2013-04-14T08:26:01Z</time>
      </trkpt>
      <trkpt lat="43.92411" lon="7.40257">
        <ele>1025.8640136719</ele>
        <time>2013-04-14T08:26:02Z</time>
      </trkpt>
      <trkpt lat="43.92413" lon="7.4024">
        <ele>1027.3061523438</ele>
        <time>2013-04-14T08:26:07Z</time>
      </trkpt>
      <trkpt lat="43.92415" lon="7.40234">
        <ele>1028.2673339844</ele>
        <time>2013-04-14T08:26:09Z</time>
      </trkpt>
      <trkpt lat="43.92394" lon="7.4021">
        <ele>1027.7866210938</ele>
        <time>2013-04-14T08:26:18Z</time>
      </trkpt>
      <trkpt lat="43.92375" lon="7.40195">
        <ele>1029.228515625</ele>
        <time>2013-04-14T08:26:27Z</time>
      </trkpt>
      <trkpt lat="43.92334" lon="7.40172">
        <ele>1030.1899414062</ele>
        <time>2013-04-14T08:26:41Z</time>
      </trkpt>
      <trkpt lat="43.92306" lon="7.40132">
        <ele>1033.0737304688</ele>
        <time>2013-04-14T08:26:56Z</time>
      </trkpt>
      <trkpt lat="43.92273" lon="7.40072">
        <ele>1032.5932617188</ele>
        <time>2013-04-14T08:27:14Z</time>
      </trkpt>
      <trkpt lat="43.92262" lon="7.40029">
        <ele>1034.03515625</ele>
        <time>2013-04-14T08:27:26Z</time>
      </trkpt>
      <trkpt lat="43.9226" lon="7.40015">
        <ele>1034.03515625</ele>
        <time>2013-04-14T08:27:29Z</time>
      </trkpt>
      <trkpt lat="43.92255" lon="7.39997">
        <ele>1032.1125488281</ele>
        <time>2013-04-14T08:27:33Z</time>
      </trkpt>
      <trkpt lat="43.92253" lon="7.39986">
        <ele>1030.6706542969</ele>
        <time>2013-04-14T08:27:35Z</time>
      </trkpt>
      <trkpt lat="43.92252" lon="7.39977">
        <ele>1029.7092285156</ele>
        <time>2013-04-14T08:27:37Z</time>
      </trkpt>
      <trkpt lat="43.92255" lon="7.3992">
        <ele>1026.3447265625</ele>
        <time>2013-04-14T08:27:50Z</time>
      </trkpt>
      <trkpt lat="43.92282" lon="7.39902">
        <ele>1025.3833007812</ele>
        <time>2013-04-14T08:28:01Z</time>
      </trkpt>
      <trkpt lat="43.92275" lon="7.39889">
        <ele>1027.3061523438</ele>
        <time>2013-04-14T08:28:05Z</time>
      </trkpt>
      <trkpt lat="43.92256" lon="7.39862">
        <ele>1026.8254394531</ele>
        <time>2013-04-14T08:28:12Z</time>
      </trkpt>
      <trkpt lat="43.92249" lon="7.39844">
        <ele>1025.8640136719</ele>
        <time>2013-04-14T08:28:16Z</time>
      </trkpt>
      <trkpt lat="43.92247" lon="7.39783">
        <ele>1026.8254394531</ele>
        <time>2013-04-14T08:28:31Z</time>
      </trkpt>
      <trkpt lat="43.92246" lon="7.39775">
        <ele>1027.7866210938</ele>
        <time>2013-04-14T08:28:33Z</time>
      </trkpt>
      <trkpt lat="43.92234" lon="7.3977">
        <ele>1026.3447265625</ele>
        <time>2013-04-14T08:28:38Z</time>
      </trkpt>
      <trkpt lat="43.92193" lon="7.39788">
        <ele>1024.9028320312</ele>
        <time>2013-04-14T08:28:51Z</time>
      </trkpt>
      <trkpt lat="43.92187" lon="7.39788">
        <ele>1024.4221191406</ele>
        <time>2013-04-14T08:28:53Z</time>
      </trkpt>
      <trkpt lat="43.92163" lon="7.39757">
        <ele>1021.0576171875</ele>
        <time>2013-04-14T08:29:02Z</time>
      </trkpt>
      <trkpt lat="43.92151" lon="7.39736">
        <ele>1021.5380859375</ele>
        <time>2013-04-14T08:29:08Z</time>
      </trkpt>
      <trkpt lat="43.92146" lon="7.39734">
        <ele>1021.5380859375</ele>
        <time>2013-04-14T08:29:12Z</time>
      </trkpt>
      <trkpt lat="43.92118" lon="7.39762">
        <ele>1025.3833007812</ele>
        <time>2013-04-14T08:29:27Z</time>
      </trkpt>
      <trkpt lat="43.92109" lon="7.39765">
        <ele>1025.8640136719</ele>
        <time>2013-04-14T08:29:29Z</time>
      </trkpt>
      <trkpt lat="43.92088" lon="7.39761">
        <ele>1025.8640136719</ele>
        <time>2013-04-14T08:29:35Z</time>
      </trkpt>
      <trkpt lat="43.92074" lon="7.39753">
        <ele>1025.3833007812</ele>
        <time>2013-04-14T08:29:39Z</time>
      </trkpt>
      <trkpt lat="43.9207" lon="7.39763">
        <ele>1025.8640136719</ele>
        <time>2013-04-14T08:29:49Z</time>
      </trkpt>
      <trkpt lat="43.92065" lon="7.39776">
        <ele>1027.7866210938</ele>
        <time>2013-04-14T08:29:56Z</time>
      </trkpt>
      <trkpt lat="43.92057" lon="7.39787">
        <ele>1029.228515625</ele>
        <time>2013-04-14T08:30:01Z</time>
      </trkpt>
      <trkpt lat="43.92049" lon="7.39804">
        <ele>1031.1513671875</ele>
        <time>2013-04-14T08:30:10Z</time>
      </trkpt>
      <trkpt lat="43.92045" lon="7.39817">
        <ele>1031.6318359375</ele>
        <time>2013-04-14T08:30:15Z</time>
      </trkpt>
      <trkpt lat="43.92043" lon="7.39825">
        <ele>1033.0737304688</ele>
        <time>2013-04-14T08:30:18Z</time>
      </trkpt>
      <trkpt lat="43.92029" lon="7.39839">
        <ele>1033.5544433594</ele>
        <time>2013-04-14T08:30:25Z</time>
      </trkpt>
      <trkpt lat="43.91997" lon="7.39844">
        <ele>1036.4387207031</ele>
        <time>2013-04-14T08:30:38Z</time>
      </trkpt>
      <trkpt lat="43.91983" lon="7.39837">
        <ele>1037.8806152344</ele>
        <time>2013-04-14T08:30:44Z</time>
      </trkpt>
      <trkpt lat="43.91976" lon="7.39835">
        <ele>1039.3225097656</ele>
        <time>2013-04-14T08:30:47Z</time>
      </trkpt>
      <trkpt lat="43.91932" lon="7.39821">
        <ele>1042.2065429688</ele>
        <time>2013-04-14T08:31:04Z</time>
      </trkpt>
      <trkpt lat="43.91913" lon="7.39815">
        <ele>1045.0903320312</ele>
        <time>2013-04-14T08:31:13Z</time>
      </trkpt>
      <trkpt lat="43.91894" lon="7.39805">
        <ele>1046.0517578125</ele>
        <time>2013-04-14T08:31:22Z</time>
      </trkpt>
      <trkpt lat="43.9187" lon="7.398">
        <ele>1049.8969726562</ele>
        <time>2013-04-14T08:31:32Z</time>
      </trkpt>
      <trkpt lat="43.91834" lon="7.39778">
        <ele>1050.8581542969</ele>
        <time>2013-04-14T08:31:48Z</time>
      </trkpt>
      <trkpt lat="43.91831" lon="7.39773">
        <ele>1052.3002929688</ele>
        <time>2013-04-14T08:31:51Z</time>
      </trkpt>
      <trkpt lat="43.91821" lon="7.39784">
        <ele>1052.7810058594</ele>
        <time>2013-04-14T08:31:57Z</time>
      </trkpt>
      <trkpt lat="43.91804" lon="7.39786">
        <ele>1049.4162597656</ele>
        <time>2013-04-14T08:32:03Z</time>
      </trkpt>
      <trkpt lat="43.91797" lon="7.39788">
        <ele>1048.4548339844</ele>
        <time>2013-04-14T08:32:05Z</time>
      </trkpt>
      <trkpt lat="43.9179" lon="7.39798">
        <ele>1047.0129394531</ele>
        <time>2013-04-14T08:32:07Z</time>
      </trkpt>
      <trkpt lat="43.91785" lon="7.39798">
        <ele>1045.0903320312</ele>
        <time>2013-04-14T08:32:08Z</time>
      </trkpt>
      <trkpt lat="43.91775" lon="7.398">
        <ele>1043.6484375</ele>
        <time>2013-04-14T08:32:11Z</time>
      </trkpt>
      <trkpt lat="43.91771" lon="7.39802">
        <ele>1042.6872558594</ele>
        <time>2013-04-14T08:32:12Z</time>
      </trkpt>
      <trkpt lat="43.91737" lon="7.39809">
        <ele>1042.6872558594</ele>
        <time>2013-04-14T08:32:23Z</time>
      </trkpt>
      <trkpt lat="43.9173" lon="7.39815">
        <ele>1041.7258300781</ele>
        <time>2013-04-14T08:32:27Z</time>
      </trkpt>
      <trkpt lat="43.91727" lon="7.3982">
        <ele>1040.2839355469</ele>
        <time>2013-04-14T08:32:29Z</time>
      </trkpt>
      <trkpt lat="43.91716" lon="7.39838">
        <ele>1040.2839355469</ele>
        <time>2013-04-14T08:32:35Z</time>
      </trkpt>
      <trkpt lat="43.91696" lon="7.39858">
        <ele>1043.1677246094</ele>
        <time>2013-04-14T08:32:46Z</time>
      </trkpt>
      <trkpt lat="43.91654" lon="7.39869">
        <ele>1041.2451171875</ele>
        <time>2013-04-14T08:32:59Z</time>
      </trkpt>
      <trkpt lat="43.91638" lon="7.39866">
        <ele>1040.7644042969</ele>
        <time>2013-04-14T08:33:03Z</time>
      </trkpt>
      <trkpt lat="43.91622" lon="7.39859">
        <ele>1041.2451171875</ele>
        <time>2013-04-14T08:33:08Z</time>
      </trkpt>
      <trkpt lat="43.916" lon="7.39845">
        <ele>1041.7258300781</ele>
        <time>2013-04-14T08:33:16Z</time>
      </trkpt>
      <trkpt lat="43.91591" lon="7.39839">
        <ele>1042.2065429688</ele>
        <time>2013-04-14T08:33:19Z</time>
      </trkpt>
      <trkpt lat="43.91535" lon="7.39811">
        <ele>1045.0903320312</ele>
        <time>2013-04-14T08:33:39Z</time>
      </trkpt>
      <trkpt lat="43.91487" lon="7.39793">
        <ele>1043.6484375</ele>
        <time>2013-04-14T08:33:53Z</time>
      </trkpt>
      <trkpt lat="43.91478" lon="7.39789">
        <ele>1043.1677246094</ele>
        <time>2013-04-14T08:33:56Z</time>
      </trkpt>
      <trkpt lat="43.91456" lon="7.39781">
        <ele>1042.2065429688</ele>
        <time>2013-04-14T08:34:02Z</time>
      </trkpt>
      <trkpt lat="43.91441" lon="7.39773">
        <ele>1041.2451171875</ele>
        <time>2013-04-14T08:34:06Z</time>
      </trkpt>
      <trkpt lat="43.91405" lon="7.39775">
        <ele>1038.8420410156</ele>
        <time>2013-04-14T08:34:16Z</time>
      </trkpt>
      <trkpt lat="43.91368" lon="7.39791">
        <ele>1036.4387207031</ele>
        <time>2013-04-14T08:34:27Z</time>
      </trkpt>
      <trkpt lat="43.91359" lon="7.39792">
        <ele>1036.4387207031</ele>
        <time>2013-04-14T08:34:30Z</time>
      </trkpt>
      <trkpt lat="43.91327" lon="7.39807">
        <ele>1036.9191894531</ele>
        <time>2013-04-14T08:34:41Z</time>
      </trkpt>
      <trkpt lat="43.91312" lon="7.39813">
        <ele>1036.9191894531</ele>
        <time>2013-04-14T08:34:46Z</time>
      </trkpt>
      <trkpt lat="43.91265" lon="7.39832">
        <ele>1036.4387207031</ele>
        <time>2013-04-14T08:35:01Z</time>
      </trkpt>
      <trkpt lat="43.91252" lon="7.39843">
        <ele>1037.3999023438</ele>
        <time>2013-04-14T08:35:07Z</time>
      </trkpt>
      <trkpt lat="43.91235" lon="7.39864">
        <ele>1038.361328125</ele>
        <time>2013-04-14T08:35:15Z</time>
      </trkpt>
      <trkpt lat="43.91232" lon="7.3987">
        <ele>1039.3225097656</ele>
        <time>2013-04-14T08:35:17Z</time>
      </trkpt>
      <trkpt lat="43.91224" lon="7.39892">
        <ele>1041.2451171875</ele>
        <time>2013-04-14T08:35:24Z</time>
      </trkpt>
      <trkpt lat="43.91222" lon="7.39901">
        <ele>1041.2451171875</ele>
        <time>2013-04-14T08:35:27Z</time>
      </trkpt>
      <trkpt lat="43.91203" lon="7.39876">
        <ele>1040.7644042969</ele>
        <time>2013-04-14T08:35:30Z</time>
      </trkpt>
      <trkpt lat="43.91172" lon="7.39885">
        <ele>1039.8032226562</ele>
        <time>2013-04-14T08:35:40Z</time>
      </trkpt>
      <trkpt lat="43.9117" lon="7.39907">
        <ele>1039.8032226562</ele>
        <time>2013-04-14T08:35:43Z</time>
      </trkpt>
      <trkpt lat="43.91176" lon="7.39884">
        <ele>1043.1677246094</ele>
        <time>2013-04-14T08:35:53Z</time>
      </trkpt>
      <trkpt lat="43.91178" lon="7.39883">
        <ele>1046.0517578125</ele>
        <time>2013-04-14T08:35:59Z</time>
      </trkpt>
      <trkpt lat="43.91178" lon="7.39883">
        <ele>1046.0517578125</ele>
        <time>2013-04-14T08:36:00Z</time>
      </trkpt>
      <trkpt lat="43.91185" lon="7.39881">
        <ele>1049.8969726562</ele>
        <time>2013-04-14T08:36:10Z</time>
      </trkpt>
      <trkpt lat="43.91185" lon="7.39881">
        <ele>1050.3776855469</ele>
        <time>2013-04-14T08:36:12Z</time>
      </trkpt>
      <trkpt lat="43.91197" lon="7.39874">
        <ele>1052.3002929688</ele>
        <time>2013-04-14T08:36:18Z</time>
      </trkpt>
      <trkpt lat="43.91197" lon="7.39874">
        <ele>1055.1843261719</ele>
        <time>2013-04-14T08:36:27Z</time>
      </trkpt>
      <trkpt lat="43.91197" lon="7.39874">
        <ele>1056.1455078125</ele>
        <time>2013-04-14T08:36:31Z</time>
      </trkpt>
      <trkpt lat="43.91197" lon="7.39874">
        <ele>1056.6262207031</ele>
        <time>2013-04-14T08:36:34Z</time>
      </trkpt>
      <trkpt lat="43.91217" lon="7.39842">
        <ele>1060.9521484375</ele>
        <time>2013-04-14T08:36:46Z</time>
      </trkpt>
      <trkpt lat="43.91217" lon="7.3984">
        <ele>1060.9521484375</ele>
        <time>2013-04-14T08:36:48Z</time>
      </trkpt>
      <trkpt lat="43.91217" lon="7.3984">
        <ele>1061.4328613281</ele>
        <time>2013-04-14T08:36:50Z</time>
      </trkpt>
      <trkpt lat="43.91217" lon="7.3984">
        <ele>1062.3940429688</ele>
        <time>2013-04-14T08:36:54Z</time>
      </trkpt>
      <trkpt lat="43.91217" lon="7.3984">
        <ele>1063.8359375</ele>
        <time>2013-04-14T08:37:02Z</time>
      </trkpt>
      <trkpt lat="43.91221" lon="7.39818">
        <ele>1066.2392578125</ele>
        <time>2013-04-14T08:37:08Z</time>
      </trkpt>
      <trkpt lat="43.91223" lon="7.39809">
        <ele>1069.1235351562</ele>
        <time>2013-04-14T08:37:17Z</time>
      </trkpt>
      <trkpt lat="43.91223" lon="7.39809">
        <ele>1072.4880371094</ele>
        <time>2013-04-14T08:37:24Z</time>
      </trkpt>
      <trkpt lat="43.91223" lon="7.39809">
        <ele>1076.3332519531</ele>
        <time>2013-04-14T08:37:36Z</time>
      </trkpt>
      <trkpt lat="43.91223" lon="7.39809">
        <ele>1077.2946777344</ele>
        <time>2013-04-14T08:37:38Z</time>
      </trkpt>
      <trkpt lat="43.91223" lon="7.39809">
        <ele>1080.1784667969</ele>
        <time>2013-04-14T08:37:45Z</time>
      </trkpt>
      <trkpt lat="43.91223" lon="7.39809">
        <ele>1080.1784667969</ele>
        <time>2013-04-14T08:37:46Z</time>
      </trkpt>
      <trkpt lat="43.91223" lon="7.39809">
        <ele>1081.1398925781</ele>
        <time>2013-04-14T08:37:49Z</time>
      </trkpt>
      <trkpt lat="43.91242" lon="7.39767">
        <ele>1082.1010742188</ele>
        <time>2013-04-14T08:37:53Z</time>
      </trkpt>
      <trkpt lat="43.91268" lon="7.39749">
        <ele>1082.5817871094</ele>
        <time>2013-04-14T08:38:04Z</time>
      </trkpt>
      <trkpt lat="43.91276" lon="7.39744">
        <ele>1083.0622558594</ele>
        <time>2013-04-14T08:38:09Z</time>
      </trkpt>
      <trkpt lat="43.91279" lon="7.39742">
        <ele>1083.54296875</ele>
        <time>2013-04-14T08:38:11Z</time>
      </trkpt>
      <trkpt lat="43.91292" lon="7.39734">
        <ele>1086.9077148438</ele>
        <time>2013-04-14T08:38:18Z</time>
      </trkpt>
      <trkpt lat="43.91295" lon="7.39732">
        <ele>1088.3498535156</ele>
        <time>2013-04-14T08:38:21Z</time>
      </trkpt>
      <trkpt lat="43.91301" lon="7.39728">
        <ele>1089.7917480469</ele>
        <time>2013-04-14T08:38:26Z</time>
      </trkpt>
      <trkpt lat="43.91307" lon="7.39721">
        <ele>1093.15625</ele>
        <time>2013-04-14T08:38:36Z</time>
      </trkpt>
      <trkpt lat="43.91313" lon="7.39709">
        <ele>1094.1176757812</ele>
        <time>2013-04-14T08:38:40Z</time>
      </trkpt>
      <trkpt lat="43.91325" lon="7.39683">
        <ele>1097.4821777344</ele>
        <time>2013-04-14T08:38:50Z</time>
      </trkpt>
      <trkpt lat="43.9133" lon="7.39671">
        <ele>1099.4047851562</ele>
        <time>2013-04-14T08:38:55Z</time>
      </trkpt>
      <trkpt lat="43.9134" lon="7.39651">
        <ele>1100.3664550781</ele>
        <time>2013-04-14T08:39:02Z</time>
      </trkpt>
      <trkpt lat="43.91346" lon="7.39643">
        <ele>1101.8083496094</ele>
        <time>2013-04-14T08:39:08Z</time>
      </trkpt>
      <trkpt lat="43.91346" lon="7.39643">
        <ele>1102.76953125</ele>
        <time>2013-04-14T08:39:10Z</time>
      </trkpt>
      <trkpt lat="43.91367" lon="7.39614">
        <ele>1105.6535644531</ele>
        <time>2013-04-14T08:39:21Z</time>
      </trkpt>
      <trkpt lat="43.91372" lon="7.39606">
        <ele>1107.576171875</ele>
        <time>2013-04-14T08:39:27Z</time>
      </trkpt>
      <trkpt lat="43.91372" lon="7.39606">
        <ele>1110.9406738281</ele>
        <time>2013-04-14T08:39:36Z</time>
      </trkpt>
      <trkpt lat="43.91388" lon="7.39592">
        <ele>1113.3439941406</ele>
        <time>2013-04-14T08:39:46Z</time>
      </trkpt>
      <trkpt lat="43.91388" lon="7.39592">
        <ele>1116.7087402344</ele>
        <time>2013-04-14T08:39:54Z</time>
      </trkpt>
      <trkpt lat="43.91388" lon="7.39592">
        <ele>1117.669921875</ele>
        <time>2013-04-14T08:39:57Z</time>
      </trkpt>
      <trkpt lat="43.91388" lon="7.39592">
        <ele>1121.5151367188</ele>
        <time>2013-04-14T08:40:08Z</time>
      </trkpt>
      <trkpt lat="43.91388" lon="7.39592">
        <ele>1121.5151367188</ele>
        <time>2013-04-14T08:40:09Z</time>
      </trkpt>
      <trkpt lat="43.91412" lon="7.39569">
        <ele>1122.4765625</ele>
        <time>2013-04-14T08:40:13Z</time>
      </trkpt>
      <trkpt lat="43.91412" lon="7.39569">
        <ele>1126.3217773438</ele>
        <time>2013-04-14T08:40:25Z</time>
      </trkpt>
      <trkpt lat="43.91412" lon="7.39569">
        <ele>1128.7250976562</ele>
        <time>2013-04-14T08:40:31Z</time>
      </trkpt>
      <trkpt lat="43.91427" lon="7.39544">
        <ele>1131.1284179688</ele>
        <time>2013-04-14T08:40:39Z</time>
      </trkpt>
      <trkpt lat="43.91427" lon="7.39544">
        <ele>1134.9738769531</ele>
        <time>2013-04-14T08:40:50Z</time>
      </trkpt>
      <trkpt lat="43.91427" lon="7.39544">
        <ele>1138.3383789062</ele>
        <time>2013-04-14T08:41:01Z</time>
      </trkpt>
      <trkpt lat="43.91427" lon="7.39544">
        <ele>1139.7802734375</ele>
        <time>2013-04-14T08:41:05Z</time>
      </trkpt>
      <trkpt lat="43.91427" lon="7.39544">
        <ele>1140.2609863281</ele>
        <time>2013-04-14T08:41:07Z</time>
      </trkpt>
      <trkpt lat="43.91427" lon="7.39544">
        <ele>1141.7028808594</ele>
        <time>2013-04-14T08:41:12Z</time>
      </trkpt>
      <trkpt lat="43.91427" lon="7.39544">
        <ele>1145.5480957031</ele>
        <time>2013-04-14T08:41:22Z</time>
      </trkpt>
      <trkpt lat="43.91427" lon="7.39544">
        <ele>1145.5480957031</ele>
        <time>2013-04-14T08:41:23Z</time>
      </trkpt>
      <trkpt lat="43.91459" lon="7.39507">
        <ele>1149.8742675781</ele>
        <time>2013-04-14T08:41:39Z</time>
      </trkpt>
      <trkpt lat="43.91459" lon="7.39507">
        <ele>1151.796875</ele>
        <time>2013-04-14T08:41:44Z</time>
      </trkpt>
      <trkpt lat="43.91459" lon="7.39507">
        <ele>1153.7194824219</ele>
        <time>2013-04-14T08:41:50Z</time>
      </trkpt>
      <trkpt lat="43.91459" lon="7.39507">
        <ele>1157.083984375</ele>
        <time>2013-04-14T08:42:02Z</time>
      </trkpt>
      <trkpt lat="43.9149" lon="7.39493">
        <ele>1159.9677734375</ele>
        <time>2013-04-14T08:42:11Z</time>
      </trkpt>
      <trkpt lat="43.91499" lon="7.39488">
        <ele>1161.4099121094</ele>
        <time>2013-04-14T08:42:20Z</time>
      </trkpt>
      <trkpt lat="43.9152" lon="7.3947">
        <ele>1165.2553710938</ele>
        <time>2013-04-14T08:42:34Z</time>
      </trkpt>
      <trkpt lat="43.91535" lon="7.39457">
        <ele>1168.1391601562</ele>
        <time>2013-04-14T08:42:43Z</time>
      </trkpt>
      <trkpt lat="43.91536" lon="7.39456">
        <ele>1171.984375</ele>
        <time>2013-04-14T08:42:55Z</time>
      </trkpt>
      <trkpt lat="43.91536" lon="7.39456">
        <ele>1175.3488769531</ele>
        <time>2013-04-14T08:43:05Z</time>
      </trkpt>
      <trkpt lat="43.91536" lon="7.39456">
        <ele>1176.791015625</ele>
        <time>2013-04-14T08:43:09Z</time>
      </trkpt>
      <trkpt lat="43.91564" lon="7.39439">
        <ele>1179.1940917969</ele>
        <time>2013-04-14T08:43:16Z</time>
      </trkpt>
      <trkpt lat="43.91571" lon="7.39437">
        <ele>1182.5590820312</ele>
        <time>2013-04-14T08:43:28Z</time>
      </trkpt>
      <trkpt lat="43.91571" lon="7.39437">
        <ele>1183.5202636719</ele>
        <time>2013-04-14T08:43:30Z</time>
      </trkpt>
      <trkpt lat="43.91571" lon="7.39437">
        <ele>1186.884765625</ele>
        <time>2013-04-14T08:43:39Z</time>
      </trkpt>
      <trkpt lat="43.91571" lon="7.39437">
        <ele>1189.2880859375</ele>
        <time>2013-04-14T08:43:47Z</time>
      </trkpt>
      <trkpt lat="43.91571" lon="7.39437">
        <ele>1192.1721191406</ele>
        <time>2013-04-14T08:43:56Z</time>
      </trkpt>
      <trkpt lat="43.91571" lon="7.39437">
        <ele>1195.5366210938</ele>
        <time>2013-04-14T08:44:06Z</time>
      </trkpt>
      <trkpt lat="43.91571" lon="7.39437">
        <ele>1196.4982910156</ele>
        <time>2013-04-14T08:44:10Z</time>
      </trkpt>
      <trkpt lat="43.91571" lon="7.39437">
        <ele>1200.3435058594</ele>
        <time>2013-04-14T08:44:21Z</time>
      </trkpt>
      <trkpt lat="43.91571" lon="7.39437">
        <ele>1203.7080078125</ele>
        <time>2013-04-14T08:44:30Z</time>
      </trkpt>
      <trkpt lat="43.91571" lon="7.39437">
        <ele>1207.0725097656</ele>
        <time>2013-04-14T08:44:40Z</time>
      </trkpt>
      <trkpt lat="43.91641" lon="7.39418">
        <ele>1210.4370117188</ele>
        <time>2013-04-14T08:44:55Z</time>
      </trkpt>
      <trkpt lat="43.9166" lon="7.39414">
        <ele>1213.8017578125</ele>
        <time>2013-04-14T08:45:05Z</time>
      </trkpt>
      <trkpt lat="43.9166" lon="7.39414">
        <ele>1217.1665039062</ele>
        <time>2013-04-14T08:45:14Z</time>
      </trkpt>
      <trkpt lat="43.9166" lon="7.39414">
        <ele>1220.5310058594</ele>
        <time>2013-04-14T08:45:26Z</time>
      </trkpt>
      <trkpt lat="43.91642" lon="7.39375">
        <ele>1223.4150390625</ele>
        <time>2013-04-14T08:45:42Z</time>
      </trkpt>
      <trkpt lat="43.9164" lon="7.39372">
        <ele>1223.8955078125</ele>
        <time>2013-04-14T08:45:43Z</time>
      </trkpt>
      <trkpt lat="43.9163" lon="7.39315">
        <ele>1227.2602539062</ele>
        <time>2013-04-14T08:46:02Z</time>
      </trkpt>
      <trkpt lat="43.91624" lon="7.39272">
        <ele>1230.625</ele>
        <time>2013-04-14T08:46:17Z</time>
      </trkpt>
      <trkpt lat="43.91616" lon="7.39239">
        <ele>1233.0280761719</ele>
        <time>2013-04-14T08:46:29Z</time>
      </trkpt>
      <trkpt lat="43.91599" lon="7.392">
        <ele>1235.912109375</ele>
        <time>2013-04-14T08:46:45Z</time>
      </trkpt>
      <trkpt lat="43.91583" lon="7.39162">
        <ele>1239.2766113281</ele>
        <time>2013-04-14T08:46:59Z</time>
      </trkpt>
      <trkpt lat="43.91568" lon="7.3913">
        <ele>1242.6413574219</ele>
        <time>2013-04-14T08:47:12Z</time>
      </trkpt>
      <trkpt lat="43.91548" lon="7.39098">
        <ele>1246.0061035156</ele>
        <time>2013-04-14T08:47:26Z</time>
      </trkpt>
      <trkpt lat="43.91537" lon="7.39081">
        <ele>1247.9287109375</ele>
        <time>2013-04-14T08:47:33Z</time>
      </trkpt>
      <trkpt lat="43.91532" lon="7.39072">
        <ele>1247.9287109375</ele>
        <time>2013-04-14T08:47:37Z</time>
      </trkpt>
      <trkpt lat="43.91528" lon="7.39056">
        <ele>1249.8513183594</ele>
        <time>2013-04-14T08:47:58Z</time>
      </trkpt>
      <trkpt lat="43.91528" lon="7.39056">
        <ele>1249.8513183594</ele>
        <time>2013-04-14T08:48:08Z</time>
      </trkpt>
      <trkpt lat="43.91529" lon="7.3905">
        <ele>1252.2543945312</ele>
        <time>2013-04-14T08:48:20Z</time>
      </trkpt>
      <trkpt lat="43.91529" lon="7.3905">
        <ele>1254.6577148438</ele>
        <time>2013-04-14T08:48:27Z</time>
      </trkpt>
      <trkpt lat="43.91529" lon="7.3905">
        <ele>1255.1384277344</ele>
        <time>2013-04-14T08:48:29Z</time>
      </trkpt>
      <trkpt lat="43.91529" lon="7.3905">
        <ele>1258.5029296875</ele>
        <time>2013-04-14T08:48:38Z</time>
      </trkpt>
      <trkpt lat="43.91529" lon="7.3905">
        <ele>1261.3872070312</ele>
        <time>2013-04-14T08:48:48Z</time>
      </trkpt>
      <trkpt lat="43.91529" lon="7.3905">
        <ele>1265.232421875</ele>
        <time>2013-04-14T08:48:59Z</time>
      </trkpt>
      <trkpt lat="43.91529" lon="7.3905">
        <ele>1268.5969238281</ele>
        <time>2013-04-14T08:49:10Z</time>
      </trkpt>
      <trkpt lat="43.91529" lon="7.3905">
        <ele>1271.9614257812</ele>
        <time>2013-04-14T08:49:22Z</time>
      </trkpt>
      <trkpt lat="43.91529" lon="7.3905">
        <ele>1273.8840332031</ele>
        <time>2013-04-14T08:49:28Z</time>
      </trkpt>
      <trkpt lat="43.91529" lon="7.3905">
        <ele>1277.2490234375</ele>
        <time>2013-04-14T08:49:37Z</time>
      </trkpt>
      <trkpt lat="43.91529" lon="7.3905">
        <ele>1280.6135253906</ele>
        <time>2013-04-14T08:49:48Z</time>
      </trkpt>
      <trkpt lat="43.9161" lon="7.39082">
        <ele>1283.9780273438</ele>
        <time>2013-04-14T08:50:00Z</time>
      </trkpt>
      <trkpt lat="43.9161" lon="7.39082">
        <ele>1286.3813476562</ele>
        <time>2013-04-14T08:50:08Z</time>
      </trkpt>
      <trkpt lat="43.9161" lon="7.39082">
        <ele>1289.2651367188</ele>
        <time>2013-04-14T08:50:17Z</time>
      </trkpt>
      <trkpt lat="43.9161" lon="7.39082">
        <ele>1292.6301269531</ele>
        <time>2013-04-14T08:50:28Z</time>
      </trkpt>
      <trkpt lat="43.9161" lon="7.39082">
        <ele>1296.4753417969</ele>
        <time>2013-04-14T08:50:42Z</time>
      </trkpt>
      <trkpt lat="43.9161" lon="7.39082">
        <ele>1297.4365234375</ele>
        <time>2013-04-14T08:50:45Z</time>
      </trkpt>
      <trkpt lat="43.91651" lon="7.39103">
        <ele>1300.8010253906</ele>
        <time>2013-04-14T08:50:57Z</time>
      </trkpt>
      <trkpt lat="43.91668" lon="7.39111">
        <ele>1304.6462402344</ele>
        <time>2013-04-14T08:51:10Z</time>
      </trkpt>
      <trkpt lat="43.91668" lon="7.39111">
        <ele>1307.5302734375</ele>
        <time>2013-04-14T08:51:20Z</time>
      </trkpt>
      <trkpt lat="43.91668" lon="7.39111">
        <ele>1309.93359375</ele>
        <time>2013-04-14T08:51:27Z</time>
      </trkpt>
      <trkpt lat="43.91668" lon="7.39111">
        <ele>1311.8564453125</ele>
        <time>2013-04-14T08:51:34Z</time>
      </trkpt>
      <trkpt lat="43.91668" lon="7.39111">
        <ele>1313.7788085938</ele>
        <time>2013-04-14T08:51:41Z</time>
      </trkpt>
      <trkpt lat="43.91668" lon="7.39111">
        <ele>1315.7016601562</ele>
        <time>2013-04-14T08:51:47Z</time>
      </trkpt>
      <trkpt lat="43.91668" lon="7.39111">
        <ele>1319.0661621094</ele>
        <time>2013-04-14T08:51:58Z</time>
      </trkpt>
      <trkpt lat="43.91668" lon="7.39111">
        <ele>1321.9499511719</ele>
        <time>2013-04-14T08:52:07Z</time>
      </trkpt>
      <trkpt lat="43.91716" lon="7.39137">
        <ele>1324.8342285156</ele>
        <time>2013-04-14T08:52:19Z</time>
      </trkpt>
      <trkpt lat="43.91742" lon="7.39133">
        <ele>1327.7180175781</ele>
        <time>2013-04-14T08:52:27Z</time>
      </trkpt>
      <trkpt lat="43.91746" lon="7.39132">
        <ele>1328.1987304688</ele>
        <time>2013-04-14T08:52:30Z</time>
      </trkpt>
      <trkpt lat="43.91751" lon="7.3913">
        <ele>1329.1599121094</ele>
        <time>2013-04-14T08:52:32Z</time>
      </trkpt>
      <trkpt lat="43.91762" lon="7.39124">
        <ele>1331.5632324219</ele>
        <time>2013-04-14T08:52:40Z</time>
      </trkpt>
      <trkpt lat="43.91773" lon="7.39118">
        <ele>1333.4858398438</ele>
        <time>2013-04-14T08:52:46Z</time>
      </trkpt>
      <trkpt lat="43.91782" lon="7.39113">
        <ele>1334.447265625</ele>
        <time>2013-04-14T08:52:52Z</time>
      </trkpt>
      <trkpt lat="43.91791" lon="7.3911">
        <ele>1336.3698730469</ele>
        <time>2013-04-14T08:52:57Z</time>
      </trkpt>
      <trkpt lat="43.91796" lon="7.39108">
        <ele>1336.3698730469</ele>
        <time>2013-04-14T08:52:59Z</time>
      </trkpt>
      <trkpt lat="43.91817" lon="7.39104">
        <ele>1338.7731933594</ele>
        <time>2013-04-14T08:53:07Z</time>
      </trkpt>
      <trkpt lat="43.91857" lon="7.39095">
        <ele>1341.1765136719</ele>
        <time>2013-04-14T08:53:23Z</time>
      </trkpt>
      <trkpt lat="43.91859" lon="7.39094">
        <ele>1340.2153320312</ele>
        <time>2013-04-14T08:53:25Z</time>
      </trkpt>
      <trkpt lat="43.91859" lon="7.39094">
        <ele>1341.1765136719</ele>
        <time>2013-04-14T08:53:28Z</time>
      </trkpt>
      <trkpt lat="43.91874" lon="7.39089">
        <ele>1340.6958007812</ele>
        <time>2013-04-14T08:53:32Z</time>
      </trkpt>
      <trkpt lat="43.91884" lon="7.39084">
        <ele>1340.6958007812</ele>
        <time>2013-04-14T08:53:37Z</time>
      </trkpt>
      <trkpt lat="43.9189" lon="7.39081">
        <ele>1341.6572265625</ele>
        <time>2013-04-14T08:53:42Z</time>
      </trkpt>
      <trkpt lat="43.919" lon="7.39077">
        <ele>1343.0991210938</ele>
        <time>2013-04-14T08:53:48Z</time>
      </trkpt>
      <trkpt lat="43.9191" lon="7.39071">
        <ele>1345.0217285156</ele>
        <time>2013-04-14T08:53:54Z</time>
      </trkpt>
      <trkpt lat="43.91914" lon="7.3907">
        <ele>1345.9831542969</ele>
        <time>2013-04-14T08:53:58Z</time>
      </trkpt>
      <trkpt lat="43.91923" lon="7.39065">
        <ele>1345.5024414062</ele>
        <time>2013-04-14T08:54:01Z</time>
      </trkpt>
      <trkpt lat="43.9194" lon="7.39057">
        <ele>1343.5798339844</ele>
        <time>2013-04-14T08:54:07Z</time>
      </trkpt>
      <trkpt lat="43.91958" lon="7.39052">
        <ele>1343.5798339844</ele>
        <time>2013-04-14T08:54:12Z</time>
      </trkpt>
      <trkpt lat="43.91991" lon="7.39046">
        <ele>1343.5798339844</ele>
        <time>2013-04-14T08:54:22Z</time>
      </trkpt>
      <trkpt lat="43.91997" lon="7.39045">
        <ele>1345.0217285156</ele>
        <time>2013-04-14T08:54:29Z</time>
      </trkpt>
      <trkpt lat="43.92016" lon="7.39043">
        <ele>1346.9443359375</ele>
        <time>2013-04-14T08:54:36Z</time>
      </trkpt>
      <trkpt lat="43.9203" lon="7.39038">
        <ele>1349.8283691406</ele>
        <time>2013-04-14T08:54:45Z</time>
      </trkpt>
      <trkpt lat="43.92044" lon="7.39032">
        <ele>1353.1928710938</ele>
        <time>2013-04-14T08:54:57Z</time>
      </trkpt>
      <trkpt lat="43.92044" lon="7.39032">
        <ele>1353.1928710938</ele>
        <time>2013-04-14T08:54:58Z</time>
      </trkpt>
      <trkpt lat="43.92055" lon="7.39023">
        <ele>1357.0383300781</ele>
        <time>2013-04-14T08:55:08Z</time>
      </trkpt>
      <trkpt lat="43.92055" lon="7.39023">
        <ele>1357.0383300781</ele>
        <time>2013-04-14T08:55:09Z</time>
      </trkpt>
      <trkpt lat="43.92055" lon="7.39023">
        <ele>1358.9609375</ele>
        <time>2013-04-14T08:55:14Z</time>
      </trkpt>
      <trkpt lat="43.92067" lon="7.3901">
        <ele>1362.3254394531</ele>
        <time>2013-04-14T08:55:25Z</time>
      </trkpt>
      <trkpt lat="43.92078" lon="7.39001">
        <ele>1363.7673339844</ele>
        <time>2013-04-14T08:55:31Z</time>
      </trkpt>
      <trkpt lat="43.92079" lon="7.39">
        <ele>1364.248046875</ele>
        <time>2013-04-14T08:55:35Z</time>
      </trkpt>
      <trkpt lat="43.92079" lon="7.39">
        <ele>1364.7287597656</ele>
        <time>2013-04-14T08:55:38Z</time>
      </trkpt>
      <trkpt lat="43.92085" lon="7.38993">
        <ele>1365.2094726562</ele>
        <time>2013-04-14T08:55:40Z</time>
      </trkpt>
      <trkpt lat="43.92085" lon="7.38993">
        <ele>1366.6513671875</ele>
        <time>2013-04-14T08:55:44Z</time>
      </trkpt>
      <trkpt lat="43.92085" lon="7.38993">
        <ele>1367.6125488281</ele>
        <time>2013-04-14T08:55:46Z</time>
      </trkpt>
      <trkpt lat="43.92085" lon="7.38993">
        <ele>1367.6125488281</ele>
        <time>2013-04-14T08:55:49Z</time>
      </trkpt>
      <trkpt lat="43.92099" lon="7.3898">
        <ele>1371.9384765625</ele>
        <time>2013-04-14T08:56:02Z</time>
      </trkpt>
      <trkpt lat="43.92099" lon="7.3898">
        <ele>1372.4194335938</ele>
        <time>2013-04-14T08:56:04Z</time>
      </trkpt>
      <trkpt lat="43.92099" lon="7.3898">
        <ele>1373.380859375</ele>
        <time>2013-04-14T08:56:06Z</time>
      </trkpt>
      <trkpt lat="43.9211" lon="7.38967">
        <ele>1374.3420410156</ele>
        <time>2013-04-14T08:56:10Z</time>
      </trkpt>
      <trkpt lat="43.92111" lon="7.38966">
        <ele>1374.3420410156</ele>
        <time>2013-04-14T08:56:12Z</time>
      </trkpt>
      <trkpt lat="43.92111" lon="7.38966">
        <ele>1376.7453613281</ele>
        <time>2013-04-14T08:56:19Z</time>
      </trkpt>
      <trkpt lat="43.92113" lon="7.38953">
        <ele>1378.1872558594</ele>
        <time>2013-04-14T08:56:23Z</time>
      </trkpt>
      <trkpt lat="43.92113" lon="7.38953">
        <ele>1379.1484375</ele>
        <time>2013-04-14T08:56:26Z</time>
      </trkpt>
      <trkpt lat="43.92113" lon="7.38953">
        <ele>1380.5905761719</ele>
        <time>2013-04-14T08:56:32Z</time>
      </trkpt>
      <trkpt lat="43.92115" lon="7.38935">
        <ele>1383.955078125</ele>
        <time>2013-04-14T08:56:43Z</time>
      </trkpt>
      <trkpt lat="43.92115" lon="7.38935">
        <ele>1384.9165039062</ele>
        <time>2013-04-14T08:56:48Z</time>
      </trkpt>
      <trkpt lat="43.92115" lon="7.38935">
        <ele>1386.8388671875</ele>
        <time>2013-04-14T08:56:53Z</time>
      </trkpt>
      <trkpt lat="43.92116" lon="7.38911">
        <ele>1389.7231445312</ele>
        <time>2013-04-14T08:57:04Z</time>
      </trkpt>
      <trkpt lat="43.92153" lon="7.38886">
        <ele>1392.1264648438</ele>
        <time>2013-04-14T08:57:14Z</time>
      </trkpt>
      <trkpt lat="43.92153" lon="7.38886">
        <ele>1393.568359375</ele>
        <time>2013-04-14T08:57:19Z</time>
      </trkpt>
      <trkpt lat="43.92156" lon="7.38887">
        <ele>1396.4523925781</ele>
        <time>2013-04-14T08:57:28Z</time>
      </trkpt>
      <trkpt lat="43.92162" lon="7.3889">
        <ele>1398.85546875</ele>
        <time>2013-04-14T08:57:35Z</time>
      </trkpt>
      <trkpt lat="43.92207" lon="7.38861">
        <ele>1398.85546875</ele>
        <time>2013-04-14T08:57:52Z</time>
      </trkpt>
      <trkpt lat="43.92241" lon="7.3886">
        <ele>1399.3361816406</ele>
        <time>2013-04-14T08:58:04Z</time>
      </trkpt>
      <trkpt lat="43.92253" lon="7.38855">
        <ele>1400.2976074219</ele>
        <time>2013-04-14T08:58:10Z</time>
      </trkpt>
      <trkpt lat="43.92274" lon="7.38846">
        <ele>1402.7006835938</ele>
        <time>2013-04-14T08:58:19Z</time>
      </trkpt>
      <trkpt lat="43.92282" lon="7.38843">
        <ele>1403.662109375</ele>
        <time>2013-04-14T08:58:23Z</time>
      </trkpt>
      <trkpt lat="43.92292" lon="7.38844">
        <ele>1403.662109375</ele>
        <time>2013-04-14T08:58:27Z</time>
      </trkpt>
      <trkpt lat="43.92305" lon="7.38842">
        <ele>1404.6235351562</ele>
        <time>2013-04-14T08:58:32Z</time>
      </trkpt>
      <trkpt lat="43.92319" lon="7.38841">
        <ele>1406.0654296875</ele>
        <time>2013-04-14T08:58:38Z</time>
      </trkpt>
      <trkpt lat="43.92325" lon="7.38842">
        <ele>1406.5461425781</ele>
        <time>2013-04-14T08:58:40Z</time>
      </trkpt>
      <trkpt lat="43.92329" lon="7.38844">
        <ele>1407.5075683594</ele>
        <time>2013-04-14T08:58:42Z</time>
      </trkpt>
      <trkpt lat="43.92348" lon="7.38858">
        <ele>1408.46875</ele>
        <time>2013-04-14T08:58:50Z</time>
      </trkpt>
      <trkpt lat="43.9236" lon="7.38867">
        <ele>1410.8720703125</ele>
        <time>2013-04-14T08:58:57Z</time>
      </trkpt>
      <trkpt lat="43.92375" lon="7.3888">
        <ele>1412.7946777344</ele>
        <time>2013-04-14T08:59:04Z</time>
      </trkpt>
      <trkpt lat="43.9238" lon="7.38887">
        <ele>1412.3139648438</ele>
        <time>2013-04-14T08:59:07Z</time>
      </trkpt>
      <trkpt lat="43.92387" lon="7.38892">
        <ele>1412.7946777344</ele>
        <time>2013-04-14T08:59:10Z</time>
      </trkpt>
      <trkpt lat="43.92403" lon="7.38901">
        <ele>1416.6398925781</ele>
        <time>2013-04-14T08:59:19Z</time>
      </trkpt>
      <trkpt lat="43.92403" lon="7.38901">
        <ele>1416.6398925781</ele>
        <time>2013-04-14T08:59:20Z</time>
      </trkpt>
      <trkpt lat="43.92415" lon="7.38908">
        <ele>1420.0046386719</ele>
        <time>2013-04-14T08:59:35Z</time>
      </trkpt>
      <trkpt lat="43.92418" lon="7.3891">
        <ele>1420.4853515625</ele>
        <time>2013-04-14T08:59:37Z</time>
      </trkpt>
      <trkpt lat="43.92437" lon="7.3892">
        <ele>1423.8498535156</ele>
        <time>2013-04-14T08:59:44Z</time>
      </trkpt>
      <trkpt lat="43.92448" lon="7.38931">
        <ele>1424.8112792969</ele>
        <time>2013-04-14T08:59:50Z</time>
      </trkpt>
      <trkpt lat="43.92476" lon="7.38953">
        <ele>1427.2145996094</ele>
        <time>2013-04-14T09:00:05Z</time>
      </trkpt>
      <trkpt lat="43.925" lon="7.38979">
        <ele>1429.1369628906</ele>
        <time>2013-04-14T09:00:17Z</time>
      </trkpt>
      <trkpt lat="43.92526" lon="7.39005">
        <ele>1426.2531738281</ele>
        <time>2013-04-14T09:00:28Z</time>
      </trkpt>
      <trkpt lat="43.92547" lon="7.39023">
        <ele>1425.2917480469</ele>
        <time>2013-04-14T09:00:36Z</time>
      </trkpt>
      <trkpt lat="43.92561" lon="7.39034">
        <ele>1424.8112792969</ele>
        <time>2013-04-14T09:00:41Z</time>
      </trkpt>
      <trkpt lat="43.92583" lon="7.3905">
        <ele>1426.2531738281</ele>
        <time>2013-04-14T09:00:49Z</time>
      </trkpt>
      <trkpt lat="43.92593" lon="7.39066">
        <ele>1425.2917480469</ele>
        <time>2013-04-14T09:00:54Z</time>
      </trkpt>
      <trkpt lat="43.92596" lon="7.39071">
        <ele>1425.7724609375</ele>
        <time>2013-04-14T09:00:56Z</time>
      </trkpt>
      <trkpt lat="43.92604" lon="7.39076">
        <ele>1427.6950683594</ele>
        <time>2013-04-14T09:01:00Z</time>
      </trkpt>
      <trkpt lat="43.92609" lon="7.39083">
        <ele>1429.1369628906</ele>
        <time>2013-04-14T09:01:04Z</time>
      </trkpt>
      <trkpt lat="43.92617" lon="7.39087">
        <ele>1428.17578125</ele>
        <time>2013-04-14T09:01:08Z</time>
      </trkpt>
      <trkpt lat="43.9263" lon="7.39098">
        <ele>1424.8112792969</ele>
        <time>2013-04-14T09:01:14Z</time>
      </trkpt>
      <trkpt lat="43.92632" lon="7.39101">
        <ele>1424.8112792969</ele>
        <time>2013-04-14T09:01:15Z</time>
      </trkpt>
      <trkpt lat="43.92643" lon="7.39118">
        <ele>1421.9272460938</ele>
        <time>2013-04-14T09:01:20Z</time>
      </trkpt>
      <trkpt lat="43.92646" lon="7.39123">
        <ele>1420.4853515625</ele>
        <time>2013-04-14T09:01:22Z</time>
      </trkpt>
      <trkpt lat="43.9265" lon="7.39129">
        <ele>1419.0432128906</ele>
        <time>2013-04-14T09:01:24Z</time>
      </trkpt>
      <trkpt lat="43.92658" lon="7.39138">
        <ele>1417.6010742188</ele>
        <time>2013-04-14T09:01:27Z</time>
      </trkpt>
      <trkpt lat="43.92673" lon="7.3917">
        <ele>1415.1979980469</ele>
        <time>2013-04-14T09:01:35Z</time>
      </trkpt>
      <trkpt lat="43.9269" lon="7.39193">
        <ele>1414.7172851562</ele>
        <time>2013-04-14T09:01:42Z</time>
      </trkpt>
      <trkpt lat="43.92706" lon="7.39205">
        <ele>1415.1979980469</ele>
        <time>2013-04-14T09:01:48Z</time>
      </trkpt>
      <trkpt lat="43.92719" lon="7.39217">
        <ele>1416.1591796875</ele>
        <time>2013-04-14T09:01:55Z</time>
      </trkpt>
      <trkpt lat="43.92754" lon="7.3924">
        <ele>1418.0817871094</ele>
        <time>2013-04-14T09:02:11Z</time>
      </trkpt>
      <trkpt lat="43.92757" lon="7.39242">
        <ele>1418.5625</ele>
        <time>2013-04-14T09:02:13Z</time>
      </trkpt>
      <trkpt lat="43.92764" lon="7.3924">
        <ele>1418.5625</ele>
        <time>2013-04-14T09:02:16Z</time>
      </trkpt>
      <trkpt lat="43.92781" lon="7.3924">
        <ele>1419.0432128906</ele>
        <time>2013-04-14T09:02:22Z</time>
      </trkpt>
      <trkpt lat="43.92801" lon="7.39239">
        <ele>1419.5239257812</ele>
        <time>2013-04-14T09:02:29Z</time>
      </trkpt>
      <trkpt lat="43.9281" lon="7.39242">
        <ele>1419.5239257812</ele>
        <time>2013-04-14T09:02:33Z</time>
      </trkpt>
      <trkpt lat="43.92821" lon="7.39238">
        <ele>1418.0817871094</ele>
        <time>2013-04-14T09:02:38Z</time>
      </trkpt>
      <trkpt lat="43.92829" lon="7.39238">
        <ele>1417.1206054688</ele>
        <time>2013-04-14T09:02:41Z</time>
      </trkpt>
      <trkpt lat="43.92854" lon="7.39227">
        <ele>1414.2365722656</ele>
        <time>2013-04-14T09:02:47Z</time>
      </trkpt>
      <trkpt lat="43.92858" lon="7.39225">
        <ele>1414.2365722656</ele>
        <time>2013-04-14T09:02:48Z</time>
      </trkpt>
      <trkpt lat="43.92863" lon="7.39223">
        <ele>1412.7946777344</ele>
        <time>2013-04-14T09:02:50Z</time>
      </trkpt>
      <trkpt lat="43.92867" lon="7.3922">
        <ele>1410.8720703125</ele>
        <time>2013-04-14T09:02:52Z</time>
      </trkpt>
      <trkpt lat="43.92873" lon="7.39218">
        <ele>1408.9494628906</ele>
        <time>2013-04-14T09:02:54Z</time>
      </trkpt>
      <trkpt lat="43.92879" lon="7.39219">
        <ele>1407.0268554688</ele>
        <time>2013-04-14T09:02:56Z</time>
      </trkpt>
      <trkpt lat="43.92889" lon="7.39217">
        <ele>1404.6235351562</ele>
        <time>2013-04-14T09:02:59Z</time>
      </trkpt>
      <trkpt lat="43.92893" lon="7.39217">
        <ele>1403.1813964844</ele>
        <time>2013-04-14T09:03:00Z</time>
      </trkpt>
      <trkpt lat="43.92899" lon="7.39212">
        <ele>1401.7395019531</ele>
        <time>2013-04-14T09:03:03Z</time>
      </trkpt>
      <trkpt lat="43.9291" lon="7.39212">
        <ele>1399.8168945312</ele>
        <time>2013-04-14T09:03:05Z</time>
      </trkpt>
      <trkpt lat="43.92922" lon="7.39207">
        <ele>1398.3747558594</ele>
        <time>2013-04-14T09:03:07Z</time>
      </trkpt>
      <trkpt lat="43.92934" lon="7.39203">
        <ele>1396.9328613281</ele>
        <time>2013-04-14T09:03:09Z</time>
      </trkpt>
      <trkpt lat="43.92952" lon="7.39205">
        <ele>1395.0102539062</ele>
        <time>2013-04-14T09:03:11Z</time>
      </trkpt>
      <trkpt lat="43.9296" lon="7.39197">
        <ele>1393.568359375</ele>
        <time>2013-04-14T09:03:13Z</time>
      </trkpt>
      <trkpt lat="43.92965" lon="7.39192">
        <ele>1391.1650390625</ele>
        <time>2013-04-14T09:03:15Z</time>
      </trkpt>
      <trkpt lat="43.92971" lon="7.39187">
        <ele>1389.2424316406</ele>
        <time>2013-04-14T09:03:17Z</time>
      </trkpt>
      <trkpt lat="43.92976" lon="7.39183">
        <ele>1385.8776855469</ele>
        <time>2013-04-14T09:03:19Z</time>
      </trkpt>
      <trkpt lat="43.92981" lon="7.39182">
        <ele>1385.8776855469</ele>
        <time>2013-04-14T09:03:20Z</time>
      </trkpt>
      <trkpt lat="43.9299" lon="7.39179">
        <ele>1384.4357910156</ele>
        <time>2013-04-14T09:03:22Z</time>
      </trkpt>
      <trkpt lat="43.92995" lon="7.39177">
        <ele>1382.5131835938</ele>
        <time>2013-04-14T09:03:24Z</time>
      </trkpt>
      <trkpt lat="43.92997" lon="7.39171">
        <ele>1380.5905761719</ele>
        <time>2013-04-14T09:03:26Z</time>
      </trkpt>
      <trkpt lat="43.93" lon="7.3917">
        <ele>1378.66796875</ele>
        <time>2013-04-14T09:03:28Z</time>
      </trkpt>
      <trkpt lat="43.93003" lon="7.39166">
        <ele>1377.2260742188</ele>
        <time>2013-04-14T09:03:30Z</time>
      </trkpt>
      <trkpt lat="43.93007" lon="7.39164">
        <ele>1374.8227539062</ele>
        <time>2013-04-14T09:03:32Z</time>
      </trkpt>
      <trkpt lat="43.93015" lon="7.39162">
        <ele>1372.9001464844</ele>
        <time>2013-04-14T09:03:34Z</time>
      </trkpt>
      <trkpt lat="43.93017" lon="7.39159">
        <ele>1370.9772949219</ele>
        <time>2013-04-14T09:03:35Z</time>
      </trkpt>
      <trkpt lat="43.93026" lon="7.39152">
        <ele>1366.6513671875</ele>
        <time>2013-04-14T09:03:38Z</time>
      </trkpt>
      <trkpt lat="43.93027" lon="7.3915">
        <ele>1366.6513671875</ele>
        <time>2013-04-14T09:03:39Z</time>
      </trkpt>
      <trkpt lat="43.93029" lon="7.39147">
        <ele>1364.7287597656</ele>
        <time>2013-04-14T09:03:41Z</time>
      </trkpt>
      <trkpt lat="43.93032" lon="7.39143">
        <ele>1363.2868652344</ele>
        <time>2013-04-14T09:03:43Z</time>
      </trkpt>
      <trkpt lat="43.93038" lon="7.3914">
        <ele>1361.3642578125</ele>
        <time>2013-04-14T09:03:45Z</time>
      </trkpt>
      <trkpt lat="43.93042" lon="7.39139">
        <ele>1359.4416503906</ele>
        <time>2013-04-14T09:03:47Z</time>
      </trkpt>
      <trkpt lat="43.93043" lon="7.39138">
        <ele>1357.9997558594</ele>
        <time>2013-04-14T09:03:48Z</time>
      </trkpt>
      <trkpt lat="43.93051" lon="7.39133">
        <ele>1356.5576171875</ele>
        <time>2013-04-14T09:03:51Z</time>
      </trkpt>
      <trkpt lat="43.93056" lon="7.3913">
        <ele>1354.634765625</ele>
        <time>2013-04-14T09:03:53Z</time>
      </trkpt>
      <trkpt lat="43.93058" lon="7.39123">
        <ele>1352.7121582031</ele>
        <time>2013-04-14T09:03:55Z</time>
      </trkpt>
      <trkpt lat="43.9306" lon="7.39121">
        <ele>1351.2702636719</ele>
        <time>2013-04-14T09:03:56Z</time>
      </trkpt>
      <trkpt lat="43.93068" lon="7.39119">
        <ele>1349.8283691406</ele>
        <time>2013-04-14T09:03:58Z</time>
      </trkpt>
      <trkpt lat="43.93074" lon="7.39114">
        <ele>1347.9057617188</ele>
        <time>2013-04-14T09:04:00Z</time>
      </trkpt>
      <trkpt lat="43.93078" lon="7.3911">
        <ele>1345.5024414062</ele>
        <time>2013-04-14T09:04:02Z</time>
      </trkpt>
      <trkpt lat="43.93082" lon="7.39102">
        <ele>1344.060546875</ele>
        <time>2013-04-14T09:04:04Z</time>
      </trkpt>
      <trkpt lat="43.93089" lon="7.39095">
        <ele>1343.0991210938</ele>
        <time>2013-04-14T09:04:06Z</time>
      </trkpt>
      <trkpt lat="43.93096" lon="7.39092">
        <ele>1341.6572265625</ele>
        <time>2013-04-14T09:04:08Z</time>
      </trkpt>
      <trkpt lat="43.93123" lon="7.39087">
        <ele>1336.8503417969</ele>
        <time>2013-04-14T09:04:17Z</time>
      </trkpt>
      <trkpt lat="43.93134" lon="7.39087">
        <ele>1335.8891601562</ele>
        <time>2013-04-14T09:04:19Z</time>
      </trkpt>
      <trkpt lat="43.93154" lon="7.39089">
        <ele>1332.5246582031</ele>
        <time>2013-04-14T09:04:24Z</time>
      </trkpt>
      <trkpt lat="43.93155" lon="7.39089">
        <ele>1332.5246582031</ele>
        <time>2013-04-14T09:04:25Z</time>
      </trkpt>
      <trkpt lat="43.93174" lon="7.39088">
        <ele>1331.0827636719</ele>
        <time>2013-04-14T09:04:29Z</time>
      </trkpt>
      <trkpt lat="43.93236" lon="7.3909">
        <ele>1329.1599121094</ele>
        <time>2013-04-14T09:04:42Z</time>
      </trkpt>
      <trkpt lat="43.93251" lon="7.39093">
        <ele>1327.2375488281</ele>
        <time>2013-04-14T09:04:46Z</time>
      </trkpt>
      <trkpt lat="43.93261" lon="7.39095">
        <ele>1325.3146972656</ele>
        <time>2013-04-14T09:04:49Z</time>
      </trkpt>
      <trkpt lat="43.93273" lon="7.39101">
        <ele>1323.3920898438</ele>
        <time>2013-04-14T09:04:53Z</time>
      </trkpt>
      <trkpt lat="43.93283" lon="7.39102">
        <ele>1321.9499511719</ele>
        <time>2013-04-14T09:04:57Z</time>
      </trkpt>
      <trkpt lat="43.93286" lon="7.39102">
        <ele>1320.5080566406</ele>
        <time>2013-04-14T09:04:58Z</time>
      </trkpt>
      <trkpt lat="43.93304" lon="7.39097">
        <ele>1319.0661621094</ele>
        <time>2013-04-14T09:05:02Z</time>
      </trkpt>
      <trkpt lat="43.93317" lon="7.39094">
        <ele>1317.1435546875</ele>
        <time>2013-04-14T09:05:05Z</time>
      </trkpt>
      <trkpt lat="43.9334" lon="7.39085">
        <ele>1313.7788085938</ele>
        <time>2013-04-14T09:05:10Z</time>
      </trkpt>
      <trkpt lat="43.93346" lon="7.39083">
        <ele>1313.7788085938</ele>
        <time>2013-04-14T09:05:11Z</time>
      </trkpt>
      <trkpt lat="43.93349" lon="7.39081">
        <ele>1312.8176269531</ele>
        <time>2013-04-14T09:05:12Z</time>
      </trkpt>
      <trkpt lat="43.93351" lon="7.39075">
        <ele>1310.4143066406</ele>
        <time>2013-04-14T09:05:14Z</time>
      </trkpt>
      <trkpt lat="43.93357" lon="7.39069">
        <ele>1308.0112304688</ele>
        <time>2013-04-14T09:05:18Z</time>
      </trkpt>
      <trkpt lat="43.93366" lon="7.39065">
        <ele>1306.0881347656</ele>
        <time>2013-04-14T09:05:20Z</time>
      </trkpt>
      <trkpt lat="43.93368" lon="7.3906">
        <ele>1304.6462402344</ele>
        <time>2013-04-14T09:05:22Z</time>
      </trkpt>
      <trkpt lat="43.93372" lon="7.39055">
        <ele>1302.7236328125</ele>
        <time>2013-04-14T09:05:24Z</time>
      </trkpt>
      <trkpt lat="43.93374" lon="7.3905">
        <ele>1300.8010253906</ele>
        <time>2013-04-14T09:05:26Z</time>
      </trkpt>
      <trkpt lat="43.93375" lon="7.39043">
        <ele>1299.3591308594</ele>
        <time>2013-04-14T09:05:28Z</time>
      </trkpt>
      <trkpt lat="43.9338" lon="7.39001">
        <ele>1297.4365234375</ele>
        <time>2013-04-14T09:05:37Z</time>
      </trkpt>
      <trkpt lat="43.93378" lon="7.38979">
        <ele>1299.3591308594</ele>
        <time>2013-04-14T09:05:43Z</time>
      </trkpt>
      <trkpt lat="43.93379" lon="7.38976">
        <ele>1299.83984375</ele>
        <time>2013-04-14T09:05:44Z</time>
      </trkpt>
      <trkpt lat="43.93381" lon="7.38958">
        <ele>1300.3205566406</ele>
        <time>2013-04-14T09:05:47Z</time>
      </trkpt>
      <trkpt lat="43.93389" lon="7.3893">
        <ele>1297.4365234375</ele>
        <time>2013-04-14T09:05:56Z</time>
      </trkpt>
      <trkpt lat="43.93391" lon="7.38863">
        <ele>1296.4753417969</ele>
        <time>2013-04-14T09:06:08Z</time>
      </trkpt>
      <trkpt lat="43.93397" lon="7.38851">
        <ele>1294.5524902344</ele>
        <time>2013-04-14T09:06:12Z</time>
      </trkpt>
      <trkpt lat="43.93398" lon="7.38848">
        <ele>1293.1105957031</ele>
        <time>2013-04-14T09:06:13Z</time>
      </trkpt>
      <trkpt lat="43.934" lon="7.38836">
        <ele>1288.3039550781</ele>
        <time>2013-04-14T09:06:16Z</time>
      </trkpt>
      <trkpt lat="43.93405" lon="7.38826">
        <ele>1286.8618164062</ele>
        <time>2013-04-14T09:06:19Z</time>
      </trkpt>
      <trkpt lat="43.93409" lon="7.38817">
        <ele>1284.4587402344</ele>
        <time>2013-04-14T09:06:21Z</time>
      </trkpt>
      <trkpt lat="43.93414" lon="7.38811">
        <ele>1283.0166015625</ele>
        <time>2013-04-14T09:06:23Z</time>
      </trkpt>
      <trkpt lat="43.93416" lon="7.38803">
        <ele>1281.5747070312</ele>
        <time>2013-04-14T09:06:25Z</time>
      </trkpt>
      <trkpt lat="43.9342" lon="7.38784">
        <ele>1279.1713867188</ele>
        <time>2013-04-14T09:06:29Z</time>
      </trkpt>
      <trkpt lat="43.93431" lon="7.38771">
        <ele>1276.7683105469</ele>
        <time>2013-04-14T09:06:33Z</time>
      </trkpt>
      <trkpt lat="43.93434" lon="7.38769">
        <ele>1275.806640625</ele>
        <time>2013-04-14T09:06:34Z</time>
      </trkpt>
      <trkpt lat="43.9344" lon="7.38763">
        <ele>1274.3647460938</ele>
        <time>2013-04-14T09:06:36Z</time>
      </trkpt>
      <trkpt lat="43.93454" lon="7.38749">
        <ele>1271.0002441406</ele>
        <time>2013-04-14T09:06:41Z</time>
      </trkpt>
      <trkpt lat="43.93465" lon="7.38734">
        <ele>1268.1162109375</ele>
        <time>2013-04-14T09:06:46Z</time>
      </trkpt>
      <trkpt lat="43.93467" lon="7.38726">
        <ele>1265.7131347656</ele>
        <time>2013-04-14T09:06:48Z</time>
      </trkpt>
      <trkpt lat="43.93488" lon="7.38667">
        <ele>1264.2709960938</ele>
        <time>2013-04-14T09:07:03Z</time>
      </trkpt>
      <trkpt lat="43.93518" lon="7.38625">
        <ele>1261.3872070312</ele>
        <time>2013-04-14T09:07:17Z</time>
      </trkpt>
      <trkpt lat="43.93531" lon="7.38613">
        <ele>1260.42578125</ele>
        <time>2013-04-14T09:07:22Z</time>
      </trkpt>
      <trkpt lat="43.93543" lon="7.38605">
        <ele>1260.42578125</ele>
        <time>2013-04-14T09:07:24Z</time>
      </trkpt>
      <trkpt lat="43.9355" lon="7.38602">
        <ele>1259.9448242188</ele>
        <time>2013-04-14T09:07:26Z</time>
      </trkpt>
      <trkpt lat="43.93578" lon="7.38604">
        <ele>1256.099609375</ele>
        <time>2013-04-14T09:07:34Z</time>
      </trkpt>
      <trkpt lat="43.93581" lon="7.38605">
        <ele>1256.099609375</ele>
        <time>2013-04-14T09:07:35Z</time>
      </trkpt>
      <trkpt lat="43.93588" lon="7.38609">
        <ele>1253.6965332031</ele>
        <time>2013-04-14T09:07:37Z</time>
      </trkpt>
      <trkpt lat="43.93595" lon="7.38616">
        <ele>1252.2543945312</ele>
        <time>2013-04-14T09:07:39Z</time>
      </trkpt>
      <trkpt lat="43.93597" lon="7.38625">
        <ele>1250.8125</ele>
        <time>2013-04-14T09:07:41Z</time>
      </trkpt>
      <trkpt lat="43.93599" lon="7.38636">
        <ele>1249.3706054688</ele>
        <time>2013-04-14T09:07:43Z</time>
      </trkpt>
      <trkpt lat="43.93598" lon="7.38644">
        <ele>1247.4479980469</ele>
        <time>2013-04-14T09:07:45Z</time>
      </trkpt>
      <trkpt lat="43.93599" lon="7.38656">
        <ele>1245.525390625</ele>
        <time>2013-04-14T09:07:48Z</time>
      </trkpt>
      <trkpt lat="43.93611" lon="7.38672">
        <ele>1242.1606445312</ele>
        <time>2013-04-14T09:07:54Z</time>
      </trkpt>
      <trkpt lat="43.93618" lon="7.38676">
        <ele>1240.2380371094</ele>
        <time>2013-04-14T09:07:56Z</time>
      </trkpt>
      <trkpt lat="43.93625" lon="7.38682">
        <ele>1238.3154296875</ele>
        <time>2013-04-14T09:07:58Z</time>
      </trkpt>
      <trkpt lat="43.9363" lon="7.38688">
        <ele>1237.8347167969</ele>
        <time>2013-04-14T09:08:00Z</time>
      </trkpt>
      <trkpt lat="43.93638" lon="7.38707">
        <ele>1236.8732910156</ele>
        <time>2013-04-14T09:08:05Z</time>
      </trkpt>
      <trkpt lat="43.93651" lon="7.38733">
        <ele>1235.4313964844</ele>
        <time>2013-04-14T09:08:12Z</time>
      </trkpt>
      <trkpt lat="43.93656" lon="7.38744">
        <ele>1233.0280761719</ele>
        <time>2013-04-14T09:08:16Z</time>
      </trkpt>
      <trkpt lat="43.93662" lon="7.38749">
        <ele>1232.0668945312</ele>
        <time>2013-04-14T09:08:19Z</time>
      </trkpt>
      <trkpt lat="43.93666" lon="7.38749">
        <ele>1230.625</ele>
        <time>2013-04-14T09:08:21Z</time>
      </trkpt>
      <trkpt lat="43.93671" lon="7.38748">
        <ele>1229.1828613281</ele>
        <time>2013-04-14T09:08:23Z</time>
      </trkpt>
      <trkpt lat="43.93678" lon="7.38748">
        <ele>1227.7407226562</ele>
        <time>2013-04-14T09:08:25Z</time>
      </trkpt>
      <trkpt lat="43.93681" lon="7.38749">
        <ele>1226.298828125</ele>
        <time>2013-04-14T09:08:26Z</time>
      </trkpt>
      <trkpt lat="43.93691" lon="7.38746">
        <ele>1225.3374023438</ele>
        <time>2013-04-14T09:08:30Z</time>
      </trkpt>
      <trkpt lat="43.937" lon="7.38737">
        <ele>1223.4150390625</ele>
        <time>2013-04-14T09:08:33Z</time>
      </trkpt>
      <trkpt lat="43.93707" lon="7.38731">
        <ele>1221.4921875</ele>
        <time>2013-04-14T09:08:36Z</time>
      </trkpt>
      <trkpt lat="43.93709" lon="7.38729">
        <ele>1221.01171875</ele>
        <time>2013-04-14T09:08:37Z</time>
      </trkpt>
      <trkpt lat="43.93722" lon="7.3872">
        <ele>1218.6083984375</ele>
        <time>2013-04-14T09:08:42Z</time>
      </trkpt>
      <trkpt lat="43.93738" lon="7.38713">
        <ele>1215.724609375</ele>
        <time>2013-04-14T09:08:53Z</time>
      </trkpt>
      <trkpt lat="43.93748" lon="7.38715">
        <ele>1213.8017578125</ele>
        <time>2013-04-14T09:08:57Z</time>
      </trkpt>
      <trkpt lat="43.93754" lon="7.38721">
        <ele>1212.8405761719</ele>
        <time>2013-04-14T09:09:01Z</time>
      </trkpt>
      <trkpt lat="43.9376" lon="7.38723">
        <ele>1212.3598632812</ele>
        <time>2013-04-14T09:09:03Z</time>
      </trkpt>
      <trkpt lat="43.93777" lon="7.38739">
        <ele>1209.9562988281</ele>
        <time>2013-04-14T09:09:12Z</time>
      </trkpt>
      <trkpt lat="43.93782" lon="7.38743">
        <ele>1208.9951171875</ele>
        <time>2013-04-14T09:09:14Z</time>
      </trkpt>
      <trkpt lat="43.93783" lon="7.38743">
        <ele>1208.5144042969</ele>
        <time>2013-04-14T09:09:15Z</time>
      </trkpt>
      <trkpt lat="43.93787" lon="7.38751">
        <ele>1207.5532226562</ele>
        <time>2013-04-14T09:09:18Z</time>
      </trkpt>
      <trkpt lat="43.93787" lon="7.38759">
        <ele>1204.6691894531</ele>
        <time>2013-04-14T09:09:21Z</time>
      </trkpt>
      <trkpt lat="43.93804" lon="7.3877">
        <ele>1201.7854003906</ele>
        <time>2013-04-14T09:09:26Z</time>
      </trkpt>
      <trkpt lat="43.93817" lon="7.38779">
        <ele>1198.4206542969</ele>
        <time>2013-04-14T09:09:31Z</time>
      </trkpt>
      <trkpt lat="43.93819" lon="7.38788">
        <ele>1194.5751953125</ele>
        <time>2013-04-14T09:09:34Z</time>
      </trkpt>
      <trkpt lat="43.93817" lon="7.38789">
        <ele>1194.5751953125</ele>
        <time>2013-04-14T09:09:35Z</time>
      </trkpt>
      <trkpt lat="43.93815" lon="7.38788">
        <ele>1193.6140136719</ele>
        <time>2013-04-14T09:09:36Z</time>
      </trkpt>
      <trkpt lat="43.93815" lon="7.3879">
        <ele>1192.1721191406</ele>
        <time>2013-04-14T09:09:39Z</time>
      </trkpt>
      <trkpt lat="43.93815" lon="7.38791">
        <ele>1190.7299804688</ele>
        <time>2013-04-14T09:09:41Z</time>
      </trkpt>
      <trkpt lat="43.93826" lon="7.38806">
        <ele>1187.3654785156</ele>
        <time>2013-04-14T09:09:47Z</time>
      </trkpt>
      <trkpt lat="43.9384" lon="7.38811">
        <ele>1185.4428710938</ele>
        <time>2013-04-14T09:09:51Z</time>
      </trkpt>
      <trkpt lat="43.93842" lon="7.38818">
        <ele>1182.5590820312</ele>
        <time>2013-04-14T09:09:54Z</time>
      </trkpt>
      <trkpt lat="43.93846" lon="7.38822">
        <ele>1180.6364746094</ele>
        <time>2013-04-14T09:09:56Z</time>
      </trkpt>
      <trkpt lat="43.9385" lon="7.3883">
        <ele>1178.7136230469</ele>
        <time>2013-04-14T09:09:58Z</time>
      </trkpt>
      <trkpt lat="43.93852" lon="7.38834">
        <ele>1177.2717285156</ele>
        <time>2013-04-14T09:10:00Z</time>
      </trkpt>
      <trkpt lat="43.93853" lon="7.38834">
        <ele>1175.8295898438</ele>
        <time>2013-04-14T09:10:01Z</time>
      </trkpt>
      <trkpt lat="43.93856" lon="7.38835">
        <ele>1173.4265136719</ele>
        <time>2013-04-14T09:10:06Z</time>
      </trkpt>
      <trkpt lat="43.93857" lon="7.38835">
        <ele>1171.5036621094</ele>
        <time>2013-04-14T09:10:08Z</time>
      </trkpt>
      <trkpt lat="43.93864" lon="7.38831">
        <ele>1170.0617675781</ele>
        <time>2013-04-14T09:10:10Z</time>
      </trkpt>
      <trkpt lat="43.9387" lon="7.38837">
        <ele>1166.2165527344</ele>
        <time>2013-04-14T09:10:13Z</time>
      </trkpt>
      <trkpt lat="43.93874" lon="7.38842">
        <ele>1165.2553710938</ele>
        <time>2013-04-14T09:10:15Z</time>
      </trkpt>
      <trkpt lat="43.9388" lon="7.38846">
        <ele>1162.8518066406</ele>
        <time>2013-04-14T09:10:17Z</time>
      </trkpt>
      <trkpt lat="43.93884" lon="7.38848">
        <ele>1161.890625</ele>
        <time>2013-04-14T09:10:18Z</time>
      </trkpt>
      <trkpt lat="43.9389" lon="7.38851">
        <ele>1160.4484863281</ele>
        <time>2013-04-14T09:10:21Z</time>
      </trkpt>
      <trkpt lat="43.93891" lon="7.38852">
        <ele>1158.5258789062</ele>
        <time>2013-04-14T09:10:22Z</time>
      </trkpt>
      <trkpt lat="43.93907" lon="7.38852">
        <ele>1156.6032714844</ele>
        <time>2013-04-14T09:10:25Z</time>
      </trkpt>
      <trkpt lat="43.93919" lon="7.38855">
        <ele>1153.7194824219</ele>
        <time>2013-04-14T09:10:28Z</time>
      </trkpt>
      <trkpt lat="43.93922" lon="7.38863">
        <ele>1152.27734375</ele>
        <time>2013-04-14T09:10:31Z</time>
      </trkpt>
      <trkpt lat="43.93931" lon="7.38869">
        <ele>1148.4321289062</ele>
        <time>2013-04-14T09:10:33Z</time>
      </trkpt>
      <trkpt lat="43.93934" lon="7.38872">
        <ele>1148.4321289062</ele>
        <time>2013-04-14T09:10:34Z</time>
      </trkpt>
      <trkpt lat="43.93938" lon="7.38877">
        <ele>1146.5095214844</ele>
        <time>2013-04-14T09:10:36Z</time>
      </trkpt>
      <trkpt lat="43.93942" lon="7.38881">
        <ele>1145.0673828125</ele>
        <time>2013-04-14T09:10:38Z</time>
      </trkpt>
      <trkpt lat="43.93946" lon="7.38882">
        <ele>1143.1447753906</ele>
        <time>2013-04-14T09:10:40Z</time>
      </trkpt>
      <trkpt lat="43.9395" lon="7.38887">
        <ele>1141.7028808594</ele>
        <time>2013-04-14T09:10:42Z</time>
      </trkpt>
      <trkpt lat="43.93951" lon="7.38891">
        <ele>1139.2995605469</ele>
        <time>2013-04-14T09:10:44Z</time>
      </trkpt>
      <trkpt lat="43.93949" lon="7.38897">
        <ele>1136.8962402344</ele>
        <time>2013-04-14T09:10:46Z</time>
      </trkpt>
      <trkpt lat="43.93961" lon="7.38909">
        <ele>1133.5317382812</ele>
        <time>2013-04-14T09:10:51Z</time>
      </trkpt>
      <trkpt lat="43.93966" lon="7.38912">
        <ele>1131.6088867188</ele>
        <time>2013-04-14T09:10:53Z</time>
      </trkpt>
      <trkpt lat="43.93967" lon="7.38915">
        <ele>1129.6862792969</ele>
        <time>2013-04-14T09:10:55Z</time>
      </trkpt>
      <trkpt lat="43.93969" lon="7.38919">
        <ele>1128.2443847656</ele>
        <time>2013-04-14T09:10:57Z</time>
      </trkpt>
      <trkpt lat="43.93968" lon="7.38925">
        <ele>1125.8410644531</ele>
        <time>2013-04-14T09:10:59Z</time>
      </trkpt>
      <trkpt lat="43.93969" lon="7.38937">
        <ele>1124.3991699219</ele>
        <time>2013-04-14T09:11:01Z</time>
      </trkpt>
      <trkpt lat="43.93963" lon="7.38944">
        <ele>1121.9958496094</ele>
        <time>2013-04-14T09:11:04Z</time>
      </trkpt>
      <trkpt lat="43.93966" lon="7.38951">
        <ele>1121.0346679688</ele>
        <time>2013-04-14T09:11:07Z</time>
      </trkpt>
      <trkpt lat="43.9397" lon="7.38954">
        <ele>1120.0732421875</ele>
        <time>2013-04-14T09:11:09Z</time>
      </trkpt>
      <trkpt lat="43.93976" lon="7.38957">
        <ele>1116.7087402344</ele>
        <time>2013-04-14T09:11:14Z</time>
      </trkpt>
      <trkpt lat="43.93978" lon="7.38959">
        <ele>1115.2666015625</ele>
        <time>2013-04-14T09:11:16Z</time>
      </trkpt>
      <trkpt lat="43.93978" lon="7.38962">
        <ele>1113.8244628906</ele>
        <time>2013-04-14T09:11:18Z</time>
      </trkpt>
      <trkpt lat="43.9398" lon="7.38963">
        <ele>1112.3825683594</ele>
        <time>2013-04-14T09:11:20Z</time>
      </trkpt>
      <trkpt lat="43.93981" lon="7.38964">
        <ele>1110.4599609375</ele>
        <time>2013-04-14T09:11:21Z</time>
      </trkpt>
      <trkpt lat="43.93976" lon="7.38971">
        <ele>1109.0180664062</ele>
        <time>2013-04-14T09:11:24Z</time>
      </trkpt>
      <trkpt lat="43.93978" lon="7.38976">
        <ele>1107.0954589844</ele>
        <time>2013-04-14T09:11:26Z</time>
      </trkpt>
      <trkpt lat="43.93982" lon="7.3898">
        <ele>1106.1340332031</ele>
        <time>2013-04-14T09:11:27Z</time>
      </trkpt>
      <trkpt lat="43.93976" lon="7.38988">
        <ele>1105.1728515625</ele>
        <time>2013-04-14T09:11:30Z</time>
      </trkpt>
      <trkpt lat="43.93977" lon="7.38995">
        <ele>1103.7309570312</ele>
        <time>2013-04-14T09:11:33Z</time>
      </trkpt>
      <trkpt lat="43.93978" lon="7.38996">
        <ele>1102.76953125</ele>
        <time>2013-04-14T09:11:34Z</time>
      </trkpt>
      <trkpt lat="43.93986" lon="7.39001">
        <ele>1100.8469238281</ele>
        <time>2013-04-14T09:11:37Z</time>
      </trkpt>
      <trkpt lat="43.93992" lon="7.39002">
        <ele>1098.9240722656</ele>
        <time>2013-04-14T09:11:39Z</time>
      </trkpt>
      <trkpt lat="43.93997" lon="7.39001">
        <ele>1097.4821777344</ele>
        <time>2013-04-14T09:11:41Z</time>
      </trkpt>
      <trkpt lat="43.93999" lon="7.39">
        <ele>1095.5595703125</ele>
        <time>2013-04-14T09:11:42Z</time>
      </trkpt>
      <trkpt lat="43.94002" lon="7.38997">
        <ele>1094.5981445312</ele>
        <time>2013-04-14T09:11:45Z</time>
      </trkpt>
      <trkpt lat="43.94003" lon="7.39001">
        <ele>1092.1950683594</ele>
        <time>2013-04-14T09:11:47Z</time>
      </trkpt>
      <trkpt lat="43.93995" lon="7.39016">
        <ele>1089.7917480469</ele>
        <time>2013-04-14T09:11:52Z</time>
      </trkpt>
      <trkpt lat="43.93989" lon="7.39019">
        <ele>1087.869140625</ele>
        <time>2013-04-14T09:11:54Z</time>
      </trkpt>
      <trkpt lat="43.93988" lon="7.39023">
        <ele>1085.9465332031</ele>
        <time>2013-04-14T09:11:56Z</time>
      </trkpt>
      <trkpt lat="43.93989" lon="7.39024">
        <ele>1084.9853515625</ele>
        <time>2013-04-14T09:11:57Z</time>
      </trkpt>
      <trkpt lat="43.93993" lon="7.39028">
        <ele>1083.0622558594</ele>
        <time>2013-04-14T09:11:59Z</time>
      </trkpt>
      <trkpt lat="43.93999" lon="7.39027">
        <ele>1081.1398925781</ele>
        <time>2013-04-14T09:12:02Z</time>
      </trkpt>
      <trkpt lat="43.94002" lon="7.39031">
        <ele>1079.6977539062</ele>
        <time>2013-04-14T09:12:04Z</time>
      </trkpt>
      <trkpt lat="43.94005" lon="7.39036">
        <ele>1077.7751464844</ele>
        <time>2013-04-14T09:12:06Z</time>
      </trkpt>
      <trkpt lat="43.94007" lon="7.39039">
        <ele>1075.3718261719</ele>
        <time>2013-04-14T09:12:07Z</time>
      </trkpt>
      <trkpt lat="43.94003" lon="7.39048">
        <ele>1073.4494628906</ele>
        <time>2013-04-14T09:12:10Z</time>
      </trkpt>
      <trkpt lat="43.93998" lon="7.39056">
        <ele>1070.5654296875</ele>
        <time>2013-04-14T09:12:13Z</time>
      </trkpt>
      <trkpt lat="43.94001" lon="7.39058">
        <ele>1068.6428222656</ele>
        <time>2013-04-14T09:12:18Z</time>
      </trkpt>
      <trkpt lat="43.94007" lon="7.39061">
        <ele>1066.7199707031</ele>
        <time>2013-04-14T09:12:21Z</time>
      </trkpt>
      <trkpt lat="43.9401" lon="7.39061">
        <ele>1064.7973632812</ele>
        <time>2013-04-14T09:12:22Z</time>
      </trkpt>
      <trkpt lat="43.94012" lon="7.39068">
        <ele>1062.3940429688</ele>
        <time>2013-04-14T09:12:25Z</time>
      </trkpt>
      <trkpt lat="43.94015" lon="7.39071">
        <ele>1061.9135742188</ele>
        <time>2013-04-14T09:12:27Z</time>
      </trkpt>
      <trkpt lat="43.94021" lon="7.39078">
        <ele>1059.0295410156</ele>
        <time>2013-04-14T09:12:31Z</time>
      </trkpt>
      <trkpt lat="43.94027" lon="7.39084">
        <ele>1056.1455078125</ele>
        <time>2013-04-14T09:12:34Z</time>
      </trkpt>
      <trkpt lat="43.94028" lon="7.39089">
        <ele>1053.7424316406</ele>
        <time>2013-04-14T09:12:36Z</time>
      </trkpt>
      <trkpt lat="43.94025" lon="7.39095">
        <ele>1052.7810058594</ele>
        <time>2013-04-14T09:12:38Z</time>
      </trkpt>
      <trkpt lat="43.9403" lon="7.39099">
        <ele>1049.8969726562</ele>
        <time>2013-04-14T09:12:44Z</time>
      </trkpt>
      <trkpt lat="43.94035" lon="7.39098">
        <ele>1047.4936523438</ele>
        <time>2013-04-14T09:12:47Z</time>
      </trkpt>
      <trkpt lat="43.94038" lon="7.39104">
        <ele>1046.0517578125</ele>
        <time>2013-04-14T09:12:50Z</time>
      </trkpt>
      <trkpt lat="43.94038" lon="7.39107">
        <ele>1043.6484375</ele>
        <time>2013-04-14T09:12:53Z</time>
      </trkpt>
      <trkpt lat="43.9404" lon="7.39109">
        <ele>1042.2065429688</ele>
        <time>2013-04-14T09:12:55Z</time>
      </trkpt>
      <trkpt lat="43.94055" lon="7.39104">
        <ele>1041.7258300781</ele>
        <time>2013-04-14T09:13:02Z</time>
      </trkpt>
      <trkpt lat="43.94056" lon="7.39092">
        <ele>1041.7258300781</ele>
        <time>2013-04-14T09:13:07Z</time>
      </trkpt>
      <trkpt lat="43.94059" lon="7.39079">
        <ele>1043.1677246094</ele>
        <time>2013-04-14T09:13:13Z</time>
      </trkpt>
      <trkpt lat="43.9406" lon="7.39073">
        <ele>1044.1291503906</ele>
        <time>2013-04-14T09:13:15Z</time>
      </trkpt>
      <trkpt lat="43.94061" lon="7.39069">
        <ele>1043.6484375</ele>
        <time>2013-04-14T09:13:17Z</time>
      </trkpt>
      <trkpt lat="43.94066" lon="7.3905">
        <ele>1047.0129394531</ele>
        <time>2013-04-14T09:13:29Z</time>
      </trkpt>
      <trkpt lat="43.94067" lon="7.39042">
        <ele>1047.9743652344</ele>
        <time>2013-04-14T09:13:33Z</time>
      </trkpt>
      <trkpt lat="43.94074" lon="7.39023">
        <ele>1048.935546875</ele>
        <time>2013-04-14T09:13:39Z</time>
      </trkpt>
      <trkpt lat="43.94091" lon="7.39012">
        <ele>1050.3776855469</ele>
        <time>2013-04-14T09:13:47Z</time>
      </trkpt>
      <trkpt lat="43.94091" lon="7.3901">
        <ele>1051.3388671875</ele>
        <time>2013-04-14T09:13:50Z</time>
      </trkpt>
      <trkpt lat="43.94098" lon="7.39004">
        <ele>1050.3776855469</ele>
        <time>2013-04-14T09:13:53Z</time>
      </trkpt>
      <trkpt lat="43.94114" lon="7.38975">
        <ele>1052.3002929688</ele>
        <time>2013-04-14T09:14:07Z</time>
      </trkpt>
      <trkpt lat="43.94115" lon="7.38972">
        <ele>1052.7810058594</ele>
        <time>2013-04-14T09:14:09Z</time>
      </trkpt>
      <trkpt lat="43.94096" lon="7.38929">
        <ele>1054.7036132812</ele>
        <time>2013-04-14T09:14:23Z</time>
      </trkpt>
      <trkpt lat="43.94079" lon="7.38886">
        <ele>1058.068359375</ele>
        <time>2013-04-14T09:14:43Z</time>
      </trkpt>
      <trkpt lat="43.94077" lon="7.38871">
        <ele>1059.9907226562</ele>
        <time>2013-04-14T09:14:53Z</time>
      </trkpt>
      <trkpt lat="43.94084" lon="7.38869">
        <ele>1059.5102539062</ele>
        <time>2013-04-14T09:14:57Z</time>
      </trkpt>
      <trkpt lat="43.94092" lon="7.38874">
        <ele>1059.5102539062</ele>
        <time>2013-04-14T09:15:02Z</time>
      </trkpt>
      <trkpt lat="43.94097" lon="7.38882">
        <ele>1059.9907226562</ele>
        <time>2013-04-14T09:15:06Z</time>
      </trkpt>
      <trkpt lat="43.94126" lon="7.38857">
        <ele>1061.9135742188</ele>
        <time>2013-04-14T09:15:22Z</time>
      </trkpt>
      <trkpt lat="43.94131" lon="7.38842">
        <ele>1062.3940429688</ele>
        <time>2013-04-14T09:15:29Z</time>
      </trkpt>
      <trkpt lat="43.94133" lon="7.38834">
        <ele>1062.3940429688</ele>
        <time>2013-04-14T09:15:33Z</time>
      </trkpt>
      <trkpt lat="43.94139" lon="7.3881">
        <ele>1065.7587890625</ele>
        <time>2013-04-14T09:15:48Z</time>
      </trkpt>
      <trkpt lat="43.9414" lon="7.38808">
        <ele>1066.7199707031</ele>
        <time>2013-04-14T09:15:50Z</time>
      </trkpt>
      <trkpt lat="43.94146" lon="7.38799">
        <ele>1067.6811523438</ele>
        <time>2013-04-14T09:15:55Z</time>
      </trkpt>
      <trkpt lat="43.94158" lon="7.38796">
        <ele>1068.162109375</ele>
        <time>2013-04-14T09:15:58Z</time>
      </trkpt>
      <trkpt lat="43.9416" lon="7.3879">
        <ele>1068.6428222656</ele>
        <time>2013-04-14T09:16:00Z</time>
      </trkpt>
      <trkpt lat="43.94163" lon="7.38783">
        <ele>1069.6042480469</ele>
        <time>2013-04-14T09:16:03Z</time>
      </trkpt>
      <trkpt lat="43.94164" lon="7.38768">
        <ele>1071.5266113281</ele>
        <time>2013-04-14T09:16:14Z</time>
      </trkpt>
      <trkpt lat="43.94165" lon="7.38755">
        <ele>1074.8913574219</ele>
        <time>2013-04-14T09:16:26Z</time>
      </trkpt>
      <trkpt lat="43.94162" lon="7.3874">
        <ele>1077.7751464844</ele>
        <time>2013-04-14T09:16:37Z</time>
      </trkpt>
      <trkpt lat="43.94165" lon="7.38727">
        <ele>1081.6203613281</ele>
        <time>2013-04-14T09:16:54Z</time>
      </trkpt>
      <trkpt lat="43.9419" lon="7.38715">
        <ele>1085.4658203125</ele>
        <time>2013-04-14T09:17:09Z</time>
      </trkpt>
      <trkpt lat="43.94192" lon="7.38714">
        <ele>1085.4658203125</ele>
        <time>2013-04-14T09:17:10Z</time>
      </trkpt>
      <trkpt lat="43.94209" lon="7.38711">
        <ele>1086.4272460938</ele>
        <time>2013-04-14T09:17:15Z</time>
      </trkpt>
      <trkpt lat="43.94229" lon="7.38675">
        <ele>1089.7917480469</ele>
        <time>2013-04-14T09:17:28Z</time>
      </trkpt>
      <trkpt lat="43.94232" lon="7.38644">
        <ele>1092.1950683594</ele>
        <time>2013-04-14T09:17:39Z</time>
      </trkpt>
      <trkpt lat="43.94229" lon="7.38617">
        <ele>1095.5595703125</ele>
        <time>2013-04-14T09:17:53Z</time>
      </trkpt>
      <trkpt lat="43.94227" lon="7.38591">
        <ele>1098.443359375</ele>
        <time>2013-04-14T09:18:05Z</time>
      </trkpt>
      <trkpt lat="43.94231" lon="7.38586">
        <ele>1100.3664550781</ele>
        <time>2013-04-14T09:18:13Z</time>
      </trkpt>
      <trkpt lat="43.94218" lon="7.38404">
        <ele>1102.2888183594</ele>
        <time>2013-04-14T09:18:23Z</time>
      </trkpt>
      <trkpt lat="43.94226" lon="7.38378">
        <ele>1105.6535644531</ele>
        <time>2013-04-14T09:18:37Z</time>
      </trkpt>
      <trkpt lat="43.94234" lon="7.38362">
        <ele>1109.0180664062</ele>
        <time>2013-04-14T09:18:48Z</time>
      </trkpt>
      <trkpt lat="43.9424" lon="7.38343">
        <ele>1111.9020996094</ele>
        <time>2013-04-14T09:19:02Z</time>
      </trkpt>
      <trkpt lat="43.94242" lon="7.38333">
        <ele>1114.3051757812</ele>
        <time>2013-04-14T09:19:08Z</time>
      </trkpt>
      <trkpt lat="43.94251" lon="7.3831">
        <ele>1117.669921875</ele>
        <time>2013-04-14T09:19:21Z</time>
      </trkpt>
      <trkpt lat="43.9425" lon="7.38298">
        <ele>1121.0346679688</ele>
        <time>2013-04-14T09:19:32Z</time>
      </trkpt>
      <trkpt lat="43.94232" lon="7.38279">
        <ele>1124.3991699219</ele>
        <time>2013-04-14T09:19:49Z</time>
      </trkpt>
      <trkpt lat="43.94222" lon="7.38265">
        <ele>1127.763671875</ele>
        <time>2013-04-14T09:20:01Z</time>
      </trkpt>
      <trkpt lat="43.94209" lon="7.38247">
        <ele>1130.6477050781</ele>
        <time>2013-04-14T09:20:14Z</time>
      </trkpt>
      <trkpt lat="43.942" lon="7.38229">
        <ele>1134.0124511719</ele>
        <time>2013-04-14T09:20:26Z</time>
      </trkpt>
      <trkpt lat="43.94187" lon="7.38222">
        <ele>1136.4157714844</ele>
        <time>2013-04-14T09:20:36Z</time>
      </trkpt>
      <trkpt lat="43.9418" lon="7.38228">
        <ele>1140.7414550781</ele>
        <time>2013-04-14T09:20:48Z</time>
      </trkpt>
      <trkpt lat="43.94179" lon="7.38229">
        <ele>1140.7414550781</ele>
        <time>2013-04-14T09:20:49Z</time>
      </trkpt>
      <trkpt lat="43.9417" lon="7.38221">
        <ele>1143.6254882812</ele>
        <time>2013-04-14T09:21:02Z</time>
      </trkpt>
      <trkpt lat="43.94164" lon="7.38217">
        <ele>1145.0673828125</ele>
        <time>2013-04-14T09:21:08Z</time>
      </trkpt>
      <trkpt lat="43.94146" lon="7.382">
        <ele>1148.9128417969</ele>
        <time>2013-04-14T09:21:23Z</time>
      </trkpt>
      <trkpt lat="43.94148" lon="7.38215">
        <ele>1152.27734375</ele>
        <time>2013-04-14T09:21:36Z</time>
      </trkpt>
      <trkpt lat="43.94144" lon="7.38214">
        <ele>1155.1613769531</ele>
        <time>2013-04-14T09:21:47Z</time>
      </trkpt>
      <trkpt lat="43.94132" lon="7.38199">
        <ele>1159.0065917969</ele>
        <time>2013-04-14T09:22:06Z</time>
      </trkpt>
      <trkpt lat="43.94132" lon="7.38204">
        <ele>1159.0065917969</ele>
        <time>2013-04-14T09:22:09Z</time>
      </trkpt>
      <trkpt lat="43.94134" lon="7.38213">
        <ele>1159.0065917969</ele>
        <time>2013-04-14T09:22:13Z</time>
      </trkpt>
      <trkpt lat="43.94134" lon="7.38237">
        <ele>1160.4484863281</ele>
        <time>2013-04-14T09:22:21Z</time>
      </trkpt>
      <trkpt lat="43.94142" lon="7.38262">
        <ele>1164.2939453125</ele>
        <time>2013-04-14T09:22:35Z</time>
      </trkpt>
      <trkpt lat="43.94153" lon="7.3829">
        <ele>1166.697265625</ele>
        <time>2013-04-14T09:22:51Z</time>
      </trkpt>
      <trkpt lat="43.94153" lon="7.38292">
        <ele>1167.6584472656</ele>
        <time>2013-04-14T09:22:52Z</time>
      </trkpt>
      <trkpt lat="43.94151" lon="7.38298">
        <ele>1168.1391601562</ele>
        <time>2013-04-14T09:22:55Z</time>
      </trkpt>
      <trkpt lat="43.94153" lon="7.38307">
        <ele>1171.5036621094</ele>
        <time>2013-04-14T09:23:09Z</time>
      </trkpt>
      <trkpt lat="43.94151" lon="7.38303">
        <ele>1171.5036621094</ele>
        <time>2013-04-14T09:23:11Z</time>
      </trkpt>
      <trkpt lat="43.9414" lon="7.38291">
        <ele>1174.8684082031</ele>
        <time>2013-04-14T09:23:25Z</time>
      </trkpt>
      <trkpt lat="43.94124" lon="7.38279">
        <ele>1178.2329101562</ele>
        <time>2013-04-14T09:23:42Z</time>
      </trkpt>
      <trkpt lat="43.94117" lon="7.38278">
        <ele>1180.1557617188</ele>
        <time>2013-04-14T09:23:51Z</time>
      </trkpt>
      <trkpt lat="43.94116" lon="7.38301">
        <ele>1181.1171875</ele>
        <time>2013-04-14T09:24:03Z</time>
      </trkpt>
      <trkpt lat="43.9411" lon="7.38318">
        <ele>1184.9624023438</ele>
        <time>2013-04-14T09:24:14Z</time>
      </trkpt>
      <trkpt lat="43.94116" lon="7.38317">
        <ele>1187.8461914062</ele>
        <time>2013-04-14T09:24:24Z</time>
      </trkpt>
      <trkpt lat="43.94109" lon="7.38325">
        <ele>1189.2880859375</ele>
        <time>2013-04-14T09:24:29Z</time>
      </trkpt>
      <trkpt lat="43.94105" lon="7.38334">
        <ele>1190.2495117188</ele>
        <time>2013-04-14T09:24:34Z</time>
      </trkpt>
      <trkpt lat="43.94106" lon="7.38344">
        <ele>1194.5751953125</ele>
        <time>2013-04-14T09:24:46Z</time>
      </trkpt>
      <trkpt lat="43.94111" lon="7.38349">
        <ele>1197.4594726562</ele>
        <time>2013-04-14T09:24:58Z</time>
      </trkpt>
      <trkpt lat="43.94106" lon="7.38357">
        <ele>1201.3046875</ele>
        <time>2013-04-14T09:25:11Z</time>
      </trkpt>
      <trkpt lat="43.94099" lon="7.3837">
        <ele>1204.1887207031</ele>
        <time>2013-04-14T09:25:23Z</time>
      </trkpt>
      <trkpt lat="43.94095" lon="7.38363">
        <ele>1207.5532226562</ele>
        <time>2013-04-14T09:25:34Z</time>
      </trkpt>
      <trkpt lat="43.94087" lon="7.38348">
        <ele>1210.9177246094</ele>
        <time>2013-04-14T09:25:47Z</time>
      </trkpt>
      <trkpt lat="43.94077" lon="7.38332">
        <ele>1214.2824707031</ele>
        <time>2013-04-14T09:26:01Z</time>
      </trkpt>
      <trkpt lat="43.94067" lon="7.38314">
        <ele>1217.6469726562</ele>
        <time>2013-04-14T09:26:16Z</time>
      </trkpt>
      <trkpt lat="43.94056" lon="7.38305">
        <ele>1220.5310058594</ele>
        <time>2013-04-14T09:26:27Z</time>
      </trkpt>
      <trkpt lat="43.94045" lon="7.38288">
        <ele>1223.8955078125</ele>
        <time>2013-04-14T09:26:41Z</time>
      </trkpt>
      <trkpt lat="43.94034" lon="7.38269">
        <ele>1227.2602539062</ele>
        <time>2013-04-14T09:26:58Z</time>
      </trkpt>
      <trkpt lat="43.94028" lon="7.38254">
        <ele>1230.625</ele>
        <time>2013-04-14T09:27:09Z</time>
      </trkpt>
      <trkpt lat="43.94021" lon="7.38229">
        <ele>1234.9509277344</ele>
        <time>2013-04-14T09:27:24Z</time>
      </trkpt>
      <trkpt lat="43.9402" lon="7.38229">
        <ele>1234.9509277344</ele>
        <time>2013-04-14T09:27:25Z</time>
      </trkpt>
      <trkpt lat="43.94021" lon="7.38236">
        <ele>1235.912109375</ele>
        <time>2013-04-14T09:27:30Z</time>
      </trkpt>
      <trkpt lat="43.94019" lon="7.38255">
        <ele>1236.3928222656</ele>
        <time>2013-04-14T09:27:38Z</time>
      </trkpt>
      <trkpt lat="43.94017" lon="7.38268">
        <ele>1237.8347167969</ele>
        <time>2013-04-14T09:27:44Z</time>
      </trkpt>
      <trkpt lat="43.9402" lon="7.38271">
        <ele>1241.19921875</ele>
        <time>2013-04-14T09:28:01Z</time>
      </trkpt>
      <trkpt lat="43.94023" lon="7.38256">
        <ele>1244.0834960938</ele>
        <time>2013-04-14T09:28:16Z</time>
      </trkpt>
      <trkpt lat="43.94019" lon="7.38247">
        <ele>1245.525390625</ele>
        <time>2013-04-14T09:28:24Z</time>
      </trkpt>
      <trkpt lat="43.94011" lon="7.38226">
        <ele>1248.8898925781</ele>
        <time>2013-04-14T09:28:41Z</time>
      </trkpt>
      <trkpt lat="43.93996" lon="7.38219">
        <ele>1252.2543945312</ele>
        <time>2013-04-14T09:28:54Z</time>
      </trkpt>
      <trkpt lat="43.93985" lon="7.38205">
        <ele>1256.099609375</ele>
        <time>2013-04-14T09:29:05Z</time>
      </trkpt>
      <trkpt lat="43.93972" lon="7.38183">
        <ele>1259.9448242188</ele>
        <time>2013-04-14T09:29:21Z</time>
      </trkpt>
      <trkpt lat="43.93964" lon="7.38181">
        <ele>1262.8291015625</ele>
        <time>2013-04-14T09:29:34Z</time>
      </trkpt>
      <trkpt lat="43.9396" lon="7.3819">
        <ele>1265.7131347656</ele>
        <time>2013-04-14T09:29:43Z</time>
      </trkpt>
      <trkpt lat="43.93958" lon="7.38197">
        <ele>1266.6743164062</ele>
        <time>2013-04-14T09:29:48Z</time>
      </trkpt>
      <trkpt lat="43.93953" lon="7.38212">
        <ele>1269.0776367188</ele>
        <time>2013-04-14T09:29:59Z</time>
      </trkpt>
      <trkpt lat="43.93958" lon="7.38215">
        <ele>1269.5583496094</ele>
        <time>2013-04-14T09:30:03Z</time>
      </trkpt>
      <trkpt lat="43.93959" lon="7.38219">
        <ele>1270.0388183594</ele>
        <time>2013-04-14T09:30:05Z</time>
      </trkpt>
      <trkpt lat="43.9396" lon="7.38229">
        <ele>1271.0002441406</ele>
        <time>2013-04-14T09:30:11Z</time>
      </trkpt>
      <trkpt lat="43.93958" lon="7.38234">
        <ele>1271.9614257812</ele>
        <time>2013-04-14T09:30:14Z</time>
      </trkpt>
      <trkpt lat="43.93956" lon="7.38238">
        <ele>1272.9228515625</ele>
        <time>2013-04-14T09:30:18Z</time>
      </trkpt>
      <trkpt lat="43.93952" lon="7.38251">
        <ele>1273.8840332031</ele>
        <time>2013-04-14T09:30:24Z</time>
      </trkpt>
      <trkpt lat="43.93947" lon="7.38267">
        <ele>1277.7294921875</ele>
        <time>2013-04-14T09:30:33Z</time>
      </trkpt>
      <trkpt lat="43.93945" lon="7.38272">
        <ele>1280.6135253906</ele>
        <time>2013-04-14T09:30:42Z</time>
      </trkpt>
      <trkpt lat="43.93946" lon="7.38273">
        <ele>1280.6135253906</ele>
        <time>2013-04-14T09:30:43Z</time>
      </trkpt>
      <trkpt lat="43.93937" lon="7.38292">
        <ele>1283.9780273438</ele>
        <time>2013-04-14T09:30:56Z</time>
      </trkpt>
      <trkpt lat="43.93935" lon="7.38288">
        <ele>1285.9006347656</ele>
        <time>2013-04-14T09:31:04Z</time>
      </trkpt>
      <trkpt lat="43.93933" lon="7.38272">
        <ele>1287.8232421875</ele>
        <time>2013-04-14T09:31:17Z</time>
      </trkpt>
      <trkpt lat="43.93925" lon="7.38284">
        <ele>1289.2651367188</ele>
        <time>2013-04-14T09:31:26Z</time>
      </trkpt>
      <trkpt lat="43.93924" lon="7.38287">
        <ele>1289.7458496094</ele>
        <time>2013-04-14T09:31:28Z</time>
      </trkpt>
      <trkpt lat="43.93915" lon="7.38286">
        <ele>1292.6301269531</ele>
        <time>2013-04-14T09:31:40Z</time>
      </trkpt>
      <trkpt lat="43.93905" lon="7.38284">
        <ele>1296.4753417969</ele>
        <time>2013-04-14T09:31:51Z</time>
      </trkpt>
      <trkpt lat="43.93896" lon="7.38268">
        <ele>1299.3591308594</ele>
        <time>2013-04-14T09:32:02Z</time>
      </trkpt>
      <trkpt lat="43.93893" lon="7.38273">
        <ele>1301.7624511719</ele>
        <time>2013-04-14T09:32:13Z</time>
      </trkpt>
      <trkpt lat="43.93887" lon="7.38274">
        <ele>1305.6076660156</ele>
        <time>2013-04-14T09:32:27Z</time>
      </trkpt>
      <trkpt lat="43.93887" lon="7.38272">
        <ele>1305.6076660156</ele>
        <time>2013-04-14T09:32:28Z</time>
      </trkpt>
      <trkpt lat="43.9389" lon="7.38264">
        <ele>1306.0881347656</ele>
        <time>2013-04-14T09:32:32Z</time>
      </trkpt>
      <trkpt lat="43.93891" lon="7.38256">
        <ele>1306.5688476562</ele>
        <time>2013-04-14T09:32:35Z</time>
      </trkpt>
      <trkpt lat="43.93889" lon="7.38241">
        <ele>1308.4916992188</ele>
        <time>2013-04-14T09:32:45Z</time>
      </trkpt>
      <trkpt lat="43.93886" lon="7.38243">
        <ele>1309.453125</ele>
        <time>2013-04-14T09:32:49Z</time>
      </trkpt>
      <trkpt lat="43.93885" lon="7.3825">
        <ele>1310.4143066406</ele>
        <time>2013-04-14T09:32:54Z</time>
      </trkpt>
      <trkpt lat="43.93883" lon="7.38259">
        <ele>1310.8950195312</ele>
        <time>2013-04-14T09:32:58Z</time>
      </trkpt>
      <trkpt lat="43.93863" lon="7.38277">
        <ele>1313.7788085938</ele>
        <time>2013-04-14T09:33:13Z</time>
      </trkpt>
      <trkpt lat="43.93859" lon="7.38276">
        <ele>1315.2209472656</ele>
        <time>2013-04-14T09:33:19Z</time>
      </trkpt>
      <trkpt lat="43.93855" lon="7.38273">
        <ele>1317.6240234375</ele>
        <time>2013-04-14T09:33:25Z</time>
      </trkpt>
      <trkpt lat="43.93853" lon="7.38266">
        <ele>1320.5080566406</ele>
        <time>2013-04-14T09:33:34Z</time>
      </trkpt>
      <trkpt lat="43.93854" lon="7.38256">
        <ele>1322.4306640625</ele>
        <time>2013-04-14T09:33:45Z</time>
      </trkpt>
      <trkpt lat="43.93857" lon="7.38243">
        <ele>1323.8725585938</ele>
        <time>2013-04-14T09:33:52Z</time>
      </trkpt>
      <trkpt lat="43.93857" lon="7.38237">
        <ele>1324.353515625</ele>
        <time>2013-04-14T09:33:55Z</time>
      </trkpt>
      <trkpt lat="43.93858" lon="7.38231">
        <ele>1325.3146972656</ele>
        <time>2013-04-14T09:33:59Z</time>
      </trkpt>
      <trkpt lat="43.93855" lon="7.38222">
        <ele>1326.7568359375</ele>
        <time>2013-04-14T09:34:04Z</time>
      </trkpt>
      <trkpt lat="43.93852" lon="7.38214">
        <ele>1327.7180175781</ele>
        <time>2013-04-14T09:34:07Z</time>
      </trkpt>
      <trkpt lat="43.93842" lon="7.3819">
        <ele>1327.7180175781</ele>
        <time>2013-04-14T09:34:13Z</time>
      </trkpt>
      <trkpt lat="43.93843" lon="7.38146">
        <ele>1328.6794433594</ele>
        <time>2013-04-14T09:34:28Z</time>
      </trkpt>
      <trkpt lat="43.93845" lon="7.38123">
        <ele>1330.1213378906</ele>
        <time>2013-04-14T09:34:38Z</time>
      </trkpt>
      <trkpt lat="43.93841" lon="7.38098">
        <ele>1331.0827636719</ele>
        <time>2013-04-14T09:34:47Z</time>
      </trkpt>
      <trkpt lat="43.93841" lon="7.38091">
        <ele>1331.5632324219</ele>
        <time>2013-04-14T09:34:50Z</time>
      </trkpt>
      <trkpt lat="43.93842" lon="7.38078">
        <ele>1332.5246582031</ele>
        <time>2013-04-14T09:34:53Z</time>
      </trkpt>
      <trkpt lat="43.93843" lon="7.38063">
        <ele>1333.4858398438</ele>
        <time>2013-04-14T09:34:59Z</time>
      </trkpt>
      <trkpt lat="43.93847" lon="7.38055">
        <ele>1334.447265625</ele>
        <time>2013-04-14T09:35:03Z</time>
      </trkpt>
      <trkpt lat="43.93855" lon="7.38047">
        <ele>1335.4084472656</ele>
        <time>2013-04-14T09:35:08Z</time>
      </trkpt>
      <trkpt lat="43.93867" lon="7.38032">
        <ele>1336.3698730469</ele>
        <time>2013-04-14T09:35:16Z</time>
      </trkpt>
      <trkpt lat="43.93871" lon="7.38027">
        <ele>1337.3310546875</ele>
        <time>2013-04-14T09:35:19Z</time>
      </trkpt>
      <trkpt lat="43.93876" lon="7.38022">
        <ele>1337.3310546875</ele>
        <time>2013-04-14T09:35:22Z</time>
      </trkpt>
      <trkpt lat="43.93893" lon="7.37999">
        <ele>1339.2536621094</ele>
        <time>2013-04-14T09:35:32Z</time>
      </trkpt>
      <trkpt lat="43.93921" lon="7.37985">
        <ele>1342.1379394531</ele>
        <time>2013-04-14T09:35:48Z</time>
      </trkpt>
      <trkpt lat="43.9393" lon="7.37981">
        <ele>1343.0991210938</ele>
        <time>2013-04-14T09:35:52Z</time>
      </trkpt>
      <trkpt lat="43.93951" lon="7.37973">
        <ele>1344.060546875</ele>
        <time>2013-04-14T09:35:58Z</time>
      </trkpt>
      <trkpt lat="43.93984" lon="7.37959">
        <ele>1347.4250488281</ele>
        <time>2013-04-14T09:36:12Z</time>
      </trkpt>
      <trkpt lat="43.93996" lon="7.37939">
        <ele>1349.34765625</ele>
        <time>2013-04-14T09:36:23Z</time>
      </trkpt>
      <trkpt lat="43.9399" lon="7.37914">
        <ele>1349.34765625</ele>
        <time>2013-04-14T09:36:30Z</time>
      </trkpt>
      <trkpt lat="43.93975" lon="7.3786">
        <ele>1349.34765625</ele>
        <time>2013-04-14T09:36:41Z</time>
      </trkpt>
      <trkpt lat="43.93973" lon="7.37851">
        <ele>1348.8669433594</ele>
        <time>2013-04-14T09:36:44Z</time>
      </trkpt>
      <trkpt lat="43.93943" lon="7.37785">
        <ele>1350.3090820312</ele>
        <time>2013-04-14T09:37:03Z</time>
      </trkpt>
      <trkpt lat="43.93917" lon="7.37751">
        <ele>1350.7895507812</ele>
        <time>2013-04-14T09:37:15Z</time>
      </trkpt>
      <trkpt lat="43.93909" lon="7.37754">
        <ele>1354.154296875</ele>
        <time>2013-04-14T09:37:26Z</time>
      </trkpt>
      <trkpt lat="43.93908" lon="7.37757">
        <ele>1356.0769042969</ele>
        <time>2013-04-14T09:37:32Z</time>
      </trkpt>
      <trkpt lat="43.93901" lon="7.3776">
        <ele>1359.4416503906</ele>
        <time>2013-04-14T09:37:41Z</time>
      </trkpt>
      <trkpt lat="43.93903" lon="7.3776">
        <ele>1359.4416503906</ele>
        <time>2013-04-14T09:37:42Z</time>
      </trkpt>
      <trkpt lat="43.93903" lon="7.37764">
        <ele>1362.8061523438</ele>
        <time>2013-04-14T09:37:51Z</time>
      </trkpt>
      <trkpt lat="43.93905" lon="7.3777">
        <ele>1365.6901855469</ele>
        <time>2013-04-14T09:38:04Z</time>
      </trkpt>
      <trkpt lat="43.93913" lon="7.3778">
        <ele>1369.5354003906</ele>
        <time>2013-04-14T09:38:16Z</time>
      </trkpt>
      <trkpt lat="43.9391" lon="7.3779">
        <ele>1372.4194335938</ele>
        <time>2013-04-14T09:38:25Z</time>
      </trkpt>
      <trkpt lat="43.93909" lon="7.37797">
        <ele>1373.861328125</ele>
        <time>2013-04-14T09:38:30Z</time>
      </trkpt>
      <trkpt lat="43.93905" lon="7.37814">
        <ele>1376.2646484375</ele>
        <time>2013-04-14T09:38:40Z</time>
      </trkpt>
      <trkpt lat="43.93898" lon="7.37836">
        <ele>1379.6291503906</ele>
        <time>2013-04-14T09:38:54Z</time>
      </trkpt>
      <trkpt lat="43.93897" lon="7.37844">
        <ele>1382.5131835938</ele>
        <time>2013-04-14T09:39:01Z</time>
      </trkpt>
      <trkpt lat="43.93899" lon="7.37845">
        <ele>1382.5131835938</ele>
        <time>2013-04-14T09:39:02Z</time>
      </trkpt>
      <trkpt lat="43.93902" lon="7.37854">
        <ele>1386.3583984375</ele>
        <time>2013-04-14T09:39:15Z</time>
      </trkpt>
      <trkpt lat="43.93898" lon="7.37854">
        <ele>1387.8002929688</ele>
        <time>2013-04-14T09:39:20Z</time>
      </trkpt>
      <trkpt lat="43.93895" lon="7.37855">
        <ele>1389.2424316406</ele>
        <time>2013-04-14T09:39:24Z</time>
      </trkpt>
      <trkpt lat="43.93882" lon="7.37855">
        <ele>1392.1264648438</ele>
        <time>2013-04-14T09:39:38Z</time>
      </trkpt>
      <trkpt lat="43.93872" lon="7.37852">
        <ele>1395.0102539062</ele>
        <time>2013-04-14T09:39:49Z</time>
      </trkpt>
      <trkpt lat="43.93863" lon="7.37855">
        <ele>1396.9328613281</ele>
        <time>2013-04-14T09:39:58Z</time>
      </trkpt>
      <trkpt lat="43.93836" lon="7.3787">
        <ele>1398.3747558594</ele>
        <time>2013-04-14T09:40:12Z</time>
      </trkpt>
      <trkpt lat="43.93821" lon="7.37886">
        <ele>1395.0102539062</ele>
        <time>2013-04-14T09:40:19Z</time>
      </trkpt>
      <trkpt lat="43.93816" lon="7.37884">
        <ele>1393.0876464844</ele>
        <time>2013-04-14T09:40:22Z</time>
      </trkpt>
      <trkpt lat="43.93813" lon="7.37886">
        <ele>1391.6457519531</ele>
        <time>2013-04-14T09:40:24Z</time>
      </trkpt>
      <trkpt lat="43.9378" lon="7.37923">
        <ele>1393.0876464844</ele>
        <time>2013-04-14T09:40:36Z</time>
      </trkpt>
      <trkpt lat="43.93757" lon="7.37952">
        <ele>1392.1264648438</ele>
        <time>2013-04-14T09:40:44Z</time>
      </trkpt>
      <trkpt lat="43.93749" lon="7.37969">
        <ele>1395.4909667969</ele>
        <time>2013-04-14T09:40:52Z</time>
      </trkpt>
      <trkpt lat="43.93746" lon="7.37971">
        <ele>1395.4909667969</ele>
        <time>2013-04-14T09:40:53Z</time>
      </trkpt>
      <trkpt lat="43.93743" lon="7.37975">
        <ele>1395.9716796875</ele>
        <time>2013-04-14T09:40:55Z</time>
      </trkpt>
      <trkpt lat="43.93725" lon="7.38012">
        <ele>1397.8942871094</ele>
        <time>2013-04-14T09:41:08Z</time>
      </trkpt>
      <trkpt lat="43.9372" lon="7.38011">
        <ele>1401.2587890625</ele>
        <time>2013-04-14T09:41:20Z</time>
      </trkpt>
      <trkpt lat="43.93719" lon="7.38009">
        <ele>1401.7395019531</ele>
        <time>2013-04-14T09:41:22Z</time>
      </trkpt>
      <trkpt lat="43.93719" lon="7.38003">
        <ele>1402.7006835938</ele>
        <time>2013-04-14T09:41:26Z</time>
      </trkpt>
      <trkpt lat="43.93731" lon="7.37977">
        <ele>1404.6235351562</ele>
        <time>2013-04-14T09:41:36Z</time>
      </trkpt>
      <trkpt lat="43.93745" lon="7.37953">
        <ele>1405.5849609375</ele>
        <time>2013-04-14T09:41:48Z</time>
      </trkpt>
      <trkpt lat="43.93752" lon="7.37925">
        <ele>1408.9494628906</ele>
        <time>2013-04-14T09:42:01Z</time>
      </trkpt>
      <trkpt lat="43.9376" lon="7.37907">
        <ele>1412.3139648438</ele>
        <time>2013-04-14T09:42:12Z</time>
      </trkpt>
      <trkpt lat="43.9377" lon="7.37892">
        <ele>1415.6787109375</ele>
        <time>2013-04-14T09:42:23Z</time>
      </trkpt>
      <trkpt lat="43.93776" lon="7.37878">
        <ele>1419.0432128906</ele>
        <time>2013-04-14T09:42:35Z</time>
      </trkpt>
      <trkpt lat="43.93786" lon="7.37861">
        <ele>1422.4079589844</ele>
        <time>2013-04-14T09:42:46Z</time>
      </trkpt>
      <trkpt lat="43.93787" lon="7.3785">
        <ele>1425.2917480469</ele>
        <time>2013-04-14T09:42:56Z</time>
      </trkpt>
      <trkpt lat="43.93789" lon="7.37843">
        <ele>1427.2145996094</ele>
        <time>2013-04-14T09:43:02Z</time>
      </trkpt>
      <trkpt lat="43.93791" lon="7.37836">
        <ele>1428.6564941406</ele>
        <time>2013-04-14T09:43:06Z</time>
      </trkpt>
      <trkpt lat="43.93792" lon="7.37818">
        <ele>1432.0209960938</ele>
        <time>2013-04-14T09:43:19Z</time>
      </trkpt>
      <trkpt lat="43.93793" lon="7.37792">
        <ele>1433.9436035156</ele>
        <time>2013-04-14T09:43:33Z</time>
      </trkpt>
      <trkpt lat="43.93795" lon="7.37773">
        <ele>1433.9436035156</ele>
        <time>2013-04-14T09:43:42Z</time>
      </trkpt>
      <trkpt lat="43.938" lon="7.37742">
        <ele>1435.3854980469</ele>
        <time>2013-04-14T09:43:54Z</time>
      </trkpt>
      <trkpt lat="43.93804" lon="7.37727">
        <ele>1436.3471679688</ele>
        <time>2013-04-14T09:44:00Z</time>
      </trkpt>
      <trkpt lat="43.93807" lon="7.37722">
        <ele>1438.2697753906</ele>
        <time>2013-04-14T09:44:03Z</time>
      </trkpt>
      <trkpt lat="43.93807" lon="7.37719">
        <ele>1438.2697753906</ele>
        <time>2013-04-14T09:44:04Z</time>
      </trkpt>
      <trkpt lat="43.93816" lon="7.37698">
        <ele>1441.1535644531</ele>
        <time>2013-04-14T09:44:16Z</time>
      </trkpt>
      <trkpt lat="43.93814" lon="7.37674">
        <ele>1443.076171875</ele>
        <time>2013-04-14T09:44:27Z</time>
      </trkpt>
      <trkpt lat="43.93815" lon="7.37655">
        <ele>1444.0375976562</ele>
        <time>2013-04-14T09:44:33Z</time>
      </trkpt>
      <trkpt lat="43.93813" lon="7.37621">
        <ele>1445.9602050781</ele>
        <time>2013-04-14T09:44:41Z</time>
      </trkpt>
      <trkpt lat="43.93814" lon="7.37614">
        <ele>1445.9602050781</ele>
        <time>2013-04-14T09:44:43Z</time>
      </trkpt>
      <trkpt lat="43.93816" lon="7.37597">
        <ele>1446.9213867188</ele>
        <time>2013-04-14T09:44:49Z</time>
      </trkpt>
      <trkpt lat="43.93824" lon="7.37576">
        <ele>1449.3247070312</ele>
        <time>2013-04-14T09:44:56Z</time>
      </trkpt>
      <trkpt lat="43.93826" lon="7.37566">
        <ele>1450.2861328125</ele>
        <time>2013-04-14T09:45:01Z</time>
      </trkpt>
      <trkpt lat="43.93829" lon="7.37562">
        <ele>1451.2473144531</ele>
        <time>2013-04-14T09:45:05Z</time>
      </trkpt>
      <trkpt lat="43.93833" lon="7.37552">
        <ele>1452.2087402344</ele>
        <time>2013-04-14T09:45:11Z</time>
      </trkpt>
      <trkpt lat="43.93842" lon="7.37542">
        <ele>1452.689453125</ele>
        <time>2013-04-14T09:45:16Z</time>
      </trkpt>
      <trkpt lat="43.93851" lon="7.37517">
        <ele>1451.7280273438</ele>
        <time>2013-04-14T09:45:22Z</time>
      </trkpt>
      <trkpt lat="43.93862" lon="7.37492">
        <ele>1453.1701660156</ele>
        <time>2013-04-14T09:45:30Z</time>
      </trkpt>
      <trkpt lat="43.93866" lon="7.37483">
        <ele>1454.6120605469</ele>
        <time>2013-04-14T09:45:36Z</time>
      </trkpt>
      <trkpt lat="43.93868" lon="7.37477">
        <ele>1456.0539550781</ele>
        <time>2013-04-14T09:45:39Z</time>
      </trkpt>
      <trkpt lat="43.93869" lon="7.37474">
        <ele>1456.0539550781</ele>
        <time>2013-04-14T09:45:41Z</time>
      </trkpt>
      <trkpt lat="43.93875" lon="7.37458">
        <ele>1459.4187011719</ele>
        <time>2013-04-14T09:45:53Z</time>
      </trkpt>
      <trkpt lat="43.93877" lon="7.37453">
        <ele>1459.8991699219</ele>
        <time>2013-04-14T09:45:57Z</time>
      </trkpt>
      <trkpt lat="43.93881" lon="7.37442">
        <ele>1463.7443847656</ele>
        <time>2013-04-14T09:46:08Z</time>
      </trkpt>
      <trkpt lat="43.93885" lon="7.37435">
        <ele>1466.1477050781</ele>
        <time>2013-04-14T09:46:16Z</time>
      </trkpt>
      <trkpt lat="43.93887" lon="7.37434">
        <ele>1467.1091308594</ele>
        <time>2013-04-14T09:46:20Z</time>
      </trkpt>
      <trkpt lat="43.93888" lon="7.37424">
        <ele>1470.4738769531</ele>
        <time>2013-04-14T09:46:29Z</time>
      </trkpt>
      <trkpt lat="43.93888" lon="7.37422">
        <ele>1471.9157714844</ele>
        <time>2013-04-14T09:46:33Z</time>
      </trkpt>
      <trkpt lat="43.93897" lon="7.37411">
        <ele>1475.2802734375</ele>
        <time>2013-04-14T09:46:46Z</time>
      </trkpt>
      <trkpt lat="43.93899" lon="7.37404">
        <ele>1476.7224121094</ele>
        <time>2013-04-14T09:46:53Z</time>
      </trkpt>
      <trkpt lat="43.93899" lon="7.37397">
        <ele>1479.1254882812</ele>
        <time>2013-04-14T09:46:59Z</time>
      </trkpt>
      <trkpt lat="43.93898" lon="7.37387">
        <ele>1480.0869140625</ele>
        <time>2013-04-14T09:47:04Z</time>
      </trkpt>
      <trkpt lat="43.93899" lon="7.37384">
        <ele>1480.5676269531</ele>
        <time>2013-04-14T09:47:06Z</time>
      </trkpt>
      <trkpt lat="43.939" lon="7.37381">
        <ele>1481.5288085938</ele>
        <time>2013-04-14T09:47:09Z</time>
      </trkpt>
      <trkpt lat="43.93902" lon="7.3736">
        <ele>1484.4130859375</ele>
        <time>2013-04-14T09:47:22Z</time>
      </trkpt>
      <trkpt lat="43.93905" lon="7.37352">
        <ele>1487.7775878906</ele>
        <time>2013-04-14T09:47:32Z</time>
      </trkpt>
      <trkpt lat="43.93913" lon="7.37342">
        <ele>1491.1420898438</ele>
        <time>2013-04-14T09:47:43Z</time>
      </trkpt>
      <trkpt lat="43.93927" lon="7.37333">
        <ele>1494.5065917969</ele>
        <time>2013-04-14T09:47:57Z</time>
      </trkpt>
      <trkpt lat="43.93934" lon="7.37331">
        <ele>1495.9487304688</ele>
        <time>2013-04-14T09:48:03Z</time>
      </trkpt>
      <trkpt lat="43.93939" lon="7.37329">
        <ele>1496.9099121094</ele>
        <time>2013-04-14T09:48:06Z</time>
      </trkpt>
      <trkpt lat="43.93955" lon="7.37321">
        <ele>1499.7939453125</ele>
        <time>2013-04-14T09:48:18Z</time>
      </trkpt>
      <trkpt lat="43.93956" lon="7.37319">
        <ele>1500.7553710938</ele>
        <time>2013-04-14T09:48:20Z</time>
      </trkpt>
      <trkpt lat="43.93961" lon="7.37311">
        <ele>1504.1201171875</ele>
        <time>2013-04-14T09:48:31Z</time>
      </trkpt>
      <trkpt lat="43.93969" lon="7.37291">
        <ele>1507.00390625</ele>
        <time>2013-04-14T09:48:44Z</time>
      </trkpt>
      <trkpt lat="43.93969" lon="7.37271">
        <ele>1510.3684082031</ele>
        <time>2013-04-14T09:48:59Z</time>
      </trkpt>
      <trkpt lat="43.93959" lon="7.37247">
        <ele>1513.2524414062</ele>
        <time>2013-04-14T09:49:18Z</time>
      </trkpt>
      <trkpt lat="43.93953" lon="7.37243">
        <ele>1514.6943359375</ele>
        <time>2013-04-14T09:49:23Z</time>
      </trkpt>
      <trkpt lat="43.93947" lon="7.3724">
        <ele>1516.6171875</ele>
        <time>2013-04-14T09:49:30Z</time>
      </trkpt>
      <trkpt lat="43.93942" lon="7.37239">
        <ele>1516.6171875</ele>
        <time>2013-04-14T09:49:32Z</time>
      </trkpt>
      <trkpt lat="43.93934" lon="7.37225">
        <ele>1516.6171875</ele>
        <time>2013-04-14T09:49:40Z</time>
      </trkpt>
      <trkpt lat="43.9393" lon="7.37215">
        <ele>1518.0590820312</ele>
        <time>2013-04-14T09:49:48Z</time>
      </trkpt>
      <trkpt lat="43.93927" lon="7.37195">
        <ele>1521.4235839844</ele>
        <time>2013-04-14T09:50:02Z</time>
      </trkpt>
      <trkpt lat="43.93926" lon="7.37182">
        <ele>1524.7883300781</ele>
        <time>2013-04-14T09:50:14Z</time>
      </trkpt>
      <trkpt lat="43.93925" lon="7.37174">
        <ele>1527.6721191406</ele>
        <time>2013-04-14T09:50:21Z</time>
      </trkpt>
      <trkpt lat="43.93913" lon="7.37163">
        <ele>1531.5173339844</ele>
        <time>2013-04-14T09:50:35Z</time>
      </trkpt>
      <trkpt lat="43.93912" lon="7.37162">
        <ele>1531.5173339844</ele>
        <time>2013-04-14T09:50:36Z</time>
      </trkpt>
      <trkpt lat="43.93911" lon="7.37156">
        <ele>1532.4790039062</ele>
        <time>2013-04-14T09:50:40Z</time>
      </trkpt>
      <trkpt lat="43.93911" lon="7.37153">
        <ele>1532.4790039062</ele>
        <time>2013-04-14T09:50:42Z</time>
      </trkpt>
      <trkpt lat="43.93917" lon="7.37141">
        <ele>1535.3627929688</ele>
        <time>2013-04-14T09:50:54Z</time>
      </trkpt>
      <trkpt lat="43.93918" lon="7.3714">
        <ele>1536.32421875</ele>
        <time>2013-04-14T09:50:56Z</time>
      </trkpt>
      <trkpt lat="43.93919" lon="7.37138">
        <ele>1536.8046875</ele>
        <time>2013-04-14T09:50:58Z</time>
      </trkpt>
      <trkpt lat="43.93926" lon="7.37129">
        <ele>1540.1694335938</ele>
        <time>2013-04-14T09:51:09Z</time>
      </trkpt>
      <trkpt lat="43.93941" lon="7.37121">
        <ele>1543.0532226562</ele>
        <time>2013-04-14T09:51:26Z</time>
      </trkpt>
      <trkpt lat="43.93944" lon="7.37112">
        <ele>1544.0146484375</ele>
        <time>2013-04-14T09:51:30Z</time>
      </trkpt>
      <trkpt lat="43.93947" lon="7.37109">
        <ele>1544.9758300781</ele>
        <time>2013-04-14T09:51:33Z</time>
      </trkpt>
      <trkpt lat="43.9395" lon="7.37105">
        <ele>1545.9372558594</ele>
        <time>2013-04-14T09:51:38Z</time>
      </trkpt>
      <trkpt lat="43.93954" lon="7.37101">
        <ele>1546.8984375</ele>
        <time>2013-04-14T09:51:42Z</time>
      </trkpt>
      <trkpt lat="43.93965" lon="7.37084">
        <ele>1550.7438964844</ele>
        <time>2013-04-14T09:51:57Z</time>
      </trkpt>
      <trkpt lat="43.93963" lon="7.37075">
        <ele>1554.1086425781</ele>
        <time>2013-04-14T09:52:06Z</time>
      </trkpt>
      <trkpt lat="43.93968" lon="7.37064">
        <ele>1556.9924316406</ele>
        <time>2013-04-14T09:52:17Z</time>
      </trkpt>
      <trkpt lat="43.93971" lon="7.37059">
        <ele>1559.3957519531</ele>
        <time>2013-04-14T09:52:22Z</time>
      </trkpt>
      <trkpt lat="43.93975" lon="7.3705">
        <ele>1560.3569335938</ele>
        <time>2013-04-14T09:52:28Z</time>
      </trkpt>
      <trkpt lat="43.93987" lon="7.37047">
        <ele>1557.9538574219</ele>
        <time>2013-04-14T09:52:34Z</time>
      </trkpt>
      <trkpt lat="43.93993" lon="7.37044">
        <ele>1556.0310058594</ele>
        <time>2013-04-14T09:52:37Z</time>
      </trkpt>
      <trkpt lat="43.94004" lon="7.37039">
        <ele>1553.6279296875</ele>
        <time>2013-04-14T09:52:41Z</time>
      </trkpt>
      <trkpt lat="43.93998" lon="7.36974">
        <ele>1551.7053222656</ele>
        <time>2013-04-14T09:52:43Z</time>
      </trkpt>
      <trkpt lat="43.94008" lon="7.3697">
        <ele>1549.3020019531</ele>
        <time>2013-04-14T09:52:46Z</time>
      </trkpt>
      <trkpt lat="43.94012" lon="7.36968">
        <ele>1548.3405761719</ele>
        <time>2013-04-14T09:52:48Z</time>
      </trkpt>
      <trkpt lat="43.9402" lon="7.36966">
        <ele>1545.9372558594</ele>
        <time>2013-04-14T09:52:52Z</time>
      </trkpt>
      <trkpt lat="43.94031" lon="7.36962">
        <ele>1543.0532226562</ele>
        <time>2013-04-14T09:52:57Z</time>
      </trkpt>
      <trkpt lat="43.94018" lon="7.36966">
        <ele>1541.1306152344</ele>
        <time>2013-04-14T09:52:59Z</time>
      </trkpt>
      <trkpt lat="43.94023" lon="7.36964">
        <ele>1540.1694335938</ele>
        <time>2013-04-14T09:53:01Z</time>
      </trkpt>
      <trkpt lat="43.9402" lon="7.36965">
        <ele>1538.7275390625</ele>
        <time>2013-04-14T09:53:04Z</time>
      </trkpt>
      <trkpt lat="43.94033" lon="7.36961">
        <ele>1536.8046875</ele>
        <time>2013-04-14T09:53:09Z</time>
      </trkpt>
      <trkpt lat="43.94074" lon="7.36952">
        <ele>1534.8823242188</ele>
        <time>2013-04-14T09:53:19Z</time>
      </trkpt>
      <trkpt lat="43.94099" lon="7.36949">
        <ele>1532.9594726562</ele>
        <time>2013-04-14T09:53:25Z</time>
      </trkpt>
      <trkpt lat="43.9413" lon="7.36943">
        <ele>1529.5947265625</ele>
        <time>2013-04-14T09:53:31Z</time>
      </trkpt>
      <trkpt lat="43.94143" lon="7.3694">
        <ele>1527.6721191406</ele>
        <time>2013-04-14T09:53:34Z</time>
      </trkpt>
      <trkpt lat="43.94154" lon="7.36937">
        <ele>1526.2302246094</ele>
        <time>2013-04-14T09:53:36Z</time>
      </trkpt>
      <trkpt lat="43.94163" lon="7.36935">
        <ele>1524.7883300781</ele>
        <time>2013-04-14T09:53:38Z</time>
      </trkpt>
      <trkpt lat="43.94172" lon="7.36932">
        <ele>1520.4624023438</ele>
        <time>2013-04-14T09:53:40Z</time>
      </trkpt>
      <trkpt lat="43.94175" lon="7.3693">
        <ele>1520.4624023438</ele>
        <time>2013-04-14T09:53:41Z</time>
      </trkpt>
      <trkpt lat="43.94182" lon="7.36926">
        <ele>1519.0205078125</ele>
        <time>2013-04-14T09:53:43Z</time>
      </trkpt>
      <trkpt lat="43.9419" lon="7.36922">
        <ele>1517.5783691406</ele>
        <time>2013-04-14T09:53:45Z</time>
      </trkpt>
      <trkpt lat="43.94201" lon="7.36915">
        <ele>1514.6943359375</ele>
        <time>2013-04-14T09:53:48Z</time>
      </trkpt>
      <trkpt lat="43.94213" lon="7.36909">
        <ele>1512.7717285156</ele>
        <time>2013-04-14T09:53:50Z</time>
      </trkpt>
      <trkpt lat="43.94226" lon="7.36902">
        <ele>1508.9265136719</ele>
        <time>2013-04-14T09:53:54Z</time>
      </trkpt>
      <trkpt lat="43.94229" lon="7.369">
        <ele>1508.9265136719</ele>
        <time>2013-04-14T09:53:55Z</time>
      </trkpt>
      <trkpt lat="43.94235" lon="7.36896">
        <ele>1507.9653320312</ele>
        <time>2013-04-14T09:53:57Z</time>
      </trkpt>
      <trkpt lat="43.94241" lon="7.36893">
        <ele>1506.0424804688</ele>
        <time>2013-04-14T09:53:59Z</time>
      </trkpt>
      <trkpt lat="43.94248" lon="7.36888">
        <ele>1503.1586914062</ele>
        <time>2013-04-14T09:54:01Z</time>
      </trkpt>
      <trkpt lat="43.94253" lon="7.36885">
        <ele>1503.1586914062</ele>
        <time>2013-04-14T09:54:02Z</time>
      </trkpt>
      <trkpt lat="43.9426" lon="7.3688">
        <ele>1501.716796875</ele>
        <time>2013-04-14T09:54:04Z</time>
      </trkpt>
      <trkpt lat="43.94269" lon="7.36875">
        <ele>1500.2749023438</ele>
        <time>2013-04-14T09:54:06Z</time>
      </trkpt>
      <trkpt lat="43.9428" lon="7.36867">
        <ele>1497.8713378906</ele>
        <time>2013-04-14T09:54:09Z</time>
      </trkpt>
      <trkpt lat="43.94294" lon="7.36851">
        <ele>1494.5065917969</ele>
        <time>2013-04-14T09:54:14Z</time>
      </trkpt>
      <trkpt lat="43.94301" lon="7.36847">
        <ele>1493.5454101562</ele>
        <time>2013-04-14T09:54:16Z</time>
      </trkpt>
      <trkpt lat="43.94312" lon="7.36846">
        <ele>1491.1420898438</ele>
        <time>2013-04-14T09:54:21Z</time>
      </trkpt>
      <trkpt lat="43.94326" lon="7.36843">
        <ele>1488.7390136719</ele>
        <time>2013-04-14T09:54:26Z</time>
      </trkpt>
      <trkpt lat="43.9434" lon="7.36845">
        <ele>1487.7775878906</ele>
        <time>2013-04-14T09:54:30Z</time>
      </trkpt>
      <trkpt lat="43.94344" lon="7.36848">
        <ele>1488.7390136719</ele>
        <time>2013-04-14T09:54:34Z</time>
      </trkpt>
      <trkpt lat="43.9433" lon="7.36837">
        <ele>1489.2194824219</ele>
        <time>2013-04-14T09:54:38Z</time>
      </trkpt>
      <trkpt lat="43.9433" lon="7.36837">
        <ele>1490.6613769531</ele>
        <time>2013-04-14T09:54:57Z</time>
      </trkpt>
      <trkpt lat="43.94329" lon="7.36835">
        <ele>1490.6613769531</ele>
        <time>2013-04-14T09:55:01Z</time>
      </trkpt>
      <trkpt lat="43.94374" lon="7.36788">
        <ele>1492.103515625</ele>
        <time>2013-04-14T09:55:13Z</time>
      </trkpt>
      <trkpt lat="43.94381" lon="7.36778">
        <ele>1493.0646972656</ele>
        <time>2013-04-14T09:55:19Z</time>
      </trkpt>
      <trkpt lat="43.94405" lon="7.36762">
        <ele>1496.4294433594</ele>
        <time>2013-04-14T09:55:36Z</time>
      </trkpt>
      <trkpt lat="43.94418" lon="7.36757">
        <ele>1498.3518066406</ele>
        <time>2013-04-14T09:55:52Z</time>
      </trkpt>
      <trkpt lat="43.94443" lon="7.36757">
        <ele>1499.3132324219</ele>
        <time>2013-04-14T09:56:02Z</time>
      </trkpt>
      <trkpt lat="43.94443" lon="7.36757">
        <ele>1500.7553710938</ele>
        <time>2013-04-14T09:56:10Z</time>
      </trkpt>
      <trkpt lat="43.94467" lon="7.36763">
        <ele>1504.1201171875</ele>
        <time>2013-04-14T09:56:30Z</time>
      </trkpt>
      <trkpt lat="43.94467" lon="7.36763">
        <ele>1507.00390625</ele>
        <time>2013-04-14T09:56:50Z</time>
      </trkpt>
      <trkpt lat="43.94467" lon="7.36763">
        <ele>1507.4846191406</ele>
        <time>2013-04-14T09:56:55Z</time>
      </trkpt>
      <trkpt lat="43.94467" lon="7.36763">
        <ele>1508.9265136719</ele>
        <time>2013-04-14T09:57:03Z</time>
      </trkpt>
      <trkpt lat="43.94467" lon="7.36763">
        <ele>1512.291015625</ele>
        <time>2013-04-14T09:57:20Z</time>
      </trkpt>
      <trkpt lat="43.94467" lon="7.36763">
        <ele>1513.7329101562</ele>
        <time>2013-04-14T09:57:32Z</time>
      </trkpt>
      <trkpt lat="43.94554" lon="7.36795">
        <ele>1517.5783691406</ele>
        <time>2013-04-14T09:57:52Z</time>
      </trkpt>
      <trkpt lat="43.94554" lon="7.36795">
        <ele>1520.9431152344</ele>
        <time>2013-04-14T09:58:11Z</time>
      </trkpt>
      <trkpt lat="43.94627" lon="7.36824">
        <ele>1522.8657226562</ele>
        <time>2013-04-14T09:58:29Z</time>
      </trkpt>
      <trkpt lat="43.94643" lon="7.36831">
        <ele>1526.2302246094</ele>
        <time>2013-04-14T09:58:46Z</time>
      </trkpt>
      <trkpt lat="43.9467" lon="7.36844">
        <ele>1529.5947265625</ele>
        <time>2013-04-14T09:59:07Z</time>
      </trkpt>
      <trkpt lat="43.9467" lon="7.36844">
        <ele>1532.9594726562</ele>
        <time>2013-04-14T09:59:22Z</time>
      </trkpt>
      <trkpt lat="43.9467" lon="7.36844">
        <ele>1534.4016113281</ele>
        <time>2013-04-14T09:59:33Z</time>
      </trkpt>
      <trkpt lat="43.94742" lon="7.36872">
        <ele>1537.2854003906</ele>
        <time>2013-04-14T09:59:54Z</time>
      </trkpt>
      <trkpt lat="43.94742" lon="7.36872">
        <ele>1537.2854003906</ele>
        <time>2013-04-14T09:59:55Z</time>
      </trkpt>
      <trkpt lat="43.94762" lon="7.36886">
        <ele>1537.7661132812</ele>
        <time>2013-04-14T10:00:00Z</time>
      </trkpt>
      <trkpt lat="43.94763" lon="7.36886">
        <ele>1538.7275390625</ele>
        <time>2013-04-14T10:00:05Z</time>
      </trkpt>
      <trkpt lat="43.9477" lon="7.36893">
        <ele>1539.2080078125</ele>
        <time>2013-04-14T10:00:10Z</time>
      </trkpt>
      <trkpt lat="43.94781" lon="7.36904">
        <ele>1541.611328125</ele>
        <time>2013-04-14T10:00:22Z</time>
      </trkpt>
      <trkpt lat="43.94815" lon="7.36934">
        <ele>1544.4951171875</ele>
        <time>2013-04-14T10:00:42Z</time>
      </trkpt>
      <trkpt lat="43.94826" lon="7.36942">
        <ele>1547.3791503906</ele>
        <time>2013-04-14T10:00:52Z</time>
      </trkpt>
      <trkpt lat="43.94839" lon="7.36953">
        <ele>1550.7438964844</ele>
        <time>2013-04-14T10:01:07Z</time>
      </trkpt>
      <trkpt lat="43.94839" lon="7.36953">
        <ele>1554.1086425781</ele>
        <time>2013-04-14T10:01:18Z</time>
      </trkpt>
      <trkpt lat="43.94859" lon="7.36983">
        <ele>1556.51171875</ele>
        <time>2013-04-14T10:01:28Z</time>
      </trkpt>
      <trkpt lat="43.94863" lon="7.36985">
        <ele>1559.3957519531</ele>
        <time>2013-04-14T10:01:40Z</time>
      </trkpt>
      <trkpt lat="43.94864" lon="7.36987">
        <ele>1563.2409667969</ele>
        <time>2013-04-14T10:01:50Z</time>
      </trkpt>
      <trkpt lat="43.94864" lon="7.36987">
        <ele>1563.2409667969</ele>
        <time>2013-04-14T10:01:51Z</time>
      </trkpt>
      <trkpt lat="43.94864" lon="7.36987">
        <ele>1563.2409667969</ele>
        <time>2013-04-14T10:01:52Z</time>
      </trkpt>
      <trkpt lat="43.94864" lon="7.36987">
        <ele>1566.125</ele>
        <time>2013-04-14T10:02:06Z</time>
      </trkpt>
      <trkpt lat="43.94918" lon="7.37035">
        <ele>1569.0090332031</ele>
        <time>2013-04-14T10:02:16Z</time>
      </trkpt>
      <trkpt lat="43.94923" lon="7.3704">
        <ele>1569.4897460938</ele>
        <time>2013-04-14T10:02:20Z</time>
      </trkpt>
      <trkpt lat="43.94935" lon="7.37056">
        <ele>1571.412109375</ele>
        <time>2013-04-14T10:02:28Z</time>
      </trkpt>
      <trkpt lat="43.9494" lon="7.3706">
        <ele>1574.2961425781</ele>
        <time>2013-04-14T10:02:42Z</time>
      </trkpt>
      <trkpt lat="43.94971" lon="7.37085">
        <ele>1577.1801757812</ele>
        <time>2013-04-14T10:02:59Z</time>
      </trkpt>
      <trkpt lat="43.94977" lon="7.37087">
        <ele>1578.1413574219</ele>
        <time>2013-04-14T10:03:01Z</time>
      </trkpt>
      <trkpt lat="43.94986" lon="7.37095">
        <ele>1580.544921875</ele>
        <time>2013-04-14T10:03:09Z</time>
      </trkpt>
      <trkpt lat="43.94986" lon="7.37095">
        <ele>1581.5061035156</ele>
        <time>2013-04-14T10:03:17Z</time>
      </trkpt>
      <trkpt lat="43.95002" lon="7.3714">
        <ele>1585.3513183594</ele>
        <time>2013-04-14T10:03:32Z</time>
      </trkpt>
      <trkpt lat="43.95002" lon="7.3714">
        <ele>1585.83203125</ele>
        <time>2013-04-14T10:03:35Z</time>
      </trkpt>
      <trkpt lat="43.95002" lon="7.3714">
        <ele>1587.2739257812</ele>
        <time>2013-04-14T10:03:39Z</time>
      </trkpt>
      <trkpt lat="43.95002" lon="7.3714">
        <ele>1589.6772460938</ele>
        <time>2013-04-14T10:03:52Z</time>
      </trkpt>
      <trkpt lat="43.95017" lon="7.37181">
        <ele>1592.5612792969</ele>
        <time>2013-04-14T10:04:02Z</time>
      </trkpt>
      <trkpt lat="43.95016" lon="7.37192">
        <ele>1596.4067382812</ele>
        <time>2013-04-14T10:04:15Z</time>
      </trkpt>
      <trkpt lat="43.95016" lon="7.37192">
        <ele>1599.2905273438</ele>
        <time>2013-04-14T10:04:27Z</time>
      </trkpt>
      <trkpt lat="43.95016" lon="7.37192">
        <ele>1600.251953125</ele>
        <time>2013-04-14T10:04:37Z</time>
      </trkpt>
      <trkpt lat="43.9504" lon="7.37232">
        <ele>1600.732421875</ele>
        <time>2013-04-14T10:04:40Z</time>
      </trkpt>
      <trkpt lat="43.95059" lon="7.37246">
        <ele>1599.7712402344</ele>
        <time>2013-04-14T10:04:50Z</time>
      </trkpt>
      <trkpt lat="43.95061" lon="7.37297">
        <ele>1600.251953125</ele>
        <time>2013-04-14T10:05:03Z</time>
      </trkpt>
      <trkpt lat="43.95066" lon="7.3731">
        <ele>1600.732421875</ele>
        <time>2013-04-14T10:05:07Z</time>
      </trkpt>
      <trkpt lat="43.95067" lon="7.37361">
        <ele>1599.2905273438</ele>
        <time>2013-04-14T10:05:24Z</time>
      </trkpt>
      <trkpt lat="43.95083" lon="7.37384">
        <ele>1598.3291015625</ele>
        <time>2013-04-14T10:05:33Z</time>
      </trkpt>
      <trkpt lat="43.95094" lon="7.37391">
        <ele>1597.3679199219</ele>
        <time>2013-04-14T10:05:38Z</time>
      </trkpt>
      <trkpt lat="43.95101" lon="7.37393">
        <ele>1597.3679199219</ele>
        <time>2013-04-14T10:05:41Z</time>
      </trkpt>
      <trkpt lat="43.95127" lon="7.37407">
        <ele>1598.3291015625</ele>
        <time>2013-04-14T10:05:57Z</time>
      </trkpt>
      <trkpt lat="43.9516" lon="7.3741">
        <ele>1599.7712402344</ele>
        <time>2013-04-14T10:06:14Z</time>
      </trkpt>
      <trkpt lat="43.95168" lon="7.37412">
        <ele>1599.7712402344</ele>
        <time>2013-04-14T10:06:20Z</time>
      </trkpt>
      <trkpt lat="43.95171" lon="7.37421">
        <ele>1599.2905273438</ele>
        <time>2013-04-14T10:06:23Z</time>
      </trkpt>
      <trkpt lat="43.95179" lon="7.3743">
        <ele>1599.2905273438</ele>
        <time>2013-04-14T10:06:27Z</time>
      </trkpt>
      <trkpt lat="43.9519" lon="7.37438">
        <ele>1598.3291015625</ele>
        <time>2013-04-14T10:06:33Z</time>
      </trkpt>
      <trkpt lat="43.95207" lon="7.37443">
        <ele>1596.8872070312</ele>
        <time>2013-04-14T10:06:41Z</time>
      </trkpt>
      <trkpt lat="43.95213" lon="7.37453">
        <ele>1596.8872070312</ele>
        <time>2013-04-14T10:06:47Z</time>
      </trkpt>
      <trkpt lat="43.9526" lon="7.3752">
        <ele>1594.4836425781</ele>
        <time>2013-04-14T10:06:59Z</time>
      </trkpt>
      <trkpt lat="43.95279" lon="7.37566">
        <ele>1594.4836425781</ele>
        <time>2013-04-14T10:07:13Z</time>
      </trkpt>
      <trkpt lat="43.95291" lon="7.37586">
        <ele>1594.4836425781</ele>
        <time>2013-04-14T10:07:22Z</time>
      </trkpt>
      <trkpt lat="43.95298" lon="7.3759">
        <ele>1593.5224609375</ele>
        <time>2013-04-14T10:07:26Z</time>
      </trkpt>
      <trkpt lat="43.95303" lon="7.37603">
        <ele>1592.5612792969</ele>
        <time>2013-04-14T10:07:30Z</time>
      </trkpt>
      <trkpt lat="43.9531" lon="7.37613">
        <ele>1593.0417480469</ele>
        <time>2013-04-14T10:07:36Z</time>
      </trkpt>
      <trkpt lat="43.95332" lon="7.37623">
        <ele>1592.0805664062</ele>
        <time>2013-04-14T10:07:42Z</time>
      </trkpt>
      <trkpt lat="43.95344" lon="7.37649">
        <ele>1593.0417480469</ele>
        <time>2013-04-14T10:07:52Z</time>
      </trkpt>
      <trkpt lat="43.95368" lon="7.37698">
        <ele>1594.4836425781</ele>
        <time>2013-04-14T10:08:08Z</time>
      </trkpt>
      <trkpt lat="43.95374" lon="7.3771">
        <ele>1594.4836425781</ele>
        <time>2013-04-14T10:08:13Z</time>
      </trkpt>
      <trkpt lat="43.95398" lon="7.37736">
        <ele>1594.4836425781</ele>
        <time>2013-04-14T10:08:25Z</time>
      </trkpt>
      <trkpt lat="43.95401" lon="7.37747">
        <ele>1594.4836425781</ele>
        <time>2013-04-14T10:08:29Z</time>
      </trkpt>
      <trkpt lat="43.95392" lon="7.37797">
        <ele>1593.0417480469</ele>
        <time>2013-04-14T10:08:41Z</time>
      </trkpt>
      <trkpt lat="43.95391" lon="7.3781">
        <ele>1592.5612792969</ele>
        <time>2013-04-14T10:08:45Z</time>
      </trkpt>
      <trkpt lat="43.95393" lon="7.37822">
        <ele>1592.0805664062</ele>
        <time>2013-04-14T10:08:49Z</time>
      </trkpt>
      <trkpt lat="43.95413" lon="7.37853">
        <ele>1593.0417480469</ele>
        <time>2013-04-14T10:09:02Z</time>
      </trkpt>
      <trkpt lat="43.95424" lon="7.37865">
        <ele>1593.5224609375</ele>
        <time>2013-04-14T10:09:07Z</time>
      </trkpt>
      <trkpt lat="43.95457" lon="7.37906">
        <ele>1591.5998535156</ele>
        <time>2013-04-14T10:09:22Z</time>
      </trkpt>
      <trkpt lat="43.95465" lon="7.37919">
        <ele>1590.1579589844</ele>
        <time>2013-04-14T10:09:26Z</time>
      </trkpt>
      <trkpt lat="43.95467" lon="7.3793">
        <ele>1588.7160644531</ele>
        <time>2013-04-14T10:09:30Z</time>
      </trkpt>
      <trkpt lat="43.95466" lon="7.37952">
        <ele>1585.3513183594</ele>
        <time>2013-04-14T10:09:37Z</time>
      </trkpt>
      <trkpt lat="43.95466" lon="7.37956">
        <ele>1585.3513183594</ele>
        <time>2013-04-14T10:09:38Z</time>
      </trkpt>
      <trkpt lat="43.95461" lon="7.37994">
        <ele>1581.0256347656</ele>
        <time>2013-04-14T10:09:47Z</time>
      </trkpt>
      <trkpt lat="43.9546" lon="7.37999">
        <ele>1581.0256347656</ele>
        <time>2013-04-14T10:09:48Z</time>
      </trkpt>
      <trkpt lat="43.95454" lon="7.38021">
        <ele>1577.6606445312</ele>
        <time>2013-04-14T10:09:53Z</time>
      </trkpt>
      <trkpt lat="43.95453" lon="7.38025">
        <ele>1577.6606445312</ele>
        <time>2013-04-14T10:09:54Z</time>
      </trkpt>
      <trkpt lat="43.95451" lon="7.38031">
        <ele>1576.6994628906</ele>
        <time>2013-04-14T10:09:56Z</time>
      </trkpt>
      <trkpt lat="43.95448" lon="7.38044">
        <ele>1574.7768554688</ele>
        <time>2013-04-14T10:09:59Z</time>
      </trkpt>
      <trkpt lat="43.95446" lon="7.38047">
        <ele>1572.8542480469</ele>
        <time>2013-04-14T10:10:00Z</time>
      </trkpt>
      <trkpt lat="43.95443" lon="7.38069">
        <ele>1570.931640625</ele>
        <time>2013-04-14T10:10:05Z</time>
      </trkpt>
      <trkpt lat="43.95441" lon="7.38078">
        <ele>1569.4897460938</ele>
        <time>2013-04-14T10:10:07Z</time>
      </trkpt>
      <trkpt lat="43.95439" lon="7.38097">
        <ele>1567.0864257812</ele>
        <time>2013-04-14T10:10:11Z</time>
      </trkpt>
      <trkpt lat="43.9543" lon="7.38138">
        <ele>1563.2409667969</ele>
        <time>2013-04-14T10:10:19Z</time>
      </trkpt>
      <trkpt lat="43.9543" lon="7.38141">
        <ele>1563.2409667969</ele>
        <time>2013-04-14T10:10:20Z</time>
      </trkpt>
      <trkpt lat="43.95429" lon="7.38153">
        <ele>1561.7990722656</ele>
        <time>2013-04-14T10:10:25Z</time>
      </trkpt>
      <trkpt lat="43.95427" lon="7.38163">
        <ele>1561.318359375</ele>
        <time>2013-04-14T10:10:29Z</time>
      </trkpt>
      <trkpt lat="43.95425" lon="7.38194">
        <ele>1556.9924316406</ele>
        <time>2013-04-14T10:10:37Z</time>
      </trkpt>
      <trkpt lat="43.95423" lon="7.38216">
        <ele>1554.1086425781</ele>
        <time>2013-04-14T10:10:42Z</time>
      </trkpt>
      <trkpt lat="43.95422" lon="7.3822">
        <ele>1554.1086425781</ele>
        <time>2013-04-14T10:10:43Z</time>
      </trkpt>
      <trkpt lat="43.9541" lon="7.38258">
        <ele>1551.7053222656</ele>
        <time>2013-04-14T10:10:54Z</time>
      </trkpt>
      <trkpt lat="43.95411" lon="7.38267">
        <ele>1551.7053222656</ele>
        <time>2013-04-14T10:10:57Z</time>
      </trkpt>
      <trkpt lat="43.95417" lon="7.38264">
        <ele>1549.7827148438</ele>
        <time>2013-04-14T10:11:00Z</time>
      </trkpt>
      <trkpt lat="43.95424" lon="7.38258">
        <ele>1548.3405761719</ele>
        <time>2013-04-14T10:11:02Z</time>
      </trkpt>
      <trkpt lat="43.95426" lon="7.38256">
        <ele>1546.8984375</ele>
        <time>2013-04-14T10:11:03Z</time>
      </trkpt>
      <trkpt lat="43.95428" lon="7.38251">
        <ele>1546.8984375</ele>
        <time>2013-04-14T10:11:05Z</time>
      </trkpt>
      <trkpt lat="43.95432" lon="7.38245">
        <ele>1544.4951171875</ele>
        <time>2013-04-14T10:11:08Z</time>
      </trkpt>
      <trkpt lat="43.95445" lon="7.38223">
        <ele>1541.611328125</ele>
        <time>2013-04-14T10:11:15Z</time>
      </trkpt>
      <trkpt lat="43.95447" lon="7.38219">
        <ele>1541.611328125</ele>
        <time>2013-04-14T10:11:16Z</time>
      </trkpt>
      <trkpt lat="43.95451" lon="7.38212">
        <ele>1537.7661132812</ele>
        <time>2013-04-14T10:11:18Z</time>
      </trkpt>
      <trkpt lat="43.95453" lon="7.3821">
        <ele>1537.7661132812</ele>
        <time>2013-04-14T10:11:19Z</time>
      </trkpt>
      <trkpt lat="43.95457" lon="7.38203">
        <ele>1536.32421875</ele>
        <time>2013-04-14T10:11:21Z</time>
      </trkpt>
      <trkpt lat="43.95463" lon="7.38188">
        <ele>1533.4401855469</ele>
        <time>2013-04-14T10:11:26Z</time>
      </trkpt>
      <trkpt lat="43.95464" lon="7.38185">
        <ele>1533.4401855469</ele>
        <time>2013-04-14T10:11:27Z</time>
      </trkpt>
      <trkpt lat="43.95468" lon="7.38178">
        <ele>1531.998046875</ele>
        <time>2013-04-14T10:11:29Z</time>
      </trkpt>
      <trkpt lat="43.95478" lon="7.3816">
        <ele>1529.5947265625</ele>
        <time>2013-04-14T10:11:35Z</time>
      </trkpt>
      <trkpt lat="43.95482" lon="7.38152">
        <ele>1528.1528320312</ele>
        <time>2013-04-14T10:11:37Z</time>
      </trkpt>
      <trkpt lat="43.95488" lon="7.38146">
        <ele>1526.2302246094</ele>
        <time>2013-04-14T10:11:40Z</time>
      </trkpt>
      <trkpt lat="43.95501" lon="7.38133">
        <ele>1524.7883300781</ele>
        <time>2013-04-14T10:11:44Z</time>
      </trkpt>
      <trkpt lat="43.95505" lon="7.38127">
        <ele>1522.3850097656</ele>
        <time>2013-04-14T10:11:46Z</time>
      </trkpt>
      <trkpt lat="43.95512" lon="7.38116">
        <ele>1519.9816894531</ele>
        <time>2013-04-14T10:11:50Z</time>
      </trkpt>
      <trkpt lat="43.95521" lon="7.38103">
        <ele>1517.0979003906</ele>
        <time>2013-04-14T10:11:54Z</time>
      </trkpt>
      <trkpt lat="43.95529" lon="7.38089">
        <ele>1515.1750488281</ele>
        <time>2013-04-14T10:11:58Z</time>
      </trkpt>
      <trkpt lat="43.95533" lon="7.3808">
        <ele>1513.2524414062</ele>
        <time>2013-04-14T10:12:01Z</time>
      </trkpt>
      <trkpt lat="43.95537" lon="7.38076">
        <ele>1511.810546875</ele>
        <time>2013-04-14T10:12:03Z</time>
      </trkpt>
      <trkpt lat="43.9554" lon="7.38072">
        <ele>1510.3684082031</ele>
        <time>2013-04-14T10:12:05Z</time>
      </trkpt>
      <trkpt lat="43.95555" lon="7.38054">
        <ele>1506.0424804688</ele>
        <time>2013-04-14T10:12:12Z</time>
      </trkpt>
      <trkpt lat="43.95562" lon="7.3804">
        <ele>1503.6394042969</ele>
        <time>2013-04-14T10:12:17Z</time>
      </trkpt>
      <trkpt lat="43.95568" lon="7.38026">
        <ele>1501.2360839844</ele>
        <time>2013-04-14T10:12:22Z</time>
      </trkpt>
      <trkpt lat="43.95579" lon="7.38005">
        <ele>1497.390625</ele>
        <time>2013-04-14T10:12:31Z</time>
      </trkpt>
      <trkpt lat="43.95579" lon="7.38004">
        <ele>1497.390625</ele>
        <time>2013-04-14T10:12:32Z</time>
      </trkpt>
      <trkpt lat="43.95584" lon="7.37988">
        <ele>1494.0261230469</ele>
        <time>2013-04-14T10:12:40Z</time>
      </trkpt>
      <trkpt lat="43.95588" lon="7.37971">
        <ele>1493.5454101562</ele>
        <time>2013-04-14T10:12:45Z</time>
      </trkpt>
      <trkpt lat="43.95598" lon="7.37948">
        <ele>1490.1809082031</ele>
        <time>2013-04-14T10:12:58Z</time>
      </trkpt>
      <trkpt lat="43.95607" lon="7.37963">
        <ele>1485.3742675781</ele>
        <time>2013-04-14T10:13:09Z</time>
      </trkpt>
      <trkpt lat="43.95607" lon="7.37967">
        <ele>1485.3742675781</ele>
        <time>2013-04-14T10:13:10Z</time>
      </trkpt>
      <trkpt lat="43.9561" lon="7.37982">
        <ele>1482.970703125</ele>
        <time>2013-04-14T10:13:16Z</time>
      </trkpt>
      <trkpt lat="43.95613" lon="7.37996">
        <ele>1479.1254882812</ele>
        <time>2013-04-14T10:13:21Z</time>
      </trkpt>
      <trkpt lat="43.95613" lon="7.38001">
        <ele>1478.1643066406</ele>
        <time>2013-04-14T10:13:23Z</time>
      </trkpt>
      <trkpt lat="43.95611" lon="7.38013">
        <ele>1475.2802734375</ele>
        <time>2013-04-14T10:13:27Z</time>
      </trkpt>
      <trkpt lat="43.95609" lon="7.38032">
        <ele>1473.3579101562</ele>
        <time>2013-04-14T10:13:31Z</time>
      </trkpt>
      <trkpt lat="43.9561" lon="7.3804">
        <ele>1472.396484375</ele>
        <time>2013-04-14T10:13:33Z</time>
      </trkpt>
      <trkpt lat="43.9561" lon="7.38045">
        <ele>1472.396484375</ele>
        <time>2013-04-14T10:13:35Z</time>
      </trkpt>
      <trkpt lat="43.95609" lon="7.38058">
        <ele>1473.3579101562</ele>
        <time>2013-04-14T10:13:40Z</time>
      </trkpt>
      <trkpt lat="43.95606" lon="7.3807">
        <ele>1473.8383789062</ele>
        <time>2013-04-14T10:13:46Z</time>
      </trkpt>
      <trkpt lat="43.95607" lon="7.38075">
        <ele>1473.3579101562</ele>
        <time>2013-04-14T10:13:48Z</time>
      </trkpt>
      <trkpt lat="43.95606" lon="7.38081">
        <ele>1471.9157714844</ele>
        <time>2013-04-14T10:13:50Z</time>
      </trkpt>
      <trkpt lat="43.95606" lon="7.38091">
        <ele>1470.4738769531</ele>
        <time>2013-04-14T10:13:52Z</time>
      </trkpt>
      <trkpt lat="43.95606" lon="7.38096">
        <ele>1469.0319824219</ele>
        <time>2013-04-14T10:13:54Z</time>
      </trkpt>
      <trkpt lat="43.95604" lon="7.3812">
        <ele>1466.1477050781</ele>
        <time>2013-04-14T10:14:00Z</time>
      </trkpt>
      <trkpt lat="43.95602" lon="7.38132">
        <ele>1465.1865234375</ele>
        <time>2013-04-14T10:14:04Z</time>
      </trkpt>
      <trkpt lat="43.95594" lon="7.3815">
        <ele>1465.1865234375</ele>
        <time>2013-04-14T10:14:10Z</time>
      </trkpt>
      <trkpt lat="43.95584" lon="7.38183">
        <ele>1464.2250976562</ele>
        <time>2013-04-14T10:14:21Z</time>
      </trkpt>
      <trkpt lat="43.95571" lon="7.38196">
        <ele>1461.8220214844</ele>
        <time>2013-04-14T10:14:28Z</time>
      </trkpt>
      <trkpt lat="43.95562" lon="7.38211">
        <ele>1459.4187011719</ele>
        <time>2013-04-14T10:14:32Z</time>
      </trkpt>
      <trkpt lat="43.95557" lon="7.38232">
        <ele>1456.5346679688</ele>
        <time>2013-04-14T10:14:38Z</time>
      </trkpt>
      <trkpt lat="43.95541" lon="7.38282">
        <ele>1455.0927734375</ele>
        <time>2013-04-14T10:14:49Z</time>
      </trkpt>
      <trkpt lat="43.95549" lon="7.38353">
        <ele>1453.1701660156</ele>
        <time>2013-04-14T10:15:04Z</time>
      </trkpt>
      <trkpt lat="43.95553" lon="7.38406">
        <ele>1449.8054199219</ele>
        <time>2013-04-14T10:15:17Z</time>
      </trkpt>
      <trkpt lat="43.95552" lon="7.3841">
        <ele>1449.8054199219</ele>
        <time>2013-04-14T10:15:18Z</time>
      </trkpt>
      <trkpt lat="43.95532" lon="7.38451">
        <ele>1447.8828125</ele>
        <time>2013-04-14T10:15:31Z</time>
      </trkpt>
      <trkpt lat="43.95525" lon="7.38459">
        <ele>1447.4020996094</ele>
        <time>2013-04-14T10:15:35Z</time>
      </trkpt>
      <trkpt lat="43.95495" lon="7.38499">
        <ele>1445.9602050781</ele>
        <time>2013-04-14T10:15:47Z</time>
      </trkpt>
      <trkpt lat="43.95483" lon="7.38552">
        <ele>1443.076171875</ele>
        <time>2013-04-14T10:16:00Z</time>
      </trkpt>
      <trkpt lat="43.95464" lon="7.38586">
        <ele>1439.7116699219</ele>
        <time>2013-04-14T10:16:12Z</time>
      </trkpt>
      <trkpt lat="43.95452" lon="7.38614">
        <ele>1435.8662109375</ele>
        <time>2013-04-14T10:16:21Z</time>
      </trkpt>
      <trkpt lat="43.95452" lon="7.38614">
        <ele>1435.8662109375</ele>
        <time>2013-04-14T10:16:22Z</time>
      </trkpt>
      <trkpt lat="43.95447" lon="7.38618">
        <ele>1433.9436035156</ele>
        <time>2013-04-14T10:16:25Z</time>
      </trkpt>
      <trkpt lat="43.95447" lon="7.38618">
        <ele>1432.9821777344</ele>
        <time>2013-04-14T10:16:26Z</time>
      </trkpt>
      <trkpt lat="43.95443" lon="7.38619">
        <ele>1431.5402832031</ele>
        <time>2013-04-14T10:16:29Z</time>
      </trkpt>
      <trkpt lat="43.9543" lon="7.38622">
        <ele>1429.6176757812</ele>
        <time>2013-04-14T10:16:32Z</time>
      </trkpt>
      <trkpt lat="43.95424" lon="7.3864">
        <ele>1428.17578125</ele>
        <time>2013-04-14T10:16:34Z</time>
      </trkpt>
      <trkpt lat="43.9541" lon="7.38654">
        <ele>1426.2531738281</ele>
        <time>2013-04-14T10:16:39Z</time>
      </trkpt>
      <trkpt lat="43.95399" lon="7.3867">
        <ele>1422.888671875</ele>
        <time>2013-04-14T10:16:44Z</time>
      </trkpt>
      <trkpt lat="43.9539" lon="7.38685">
        <ele>1421.4465332031</ele>
        <time>2013-04-14T10:16:46Z</time>
      </trkpt>
      <trkpt lat="43.95389" lon="7.38689">
        <ele>1420.9660644531</ele>
        <time>2013-04-14T10:16:47Z</time>
      </trkpt>
      <trkpt lat="43.95378" lon="7.38721">
        <ele>1417.6010742188</ele>
        <time>2013-04-14T10:16:56Z</time>
      </trkpt>
      <trkpt lat="43.95372" lon="7.38736">
        <ele>1416.6398925781</ele>
        <time>2013-04-14T10:17:02Z</time>
      </trkpt>
      <trkpt lat="43.95355" lon="7.38768">
        <ele>1412.7946777344</ele>
        <time>2013-04-14T10:17:14Z</time>
      </trkpt>
      <trkpt lat="43.95348" lon="7.38771">
        <ele>1411.3527832031</ele>
        <time>2013-04-14T10:17:19Z</time>
      </trkpt>
      <trkpt lat="43.95347" lon="7.38772">
        <ele>1409.4301757812</ele>
        <time>2013-04-14T10:17:23Z</time>
      </trkpt>
      <trkpt lat="43.95347" lon="7.38772">
        <ele>1407.98828125</ele>
        <time>2013-04-14T10:17:25Z</time>
      </trkpt>
      <trkpt lat="43.95324" lon="7.38777">
        <ele>1404.1430664062</ele>
        <time>2013-04-14T10:17:34Z</time>
      </trkpt>
      <trkpt lat="43.95324" lon="7.38777">
        <ele>1402.7006835938</ele>
        <time>2013-04-14T10:17:36Z</time>
      </trkpt>
      <trkpt lat="43.95306" lon="7.38811">
        <ele>1399.3361816406</ele>
        <time>2013-04-14T10:17:43Z</time>
      </trkpt>
      <trkpt lat="43.95305" lon="7.38811">
        <ele>1399.3361816406</ele>
        <time>2013-04-14T10:17:44Z</time>
      </trkpt>
      <trkpt lat="43.95276" lon="7.38826">
        <ele>1395.9716796875</ele>
        <time>2013-04-14T10:17:53Z</time>
      </trkpt>
      <trkpt lat="43.95267" lon="7.38829">
        <ele>1394.5295410156</ele>
        <time>2013-04-14T10:17:56Z</time>
      </trkpt>
      <trkpt lat="43.95249" lon="7.38838">
        <ele>1392.1264648438</ele>
        <time>2013-04-14T10:18:00Z</time>
      </trkpt>
      <trkpt lat="43.95241" lon="7.38846">
        <ele>1389.7231445312</ele>
        <time>2013-04-14T10:18:03Z</time>
      </trkpt>
      <trkpt lat="43.95229" lon="7.38858">
        <ele>1387.3195800781</ele>
        <time>2013-04-14T10:18:07Z</time>
      </trkpt>
      <trkpt lat="43.95219" lon="7.38868">
        <ele>1385.3969726562</ele>
        <time>2013-04-14T10:18:11Z</time>
      </trkpt>
      <trkpt lat="43.95207" lon="7.38879">
        <ele>1383.4743652344</ele>
        <time>2013-04-14T10:18:15Z</time>
      </trkpt>
      <trkpt lat="43.95202" lon="7.38882">
        <ele>1382.0324707031</ele>
        <time>2013-04-14T10:18:17Z</time>
      </trkpt>
      <trkpt lat="43.95197" lon="7.38885">
        <ele>1380.5905761719</ele>
        <time>2013-04-14T10:18:19Z</time>
      </trkpt>
      <trkpt lat="43.95188" lon="7.38897">
        <ele>1378.66796875</ele>
        <time>2013-04-14T10:18:22Z</time>
      </trkpt>
      <trkpt lat="43.95182" lon="7.38906">
        <ele>1376.7453613281</ele>
        <time>2013-04-14T10:18:24Z</time>
      </trkpt>
      <trkpt lat="43.95177" lon="7.38913">
        <ele>1375.3032226562</ele>
        <time>2013-04-14T10:18:26Z</time>
      </trkpt>
      <trkpt lat="43.95165" lon="7.38933">
        <ele>1372.4194335938</ele>
        <time>2013-04-14T10:18:32Z</time>
      </trkpt>
      <trkpt lat="43.95166" lon="7.3894">
        <ele>1370.9772949219</ele>
        <time>2013-04-14T10:18:34Z</time>
      </trkpt>
      <trkpt lat="43.95164" lon="7.38943">
        <ele>1369.5354003906</ele>
        <time>2013-04-14T10:18:35Z</time>
      </trkpt>
      <trkpt lat="43.95157" lon="7.38953">
        <ele>1368.5739746094</ele>
        <time>2013-04-14T10:18:38Z</time>
      </trkpt>
      <trkpt lat="43.95153" lon="7.38963">
        <ele>1367.1320800781</ele>
        <time>2013-04-14T10:18:40Z</time>
      </trkpt>
      <trkpt lat="43.9515" lon="7.38973">
        <ele>1364.248046875</ele>
        <time>2013-04-14T10:18:43Z</time>
      </trkpt>
      <trkpt lat="43.95138" lon="7.39001">
        <ele>1359.9221191406</ele>
        <time>2013-04-14T10:18:50Z</time>
      </trkpt>
      <trkpt lat="43.95136" lon="7.39004">
        <ele>1359.9221191406</ele>
        <time>2013-04-14T10:18:51Z</time>
      </trkpt>
      <trkpt lat="43.95134" lon="7.39011">
        <ele>1358.9609375</ele>
        <time>2013-04-14T10:18:53Z</time>
      </trkpt>
      <trkpt lat="43.95134" lon="7.39015">
        <ele>1357.5190429688</ele>
        <time>2013-04-14T10:18:54Z</time>
      </trkpt>
      <trkpt lat="43.95133" lon="7.39026">
        <ele>1355.5961914062</ele>
        <time>2013-04-14T10:18:57Z</time>
      </trkpt>
      <trkpt lat="43.95132" lon="7.39037">
        <ele>1354.154296875</ele>
        <time>2013-04-14T10:18:59Z</time>
      </trkpt>
      <trkpt lat="43.9513" lon="7.39045">
        <ele>1350.7895507812</ele>
        <time>2013-04-14T10:19:01Z</time>
      </trkpt>
      <trkpt lat="43.9513" lon="7.39048">
        <ele>1350.7895507812</ele>
        <time>2013-04-14T10:19:02Z</time>
      </trkpt>
      <trkpt lat="43.95129" lon="7.39051">
        <ele>1349.34765625</ele>
        <time>2013-04-14T10:19:03Z</time>
      </trkpt>
      <trkpt lat="43.95127" lon="7.39062">
        <ele>1347.9057617188</ele>
        <time>2013-04-14T10:19:06Z</time>
      </trkpt>
      <trkpt lat="43.95125" lon="7.39079">
        <ele>1345.5024414062</ele>
        <time>2013-04-14T10:19:10Z</time>
      </trkpt>
      <trkpt lat="43.95123" lon="7.39088">
        <ele>1343.5798339844</ele>
        <time>2013-04-14T10:19:12Z</time>
      </trkpt>
      <trkpt lat="43.95119" lon="7.39107">
        <ele>1341.1765136719</ele>
        <time>2013-04-14T10:19:17Z</time>
      </trkpt>
      <trkpt lat="43.95122" lon="7.39124">
        <ele>1336.3698730469</ele>
        <time>2013-04-14T10:19:22Z</time>
      </trkpt>
      <trkpt lat="43.95122" lon="7.39129">
        <ele>1336.3698730469</ele>
        <time>2013-04-14T10:19:23Z</time>
      </trkpt>
      <trkpt lat="43.95122" lon="7.39131">
        <ele>1334.447265625</ele>
        <time>2013-04-14T10:19:24Z</time>
      </trkpt>
      <trkpt lat="43.95121" lon="7.39148">
        <ele>1332.0439453125</ele>
        <time>2013-04-14T10:19:29Z</time>
      </trkpt>
      <trkpt lat="43.9512" lon="7.39155">
        <ele>1330.1213378906</ele>
        <time>2013-04-14T10:19:31Z</time>
      </trkpt>
      <trkpt lat="43.9512" lon="7.39161">
        <ele>1328.1987304688</ele>
        <time>2013-04-14T10:19:33Z</time>
      </trkpt>
      <trkpt lat="43.9512" lon="7.39177">
        <ele>1325.7954101562</ele>
        <time>2013-04-14T10:19:36Z</time>
      </trkpt>
      <trkpt lat="43.95119" lon="7.39189">
        <ele>1324.353515625</ele>
        <time>2013-04-14T10:19:39Z</time>
      </trkpt>
      <trkpt lat="43.95117" lon="7.39198">
        <ele>1321.4692382812</ele>
        <time>2013-04-14T10:19:42Z</time>
      </trkpt>
      <trkpt lat="43.95109" lon="7.39207">
        <ele>1318.5854492188</ele>
        <time>2013-04-14T10:19:46Z</time>
      </trkpt>
      <trkpt lat="43.95108" lon="7.3921">
        <ele>1317.6240234375</ele>
        <time>2013-04-14T10:19:47Z</time>
      </trkpt>
      <trkpt lat="43.951" lon="7.39219">
        <ele>1315.2209472656</ele>
        <time>2013-04-14T10:19:52Z</time>
      </trkpt>
      <trkpt lat="43.95089" lon="7.39222">
        <ele>1311.8564453125</ele>
        <time>2013-04-14T10:19:58Z</time>
      </trkpt>
      <trkpt lat="43.95079" lon="7.39229">
        <ele>1308.4916992188</ele>
        <time>2013-04-14T10:20:02Z</time>
      </trkpt>
      <trkpt lat="43.95077" lon="7.3923">
        <ele>1308.4916992188</ele>
        <time>2013-04-14T10:20:03Z</time>
      </trkpt>
      <trkpt lat="43.95073" lon="7.39235">
        <ele>1307.0495605469</ele>
        <time>2013-04-14T10:20:05Z</time>
      </trkpt>
      <trkpt lat="43.95064" lon="7.39242">
        <ele>1304.6462402344</ele>
        <time>2013-04-14T10:20:09Z</time>
      </trkpt>
      <trkpt lat="43.95051" lon="7.39257">
        <ele>1301.7624511719</ele>
        <time>2013-04-14T10:20:16Z</time>
      </trkpt>
      <trkpt lat="43.95056" lon="7.39257">
        <ele>1299.83984375</ele>
        <time>2013-04-14T10:20:19Z</time>
      </trkpt>
      <trkpt lat="43.95058" lon="7.3926">
        <ele>1297.9172363281</ele>
        <time>2013-04-14T10:20:22Z</time>
      </trkpt>
      <trkpt lat="43.95057" lon="7.39259">
        <ele>1296.9558105469</ele>
        <time>2013-04-14T10:20:24Z</time>
      </trkpt>
      <trkpt lat="43.95057" lon="7.39258">
        <ele>1295.5139160156</ele>
        <time>2013-04-14T10:20:25Z</time>
      </trkpt>
      <trkpt lat="43.95052" lon="7.39265">
        <ele>1293.5913085938</ele>
        <time>2013-04-14T10:20:28Z</time>
      </trkpt>
      <trkpt lat="43.95046" lon="7.39269">
        <ele>1292.6301269531</ele>
        <time>2013-04-14T10:20:30Z</time>
      </trkpt>
      <trkpt lat="43.95033" lon="7.39277">
        <ele>1289.2651367188</ele>
        <time>2013-04-14T10:20:35Z</time>
      </trkpt>
      <trkpt lat="43.95018" lon="7.39287">
        <ele>1286.3813476562</ele>
        <time>2013-04-14T10:20:40Z</time>
      </trkpt>
      <trkpt lat="43.95016" lon="7.3929">
        <ele>1286.3813476562</ele>
        <time>2013-04-14T10:20:41Z</time>
      </trkpt>
      <trkpt lat="43.95008" lon="7.393">
        <ele>1283.9780273438</ele>
        <time>2013-04-14T10:20:45Z</time>
      </trkpt>
      <trkpt lat="43.95007" lon="7.39302">
        <ele>1283.0166015625</ele>
        <time>2013-04-14T10:20:46Z</time>
      </trkpt>
      <trkpt lat="43.95005" lon="7.39313">
        <ele>1281.5747070312</ele>
        <time>2013-04-14T10:20:49Z</time>
      </trkpt>
      <trkpt lat="43.94998" lon="7.39327">
        <ele>1277.7294921875</ele>
        <time>2013-04-14T10:20:54Z</time>
      </trkpt>
      <trkpt lat="43.94993" lon="7.39343">
        <ele>1275.3259277344</ele>
        <time>2013-04-14T10:20:59Z</time>
      </trkpt>
      <trkpt lat="43.94992" lon="7.39351">
        <ele>1271.9614257812</ele>
        <time>2013-04-14T10:21:01Z</time>
      </trkpt>
      <trkpt lat="43.94988" lon="7.39357">
        <ele>1270.0388183594</ele>
        <time>2013-04-14T10:21:04Z</time>
      </trkpt>
      <trkpt lat="43.94976" lon="7.39385">
        <ele>1264.7517089844</ele>
        <time>2013-04-14T10:21:13Z</time>
      </trkpt>
      <trkpt lat="43.94974" lon="7.39389">
        <ele>1264.7517089844</ele>
        <time>2013-04-14T10:21:14Z</time>
      </trkpt>
      <trkpt lat="43.94974" lon="7.39392">
        <ele>1263.7902832031</ele>
        <time>2013-04-14T10:21:15Z</time>
      </trkpt>
      <trkpt lat="43.94973" lon="7.39399">
        <ele>1262.3483886719</ele>
        <time>2013-04-14T10:21:18Z</time>
      </trkpt>
      <trkpt lat="43.94967" lon="7.39408">
        <ele>1259.4643554688</ele>
        <time>2013-04-14T10:21:21Z</time>
      </trkpt>
      <trkpt lat="43.94957" lon="7.39425">
        <ele>1257.0610351562</ele>
        <time>2013-04-14T10:21:27Z</time>
      </trkpt>
      <trkpt lat="43.94938" lon="7.39461">
        <ele>1254.1772460938</ele>
        <time>2013-04-14T10:21:38Z</time>
      </trkpt>
      <trkpt lat="43.94934" lon="7.39469">
        <ele>1253.2158203125</ele>
        <time>2013-04-14T10:21:40Z</time>
      </trkpt>
      <trkpt lat="43.94932" lon="7.3948">
        <ele>1252.2543945312</ele>
        <time>2013-04-14T10:21:44Z</time>
      </trkpt>
      <trkpt lat="43.94921" lon="7.39527">
        <ele>1248.8898925781</ele>
        <time>2013-04-14T10:21:55Z</time>
      </trkpt>
      <trkpt lat="43.94912" lon="7.39562">
        <ele>1245.525390625</ele>
        <time>2013-04-14T10:22:02Z</time>
      </trkpt>
      <trkpt lat="43.94912" lon="7.39567">
        <ele>1245.525390625</ele>
        <time>2013-04-14T10:22:03Z</time>
      </trkpt>
      <trkpt lat="43.94912" lon="7.39587">
        <ele>1242.1606445312</ele>
        <time>2013-04-14T10:22:08Z</time>
      </trkpt>
      <trkpt lat="43.94911" lon="7.39593">
        <ele>1242.1606445312</ele>
        <time>2013-04-14T10:22:09Z</time>
      </trkpt>
      <trkpt lat="43.9491" lon="7.396">
        <ele>1241.19921875</ele>
        <time>2013-04-14T10:22:11Z</time>
      </trkpt>
      <trkpt lat="43.9491" lon="7.39607">
        <ele>1240.2380371094</ele>
        <time>2013-04-14T10:22:13Z</time>
      </trkpt>
      <trkpt lat="43.94904" lon="7.39622">
        <ele>1237.3540039062</ele>
        <time>2013-04-14T10:22:17Z</time>
      </trkpt>
      <trkpt lat="43.94902" lon="7.3963">
        <ele>1235.912109375</ele>
        <time>2013-04-14T10:22:19Z</time>
      </trkpt>
      <trkpt lat="43.94902" lon="7.39637">
        <ele>1232.0668945312</ele>
        <time>2013-04-14T10:22:21Z</time>
      </trkpt>
      <trkpt lat="43.94902" lon="7.39639">
        <ele>1232.0668945312</ele>
        <time>2013-04-14T10:22:22Z</time>
      </trkpt>
      <trkpt lat="43.94902" lon="7.39651">
        <ele>1229.6635742188</ele>
        <time>2013-04-14T10:22:26Z</time>
      </trkpt>
      <trkpt lat="43.94897" lon="7.39664">
        <ele>1226.7795410156</ele>
        <time>2013-04-14T10:22:30Z</time>
      </trkpt>
      <trkpt lat="43.94896" lon="7.3967">
        <ele>1225.8181152344</ele>
        <time>2013-04-14T10:22:32Z</time>
      </trkpt>
      <trkpt lat="43.94896" lon="7.39679">
        <ele>1224.3762207031</ele>
        <time>2013-04-14T10:22:34Z</time>
      </trkpt>
      <trkpt lat="43.94894" lon="7.39698">
        <ele>1222.4536132812</ele>
        <time>2013-04-14T10:22:38Z</time>
      </trkpt>
      <trkpt lat="43.94892" lon="7.39707">
        <ele>1221.01171875</ele>
        <time>2013-04-14T10:22:40Z</time>
      </trkpt>
      <trkpt lat="43.94891" lon="7.39719">
        <ele>1218.1276855469</ele>
        <time>2013-04-14T10:22:43Z</time>
      </trkpt>
      <trkpt lat="43.94891" lon="7.3973">
        <ele>1215.2438964844</ele>
        <time>2013-04-14T10:22:46Z</time>
      </trkpt>
      <trkpt lat="43.94895" lon="7.39732">
        <ele>1215.2438964844</ele>
        <time>2013-04-14T10:22:47Z</time>
      </trkpt>
      <trkpt lat="43.94903" lon="7.39744">
        <ele>1212.8405761719</ele>
        <time>2013-04-14T10:22:51Z</time>
      </trkpt>
      <trkpt lat="43.94907" lon="7.39752">
        <ele>1210.9177246094</ele>
        <time>2013-04-14T10:22:55Z</time>
      </trkpt>
      <trkpt lat="43.94908" lon="7.39756">
        <ele>1208.0339355469</ele>
        <time>2013-04-14T10:22:59Z</time>
      </trkpt>
      <trkpt lat="43.94911" lon="7.39757">
        <ele>1205.6306152344</ele>
        <time>2013-04-14T10:23:01Z</time>
      </trkpt>
      <trkpt lat="43.94925" lon="7.39758">
        <ele>1203.2272949219</ele>
        <time>2013-04-14T10:23:05Z</time>
      </trkpt>
      <trkpt lat="43.94929" lon="7.39761">
        <ele>1201.7854003906</ele>
        <time>2013-04-14T10:23:08Z</time>
      </trkpt>
      <trkpt lat="43.94935" lon="7.39764">
        <ele>1200.3435058594</ele>
        <time>2013-04-14T10:23:10Z</time>
      </trkpt>
      <trkpt lat="43.94943" lon="7.39774">
        <ele>1198.9013671875</ele>
        <time>2013-04-14T10:23:12Z</time>
      </trkpt>
      <trkpt lat="43.94946" lon="7.3978">
        <ele>1196.4982910156</ele>
        <time>2013-04-14T10:23:16Z</time>
      </trkpt>
      <trkpt lat="43.94948" lon="7.39784">
        <ele>1195.0559082031</ele>
        <time>2013-04-14T10:23:18Z</time>
      </trkpt>
      <trkpt lat="43.94948" lon="7.39785">
        <ele>1193.1333007812</ele>
        <time>2013-04-14T10:23:19Z</time>
      </trkpt>
      <trkpt lat="43.94953" lon="7.398">
        <ele>1190.7299804688</ele>
        <time>2013-04-14T10:23:23Z</time>
      </trkpt>
      <trkpt lat="43.94955" lon="7.39801">
        <ele>1188.8076171875</ele>
        <time>2013-04-14T10:23:25Z</time>
      </trkpt>
      <trkpt lat="43.94958" lon="7.39802">
        <ele>1187.3654785156</ele>
        <time>2013-04-14T10:23:26Z</time>
      </trkpt>
      <trkpt lat="43.94964" lon="7.39806">
        <ele>1185.9235839844</ele>
        <time>2013-04-14T10:23:29Z</time>
      </trkpt>
      <trkpt lat="43.94965" lon="7.39808">
        <ele>1184.4816894531</ele>
        <time>2013-04-14T10:23:31Z</time>
      </trkpt>
      <trkpt lat="43.94971" lon="7.39815">
        <ele>1181.59765625</ele>
        <time>2013-04-14T10:23:36Z</time>
      </trkpt>
      <trkpt lat="43.94973" lon="7.39819">
        <ele>1181.59765625</ele>
        <time>2013-04-14T10:23:37Z</time>
      </trkpt>
      <trkpt lat="43.94975" lon="7.39825">
        <ele>1179.6748046875</ele>
        <time>2013-04-14T10:23:39Z</time>
      </trkpt>
      <trkpt lat="43.94987" lon="7.39837">
        <ele>1177.7521972656</ele>
        <time>2013-04-14T10:23:42Z</time>
      </trkpt>
      <trkpt lat="43.94987" lon="7.39849">
        <ele>1176.791015625</ele>
        <time>2013-04-14T10:23:44Z</time>
      </trkpt>
      <trkpt lat="43.94989" lon="7.39862">
        <ele>1174.8684082031</ele>
        <time>2013-04-14T10:23:46Z</time>
      </trkpt>
      <trkpt lat="43.94991" lon="7.39866">
        <ele>1173.4265136719</ele>
        <time>2013-04-14T10:23:48Z</time>
      </trkpt>
      <trkpt lat="43.94995" lon="7.39891">
        <ele>1171.5036621094</ele>
        <time>2013-04-14T10:23:52Z</time>
      </trkpt>
      <trkpt lat="43.95" lon="7.39898">
        <ele>1170.0617675781</ele>
        <time>2013-04-14T10:23:54Z</time>
      </trkpt>
      <trkpt lat="43.94998" lon="7.39908">
        <ele>1167.6584472656</ele>
        <time>2013-04-14T10:23:58Z</time>
      </trkpt>
      <trkpt lat="43.94994" lon="7.39921">
        <ele>1163.8129882812</ele>
        <time>2013-04-14T10:24:02Z</time>
      </trkpt>
      <trkpt lat="43.95003" lon="7.39929">
        <ele>1163.8129882812</ele>
        <time>2013-04-14T10:24:03Z</time>
      </trkpt>
      <trkpt lat="43.95025" lon="7.39963">
        <ele>1160.9291992188</ele>
        <time>2013-04-14T10:24:12Z</time>
      </trkpt>
      <trkpt lat="43.95027" lon="7.39967">
        <ele>1160.4484863281</ele>
        <time>2013-04-14T10:24:14Z</time>
      </trkpt>
      <trkpt lat="43.95029" lon="7.39971">
        <ele>1160.4484863281</ele>
        <time>2013-04-14T10:24:20Z</time>
      </trkpt>
      <trkpt lat="43.95009" lon="7.3997">
        <ele>1158.0454101562</ele>
        <time>2013-04-14T10:24:24Z</time>
      </trkpt>
      <trkpt lat="43.94993" lon="7.39987">
        <ele>1156.6032714844</ele>
        <time>2013-04-14T10:24:31Z</time>
      </trkpt>
      <trkpt lat="43.94987" lon="7.39988">
        <ele>1156.1225585938</ele>
        <time>2013-04-14T10:24:33Z</time>
      </trkpt>
      <trkpt lat="43.94972" lon="7.39993">
        <ele>1155.1613769531</ele>
        <time>2013-04-14T10:24:39Z</time>
      </trkpt>
      <trkpt lat="43.94955" lon="7.40002">
        <ele>1152.7580566406</ele>
        <time>2013-04-14T10:24:45Z</time>
      </trkpt>
      <trkpt lat="43.94943" lon="7.40011">
        <ele>1150.3549804688</ele>
        <time>2013-04-14T10:24:51Z</time>
      </trkpt>
      <trkpt lat="43.94927" lon="7.40057">
        <ele>1149.3935546875</ele>
        <time>2013-04-14T10:25:03Z</time>
      </trkpt>
      <trkpt lat="43.94926" lon="7.4006">
        <ele>1149.3935546875</ele>
        <time>2013-04-14T10:25:04Z</time>
      </trkpt>
      <trkpt lat="43.94925" lon="7.40064">
        <ele>1148.4321289062</ele>
        <time>2013-04-14T10:25:08Z</time>
      </trkpt>
      <trkpt lat="43.94925" lon="7.40064">
        <ele>1147.9514160156</ele>
        <time>2013-04-14T10:25:10Z</time>
      </trkpt>
      <trkpt lat="43.94919" lon="7.40086">
        <ele>1146.5095214844</ele>
        <time>2013-04-14T10:25:15Z</time>
      </trkpt>
      <trkpt lat="43.94899" lon="7.40161">
        <ele>1145.0673828125</ele>
        <time>2013-04-14T10:25:27Z</time>
      </trkpt>
      <trkpt lat="43.94896" lon="7.40175">
        <ele>1144.1062011719</ele>
        <time>2013-04-14T10:25:32Z</time>
      </trkpt>
      <trkpt lat="43.94886" lon="7.4018">
        <ele>1143.1447753906</ele>
        <time>2013-04-14T10:25:38Z</time>
      </trkpt>
      <trkpt lat="43.9487" lon="7.40182">
        <ele>1140.2609863281</ele>
        <time>2013-04-14T10:25:44Z</time>
      </trkpt>
      <trkpt lat="43.94845" lon="7.40183">
        <ele>1136.4157714844</ele>
        <time>2013-04-14T10:25:51Z</time>
      </trkpt>
      <trkpt lat="43.94845" lon="7.40184">
        <ele>1136.4157714844</ele>
        <time>2013-04-14T10:25:52Z</time>
      </trkpt>
      <trkpt lat="43.94843" lon="7.40186">
        <ele>1134.9738769531</ele>
        <time>2013-04-14T10:25:53Z</time>
      </trkpt>
      <trkpt lat="43.94851" lon="7.40223">
        <ele>1131.6088867188</ele>
        <time>2013-04-14T10:26:02Z</time>
      </trkpt>
      <trkpt lat="43.94852" lon="7.40227">
        <ele>1131.6088867188</ele>
        <time>2013-04-14T10:26:03Z</time>
      </trkpt>
      <trkpt lat="43.94852" lon="7.40245">
        <ele>1129.6862792969</ele>
        <time>2013-04-14T10:26:07Z</time>
      </trkpt>
      <trkpt lat="43.94852" lon="7.40253">
        <ele>1128.7250976562</ele>
        <time>2013-04-14T10:26:09Z</time>
      </trkpt>
      <trkpt lat="43.94853" lon="7.40263">
        <ele>1126.3217773438</ele>
        <time>2013-04-14T10:26:12Z</time>
      </trkpt>
      <trkpt lat="43.94853" lon="7.40281">
        <ele>1124.3991699219</ele>
        <time>2013-04-14T10:26:17Z</time>
      </trkpt>
      <trkpt lat="43.94849" lon="7.40293">
        <ele>1123.9184570312</ele>
        <time>2013-04-14T10:26:23Z</time>
      </trkpt>
      <trkpt lat="43.94847" lon="7.403">
        <ele>1121.9958496094</ele>
        <time>2013-04-14T10:26:28Z</time>
      </trkpt>
      <trkpt lat="43.94834" lon="7.40334">
        <ele>1120.5539550781</ele>
        <time>2013-04-14T10:26:38Z</time>
      </trkpt>
      <trkpt lat="43.94827" lon="7.40349">
        <ele>1119.1120605469</ele>
        <time>2013-04-14T10:26:42Z</time>
      </trkpt>
      <trkpt lat="43.94819" lon="7.40364">
        <ele>1115.2666015625</ele>
        <time>2013-04-14T10:26:48Z</time>
      </trkpt>
      <trkpt lat="43.94818" lon="7.40367">
        <ele>1115.2666015625</ele>
        <time>2013-04-14T10:26:49Z</time>
      </trkpt>
      <trkpt lat="43.94813" lon="7.40376">
        <ele>1114.7858886719</ele>
        <time>2013-04-14T10:26:52Z</time>
      </trkpt>
      <trkpt lat="43.94812" lon="7.40378">
        <ele>1115.2666015625</ele>
        <time>2013-04-14T10:26:55Z</time>
      </trkpt>
      <trkpt lat="43.94812" lon="7.40378">
        <ele>1113.8244628906</ele>
        <time>2013-04-14T10:27:00Z</time>
      </trkpt>
      <trkpt lat="43.94804" lon="7.40401">
        <ele>1110.9406738281</ele>
        <time>2013-04-14T10:27:05Z</time>
      </trkpt>
      <trkpt lat="43.94802" lon="7.40406">
        <ele>1107.0954589844</ele>
        <time>2013-04-14T10:27:11Z</time>
      </trkpt>
      <trkpt lat="43.94802" lon="7.40406">
        <ele>1107.0954589844</ele>
        <time>2013-04-14T10:27:12Z</time>
      </trkpt>
      <trkpt lat="43.948" lon="7.40411">
        <ele>1105.6535644531</ele>
        <time>2013-04-14T10:27:14Z</time>
      </trkpt>
      <trkpt lat="43.94798" lon="7.40417">
        <ele>1103.2502441406</ele>
        <time>2013-04-14T10:27:17Z</time>
      </trkpt>
      <trkpt lat="43.94786" lon="7.40435">
        <ele>1102.2888183594</ele>
        <time>2013-04-14T10:27:19Z</time>
      </trkpt>
      <trkpt lat="43.94777" lon="7.4044">
        <ele>1099.4047851562</ele>
        <time>2013-04-14T10:27:23Z</time>
      </trkpt>
      <trkpt lat="43.94773" lon="7.40441">
        <ele>1096.5209960938</ele>
        <time>2013-04-14T10:27:26Z</time>
      </trkpt>
      <trkpt lat="43.94771" lon="7.40442">
        <ele>1095.5595703125</ele>
        <time>2013-04-14T10:27:28Z</time>
      </trkpt>
      <trkpt lat="43.94772" lon="7.40442">
        <ele>1092.67578125</ele>
        <time>2013-04-14T10:27:32Z</time>
      </trkpt>
      <trkpt lat="43.94764" lon="7.40447">
        <ele>1091.2336425781</ele>
        <time>2013-04-14T10:27:36Z</time>
      </trkpt>
      <trkpt lat="43.94766" lon="7.4046">
        <ele>1090.2724609375</ele>
        <time>2013-04-14T10:27:40Z</time>
      </trkpt>
      <trkpt lat="43.94765" lon="7.40465">
        <ele>1088.8305664062</ele>
        <time>2013-04-14T10:27:41Z</time>
      </trkpt>
      <trkpt lat="43.94763" lon="7.40475">
        <ele>1087.3884277344</ele>
        <time>2013-04-14T10:27:44Z</time>
      </trkpt>
      <trkpt lat="43.94762" lon="7.40485">
        <ele>1084.9853515625</ele>
        <time>2013-04-14T10:27:47Z</time>
      </trkpt>
      <trkpt lat="43.94724" lon="7.40487">
        <ele>1082.5817871094</ele>
        <time>2013-04-14T10:27:51Z</time>
      </trkpt>
      <trkpt lat="43.94719" lon="7.40502">
        <ele>1079.2170410156</ele>
        <time>2013-04-14T10:27:55Z</time>
      </trkpt>
      <trkpt lat="43.94714" lon="7.40518">
        <ele>1076.8139648438</ele>
        <time>2013-04-14T10:28:00Z</time>
      </trkpt>
      <trkpt lat="43.94709" lon="7.40538">
        <ele>1075.8525390625</ele>
        <time>2013-04-14T10:28:03Z</time>
      </trkpt>
      <trkpt lat="43.94714" lon="7.40556">
        <ele>1072.96875</ele>
        <time>2013-04-14T10:28:07Z</time>
      </trkpt>
      <trkpt lat="43.94714" lon="7.40564">
        <ele>1069.6042480469</ele>
        <time>2013-04-14T10:28:12Z</time>
      </trkpt>
      <trkpt lat="43.94714" lon="7.40566">
        <ele>1068.6428222656</ele>
        <time>2013-04-14T10:28:14Z</time>
      </trkpt>
      <trkpt lat="43.94714" lon="7.40566">
        <ele>1067.2006835938</ele>
        <time>2013-04-14T10:28:16Z</time>
      </trkpt>
      <trkpt lat="43.94712" lon="7.40569">
        <ele>1064.3166503906</ele>
        <time>2013-04-14T10:28:21Z</time>
      </trkpt>
      <trkpt lat="43.94712" lon="7.4057">
        <ele>1062.8747558594</ele>
        <time>2013-04-14T10:28:22Z</time>
      </trkpt>
      <trkpt lat="43.9471" lon="7.40574">
        <ele>1061.4328613281</ele>
        <time>2013-04-14T10:28:25Z</time>
      </trkpt>
      <trkpt lat="43.94706" lon="7.40581">
        <ele>1059.0295410156</ele>
        <time>2013-04-14T10:28:28Z</time>
      </trkpt>
      <trkpt lat="43.94705" lon="7.40583">
        <ele>1057.1069335938</ele>
        <time>2013-04-14T10:28:30Z</time>
      </trkpt>
      <trkpt lat="43.94684" lon="7.40636">
        <ele>1053.7424316406</ele>
        <time>2013-04-14T10:28:34Z</time>
      </trkpt>
      <trkpt lat="43.94679" lon="7.40642">
        <ele>1053.7424316406</ele>
        <time>2013-04-14T10:28:35Z</time>
      </trkpt>
      <trkpt lat="43.94679" lon="7.40642">
        <ele>1051.3388671875</ele>
        <time>2013-04-14T10:28:39Z</time>
      </trkpt>
      <trkpt lat="43.94679" lon="7.40642">
        <ele>1050.8581542969</ele>
        <time>2013-04-14T10:28:41Z</time>
      </trkpt>
      <trkpt lat="43.94691" lon="7.40742">
        <ele>1048.4548339844</ele>
        <time>2013-04-14T10:28:44Z</time>
      </trkpt>
      <trkpt lat="43.94691" lon="7.40747">
        <ele>1047.0129394531</ele>
        <time>2013-04-14T10:28:46Z</time>
      </trkpt>
      <trkpt lat="43.94694" lon="7.40762">
        <ele>1042.6872558594</ele>
        <time>2013-04-14T10:28:50Z</time>
      </trkpt>
      <trkpt lat="43.94694" lon="7.40762">
        <ele>1042.6872558594</ele>
        <time>2013-04-14T10:28:51Z</time>
      </trkpt>
      <trkpt lat="43.94694" lon="7.40766">
        <ele>1040.7644042969</ele>
        <time>2013-04-14T10:28:55Z</time>
      </trkpt>
      <trkpt lat="43.94698" lon="7.4077">
        <ele>1038.361328125</ele>
        <time>2013-04-14T10:28:58Z</time>
      </trkpt>
      <trkpt lat="43.94701" lon="7.40772">
        <ele>1037.3999023438</ele>
        <time>2013-04-14T10:29:00Z</time>
      </trkpt>
      <trkpt lat="43.94712" lon="7.40788">
        <ele>1034.9965820312</ele>
        <time>2013-04-14T10:29:01Z</time>
      </trkpt>
      <trkpt lat="43.94714" lon="7.40791">
        <ele>1033.5544433594</ele>
        <time>2013-04-14T10:29:03Z</time>
      </trkpt>
      <trkpt lat="43.94717" lon="7.40799">
        <ele>1032.5932617188</ele>
        <time>2013-04-14T10:29:05Z</time>
      </trkpt>
      <trkpt lat="43.94688" lon="7.40831">
        <ele>1031.1513671875</ele>
        <time>2013-04-14T10:29:07Z</time>
      </trkpt>
      <trkpt lat="43.94683" lon="7.40847">
        <ele>1027.3061523438</ele>
        <time>2013-04-14T10:29:13Z</time>
      </trkpt>
      <trkpt lat="43.94681" lon="7.4085">
        <ele>1027.3061523438</ele>
        <time>2013-04-14T10:29:14Z</time>
      </trkpt>
      <trkpt lat="43.94679" lon="7.40853">
        <ele>1026.3447265625</ele>
        <time>2013-04-14T10:29:15Z</time>
      </trkpt>
      <trkpt lat="43.94671" lon="7.40862">
        <ele>1023.94140625</ele>
        <time>2013-04-14T10:29:19Z</time>
      </trkpt>
      <trkpt lat="43.94661" lon="7.40875">
        <ele>1021.0576171875</ele>
        <time>2013-04-14T10:29:23Z</time>
      </trkpt>
      <trkpt lat="43.94658" lon="7.40881">
        <ele>1019.134765625</ele>
        <time>2013-04-14T10:29:25Z</time>
      </trkpt>
      <trkpt lat="43.94651" lon="7.40899">
        <ele>1016.7314453125</ele>
        <time>2013-04-14T10:29:29Z</time>
      </trkpt>
      <trkpt lat="43.94648" lon="7.40915">
        <ele>1013.8474121094</ele>
        <time>2013-04-14T10:29:33Z</time>
      </trkpt>
      <trkpt lat="43.94645" lon="7.40927">
        <ele>1012.8862304688</ele>
        <time>2013-04-14T10:29:35Z</time>
      </trkpt>
      <trkpt lat="43.9464" lon="7.40937">
        <ele>1010.9636230469</ele>
        <time>2013-04-14T10:29:37Z</time>
      </trkpt>
      <trkpt lat="43.94639" lon="7.40941">
        <ele>1009.5217285156</ele>
        <time>2013-04-14T10:29:38Z</time>
      </trkpt>
      <trkpt lat="43.94639" lon="7.40951">
        <ele>1007.5991210938</ele>
        <time>2013-04-14T10:29:40Z</time>
      </trkpt>
      <trkpt lat="43.94662" lon="7.40974">
        <ele>1005.6765136719</ele>
        <time>2013-04-14T10:29:42Z</time>
      </trkpt>
      <trkpt lat="43.94652" lon="7.41006">
        <ele>1002.7922363281</ele>
        <time>2013-04-14T10:29:48Z</time>
      </trkpt>
      <trkpt lat="43.94647" lon="7.41019">
        <ele>1001.3503417969</ele>
        <time>2013-04-14T10:29:52Z</time>
      </trkpt>
      <trkpt lat="43.94645" lon="7.41038">
        <ele>1000.3891601562</ele>
        <time>2013-04-14T10:29:56Z</time>
      </trkpt>
      <trkpt lat="43.9464" lon="7.41063">
        <ele>996.06323242188</ele>
        <time>2013-04-14T10:30:02Z</time>
      </trkpt>
      <trkpt lat="43.94639" lon="7.41068">
        <ele>996.06323242188</ele>
        <time>2013-04-14T10:30:03Z</time>
      </trkpt>
      <trkpt lat="43.94636" lon="7.41083">
        <ele>994.140625</ele>
        <time>2013-04-14T10:30:07Z</time>
      </trkpt>
      <trkpt lat="43.94633" lon="7.41102">
        <ele>991.7373046875</ele>
        <time>2013-04-14T10:30:12Z</time>
      </trkpt>
      <trkpt lat="43.94632" lon="7.41105">
        <ele>989.81469726562</ele>
        <time>2013-04-14T10:30:13Z</time>
      </trkpt>
      <trkpt lat="43.94629" lon="7.41125">
        <ele>986.93041992188</ele>
        <time>2013-04-14T10:30:18Z</time>
      </trkpt>
      <trkpt lat="43.94628" lon="7.41129">
        <ele>986.93041992188</ele>
        <time>2013-04-14T10:30:19Z</time>
      </trkpt>
      <trkpt lat="43.94624" lon="7.41144">
        <ele>982.1240234375</ele>
        <time>2013-04-14T10:30:24Z</time>
      </trkpt>
      <trkpt lat="43.94624" lon="7.41147">
        <ele>981.64331054688</ele>
        <time>2013-04-14T10:30:26Z</time>
      </trkpt>
      <trkpt lat="43.94621" lon="7.41161">
        <ele>978.27880859375</ele>
        <time>2013-04-14T10:30:31Z</time>
      </trkpt>
      <trkpt lat="43.9462" lon="7.41169">
        <ele>977.31762695312</ele>
        <time>2013-04-14T10:30:33Z</time>
      </trkpt>
      <trkpt lat="43.94611" lon="7.41202">
        <ele>974.43359375</ele>
        <time>2013-04-14T10:30:40Z</time>
      </trkpt>
      <trkpt lat="43.9461" lon="7.41204">
        <ele>971.06884765625</ele>
        <time>2013-04-14T10:30:46Z</time>
      </trkpt>
      <trkpt lat="43.94592" lon="7.41243">
        <ele>969.626953125</ele>
        <time>2013-04-14T10:30:58Z</time>
      </trkpt>
      <trkpt lat="43.94587" lon="7.41248">
        <ele>965.30102539062</ele>
        <time>2013-04-14T10:31:04Z</time>
      </trkpt>
      <trkpt lat="43.94586" lon="7.4125">
        <ele>965.30102539062</ele>
        <time>2013-04-14T10:31:05Z</time>
      </trkpt>
      <trkpt lat="43.94585" lon="7.41253">
        <ele>965.78173828125</ele>
        <time>2013-04-14T10:31:06Z</time>
      </trkpt>
      <trkpt lat="43.94583" lon="7.41267">
        <ele>962.89770507812</ele>
        <time>2013-04-14T10:31:10Z</time>
      </trkpt>
      <trkpt lat="43.94583" lon="7.41279">
        <ele>960.49438476562</ele>
        <time>2013-04-14T10:31:14Z</time>
      </trkpt>
      <trkpt lat="43.94583" lon="7.41284">
        <ele>959.05249023438</ele>
        <time>2013-04-14T10:31:16Z</time>
      </trkpt>
      <trkpt lat="43.94582" lon="7.41293">
        <ele>957.1298828125</ele>
        <time>2013-04-14T10:31:19Z</time>
      </trkpt>
      <trkpt lat="43.94582" lon="7.41297">
        <ele>955.20703125</ele>
        <time>2013-04-14T10:31:21Z</time>
      </trkpt>
      <trkpt lat="43.94585" lon="7.41308">
        <ele>952.8037109375</ele>
        <time>2013-04-14T10:31:25Z</time>
      </trkpt>
      <trkpt lat="43.94583" lon="7.41323">
        <ele>950.40063476562</ele>
        <time>2013-04-14T10:31:29Z</time>
      </trkpt>
      <trkpt lat="43.94579" lon="7.41331">
        <ele>948.47778320312</ele>
        <time>2013-04-14T10:31:32Z</time>
      </trkpt>
      <trkpt lat="43.94575" lon="7.41343">
        <ele>947.03588867188</ele>
        <time>2013-04-14T10:31:35Z</time>
      </trkpt>
      <trkpt lat="43.94572" lon="7.4135">
        <ele>943.19067382812</ele>
        <time>2013-04-14T10:31:38Z</time>
      </trkpt>
      <trkpt lat="43.94572" lon="7.41352">
        <ele>942.2294921875</ele>
        <time>2013-04-14T10:31:39Z</time>
      </trkpt>
      <trkpt lat="43.94574" lon="7.41364">
        <ele>940.78735351562</ele>
        <time>2013-04-14T10:31:42Z</time>
      </trkpt>
      <trkpt lat="43.94569" lon="7.41374">
        <ele>939.82592773438</ele>
        <time>2013-04-14T10:31:44Z</time>
      </trkpt>
      <trkpt lat="43.94574" lon="7.41371">
        <ele>937.9033203125</ele>
        <time>2013-04-14T10:31:48Z</time>
      </trkpt>
      <trkpt lat="43.94574" lon="7.41376">
        <ele>936.46142578125</ele>
        <time>2013-04-14T10:31:50Z</time>
      </trkpt>
      <trkpt lat="43.94573" lon="7.4138">
        <ele>935.01953125</ele>
        <time>2013-04-14T10:31:52Z</time>
      </trkpt>
      <trkpt lat="43.94569" lon="7.41396">
        <ele>932.6162109375</ele>
        <time>2013-04-14T10:31:56Z</time>
      </trkpt>
      <trkpt lat="43.94568" lon="7.41401">
        <ele>930.69360351562</ele>
        <time>2013-04-14T10:31:59Z</time>
      </trkpt>
      <trkpt lat="43.94559" lon="7.41426">
        <ele>927.3291015625</ele>
        <time>2013-04-14T10:32:06Z</time>
      </trkpt>
      <trkpt lat="43.9456" lon="7.41432">
        <ele>925.88696289062</ele>
        <time>2013-04-14T10:32:09Z</time>
      </trkpt>
      <trkpt lat="43.94559" lon="7.4144">
        <ele>923.96411132812</ele>
        <time>2013-04-14T10:32:12Z</time>
      </trkpt>
      <trkpt lat="43.94562" lon="7.41449">
        <ele>921.56079101562</ele>
        <time>2013-04-14T10:32:15Z</time>
      </trkpt>
      <trkpt lat="43.94564" lon="7.41452">
        <ele>920.599609375</ele>
        <time>2013-04-14T10:32:16Z</time>
      </trkpt>
      <trkpt lat="43.9457" lon="7.41466">
        <ele>918.67700195312</ele>
        <time>2013-04-14T10:32:20Z</time>
      </trkpt>
      <trkpt lat="43.94568" lon="7.41467">
        <ele>917.71557617188</ele>
        <time>2013-04-14T10:32:22Z</time>
      </trkpt>
      <trkpt lat="43.94563" lon="7.41475">
        <ele>915.3125</ele>
        <time>2013-04-14T10:32:26Z</time>
      </trkpt>
      <trkpt lat="43.94556" lon="7.41474">
        <ele>912.42846679688</ele>
        <time>2013-04-14T10:32:29Z</time>
      </trkpt>
      <trkpt lat="43.94551" lon="7.41471">
        <ele>910.98657226562</ele>
        <time>2013-04-14T10:32:32Z</time>
      </trkpt>
      <trkpt lat="43.94549" lon="7.41468">
        <ele>910.02514648438</ele>
        <time>2013-04-14T10:32:33Z</time>
      </trkpt>
      <trkpt lat="43.94541" lon="7.4146">
        <ele>908.10278320312</ele>
        <time>2013-04-14T10:32:36Z</time>
      </trkpt>
      <trkpt lat="43.9454" lon="7.41457">
        <ele>907.14111328125</ele>
        <time>2013-04-14T10:32:37Z</time>
      </trkpt>
      <trkpt lat="43.9453" lon="7.41448">
        <ele>905.21850585938</ele>
        <time>2013-04-14T10:32:41Z</time>
      </trkpt>
      <trkpt lat="43.94527" lon="7.41446">
        <ele>903.2958984375</ele>
        <time>2013-04-14T10:32:42Z</time>
      </trkpt>
      <trkpt lat="43.94521" lon="7.41442">
        <ele>901.85400390625</ele>
        <time>2013-04-14T10:32:45Z</time>
      </trkpt>
      <trkpt lat="43.94516" lon="7.41442">
        <ele>899.93139648438</ele>
        <time>2013-04-14T10:32:47Z</time>
      </trkpt>
      <trkpt lat="43.94507" lon="7.41436">
        <ele>896.56689453125</ele>
        <time>2013-04-14T10:32:51Z</time>
      </trkpt>
      <trkpt lat="43.94504" lon="7.4143">
        <ele>894.16357421875</ele>
        <time>2013-04-14T10:32:53Z</time>
      </trkpt>
      <trkpt lat="43.94494" lon="7.41421">
        <ele>891.279296875</ele>
        <time>2013-04-14T10:32:57Z</time>
      </trkpt>
      <trkpt lat="43.94489" lon="7.41416">
        <ele>887.43408203125</ele>
        <time>2013-04-14T10:32:59Z</time>
      </trkpt>
      <trkpt lat="43.94481" lon="7.41408">
        <ele>885.9921875</ele>
        <time>2013-04-14T10:33:02Z</time>
      </trkpt>
      <trkpt lat="43.94474" lon="7.41402">
        <ele>882.62768554688</ele>
        <time>2013-04-14T10:33:05Z</time>
      </trkpt>
      <trkpt lat="43.94471" lon="7.41399">
        <ele>882.62768554688</ele>
        <time>2013-04-14T10:33:06Z</time>
      </trkpt>
      <trkpt lat="43.94467" lon="7.41394">
        <ele>881.18579101562</ele>
        <time>2013-04-14T10:33:08Z</time>
      </trkpt>
      <trkpt lat="43.94461" lon="7.41391">
        <ele>879.74365234375</ele>
        <time>2013-04-14T10:33:10Z</time>
      </trkpt>
      <trkpt lat="43.94457" lon="7.41387">
        <ele>878.3017578125</ele>
        <time>2013-04-14T10:33:12Z</time>
      </trkpt>
      <trkpt lat="43.94453" lon="7.41383">
        <ele>877.34057617188</ele>
        <time>2013-04-14T10:33:14Z</time>
      </trkpt>
      <trkpt lat="43.94445" lon="7.41372">
        <ele>872.53369140625</ele>
        <time>2013-04-14T10:33:18Z</time>
      </trkpt>
      <trkpt lat="43.94443" lon="7.4137">
        <ele>872.53369140625</ele>
        <time>2013-04-14T10:33:19Z</time>
      </trkpt>
      <trkpt lat="43.9444" lon="7.41369">
        <ele>871.091796875</ele>
        <time>2013-04-14T10:33:20Z</time>
      </trkpt>
      <trkpt lat="43.94434" lon="7.41362">
        <ele>869.64990234375</ele>
        <time>2013-04-14T10:33:23Z</time>
      </trkpt>
      <trkpt lat="43.94433" lon="7.41363">
        <ele>868.6884765625</ele>
        <time>2013-04-14T10:33:25Z</time>
      </trkpt>
      <trkpt lat="43.94431" lon="7.4136">
        <ele>867.24658203125</ele>
        <time>2013-04-14T10:33:27Z</time>
      </trkpt>
      <trkpt lat="43.94424" lon="7.41351">
        <ele>864.84326171875</ele>
        <time>2013-04-14T10:33:31Z</time>
      </trkpt>
      <trkpt lat="43.94421" lon="7.41347">
        <ele>863.4013671875</ele>
        <time>2013-04-14T10:33:33Z</time>
      </trkpt>
      <trkpt lat="43.94406" lon="7.41325">
        <ele>865.8046875</ele>
        <time>2013-04-14T10:33:42Z</time>
      </trkpt>
      <trkpt lat="43.94383" lon="7.41308">
        <ele>865.8046875</ele>
        <time>2013-04-14T10:33:50Z</time>
      </trkpt>
      <trkpt lat="43.94356" lon="7.41297">
        <ele>862.92065429688</ele>
        <time>2013-04-14T10:33:57Z</time>
      </trkpt>
      <trkpt lat="43.94337" lon="7.41268">
        <ele>860.51733398438</ele>
        <time>2013-04-14T10:34:04Z</time>
      </trkpt>
      <trkpt lat="43.94311" lon="7.41212">
        <ele>855.71069335938</ele>
        <time>2013-04-14T10:34:17Z</time>
      </trkpt>
      <trkpt lat="43.94309" lon="7.41207">
        <ele>855.71069335938</ele>
        <time>2013-04-14T10:34:18Z</time>
      </trkpt>
      <trkpt lat="43.94295" lon="7.41181">
        <ele>854.26879882812</ele>
        <time>2013-04-14T10:34:24Z</time>
      </trkpt>
      <trkpt lat="43.94275" lon="7.41149">
        <ele>851.384765625</ele>
        <time>2013-04-14T10:34:32Z</time>
      </trkpt>
      <trkpt lat="43.94269" lon="7.41131">
        <ele>849.46215820312</ele>
        <time>2013-04-14T10:34:36Z</time>
      </trkpt>
      <trkpt lat="43.94265" lon="7.41119">
        <ele>848.02026367188</ele>
        <time>2013-04-14T10:34:39Z</time>
      </trkpt>
      <trkpt lat="43.9426" lon="7.41116">
        <ele>847.05883789062</ele>
        <time>2013-04-14T10:34:41Z</time>
      </trkpt>
      <trkpt lat="43.94252" lon="7.4112">
        <ele>845.13623046875</ele>
        <time>2013-04-14T10:34:43Z</time>
      </trkpt>
      <trkpt lat="43.94255" lon="7.4112">
        <ele>841.771484375</ele>
        <time>2013-04-14T10:34:47Z</time>
      </trkpt>
      <trkpt lat="43.94254" lon="7.41122">
        <ele>841.771484375</ele>
        <time>2013-04-14T10:34:48Z</time>
      </trkpt>
      <trkpt lat="43.94248" lon="7.41131">
        <ele>838.8876953125</ele>
        <time>2013-04-14T10:34:51Z</time>
      </trkpt>
      <trkpt lat="43.94241" lon="7.41139">
        <ele>834.0810546875</ele>
        <time>2013-04-14T10:34:54Z</time>
      </trkpt>
      <trkpt lat="43.94239" lon="7.41141">
        <ele>834.0810546875</ele>
        <time>2013-04-14T10:34:55Z</time>
      </trkpt>
      <trkpt lat="43.94235" lon="7.41146">
        <ele>832.15844726562</ele>
        <time>2013-04-14T10:34:57Z</time>
      </trkpt>
      <trkpt lat="43.94232" lon="7.41152">
        <ele>830.23583984375</ele>
        <time>2013-04-14T10:34:59Z</time>
      </trkpt>
      <trkpt lat="43.94223" lon="7.41159">
        <ele>826.87109375</ele>
        <time>2013-04-14T10:35:02Z</time>
      </trkpt>
      <trkpt lat="43.94216" lon="7.41163">
        <ele>825.42895507812</ele>
        <time>2013-04-14T10:35:04Z</time>
      </trkpt>
      <trkpt lat="43.94205" lon="7.41166">
        <ele>821.10327148438</ele>
        <time>2013-04-14T10:35:08Z</time>
      </trkpt>
      <trkpt lat="43.94203" lon="7.41166">
        <ele>821.10327148438</ele>
        <time>2013-04-14T10:35:09Z</time>
      </trkpt>
      <trkpt lat="43.94198" lon="7.41166">
        <ele>819.66137695312</ele>
        <time>2013-04-14T10:35:11Z</time>
      </trkpt>
      <trkpt lat="43.94196" lon="7.41166">
        <ele>818.69995117188</ele>
        <time>2013-04-14T10:35:12Z</time>
      </trkpt>
      <trkpt lat="43.9419" lon="7.41167">
        <ele>814.3740234375</ele>
        <time>2013-04-14T10:35:15Z</time>
      </trkpt>
      <trkpt lat="43.94188" lon="7.41164">
        <ele>814.3740234375</ele>
        <time>2013-04-14T10:35:16Z</time>
      </trkpt>
      <trkpt lat="43.94184" lon="7.41159">
        <ele>812.93212890625</ele>
        <time>2013-04-14T10:35:18Z</time>
      </trkpt>
      <trkpt lat="43.94182" lon="7.41166">
        <ele>811.970703125</ele>
        <time>2013-04-14T10:35:20Z</time>
      </trkpt>
      <trkpt lat="43.94177" lon="7.41176">
        <ele>810.52856445312</ele>
        <time>2013-04-14T10:35:22Z</time>
      </trkpt>
      <trkpt lat="43.94171" lon="7.41178">
        <ele>807.64477539062</ele>
        <time>2013-04-14T10:35:24Z</time>
      </trkpt>
      <trkpt lat="43.94167" lon="7.41182">
        <ele>805.72216796875</ele>
        <time>2013-04-14T10:35:26Z</time>
      </trkpt>
      <trkpt lat="43.94156" lon="7.41197">
        <ele>802.357421875</ele>
        <time>2013-04-14T10:35:31Z</time>
      </trkpt>
      <trkpt lat="43.94155" lon="7.41201">
        <ele>802.357421875</ele>
        <time>2013-04-14T10:35:32Z</time>
      </trkpt>
      <trkpt lat="43.94154" lon="7.4124">
        <ele>798.99291992188</ele>
        <time>2013-04-14T10:35:41Z</time>
      </trkpt>
      <trkpt lat="43.94155" lon="7.4124">
        <ele>798.99291992188</ele>
        <time>2013-04-14T10:35:42Z</time>
      </trkpt>
      <trkpt lat="43.94155" lon="7.4124">
        <ele>796.58984375</ele>
        <time>2013-04-14T10:35:43Z</time>
      </trkpt>
      <trkpt lat="43.94145" lon="7.41247">
        <ele>795.1474609375</ele>
        <time>2013-04-14T10:35:46Z</time>
      </trkpt>
      <trkpt lat="43.9414" lon="7.41252">
        <ele>794.66674804688</ele>
        <time>2013-04-14T10:35:48Z</time>
      </trkpt>
      <trkpt lat="43.94106" lon="7.41256">
        <ele>789.8603515625</ele>
        <time>2013-04-14T10:35:58Z</time>
      </trkpt>
      <trkpt lat="43.9407" lon="7.41275">
        <ele>788.41845703125</ele>
        <time>2013-04-14T10:36:04Z</time>
      </trkpt>
      <trkpt lat="43.94054" lon="7.41275">
        <ele>787.45703125</ele>
        <time>2013-04-14T10:36:25Z</time>
      </trkpt>
      <trkpt lat="43.94054" lon="7.41272">
        <ele>788.41845703125</ele>
        <time>2013-04-14T10:37:09Z</time>
      </trkpt>
      <trkpt lat="43.94055" lon="7.41271">
        <ele>787.93774414062</ele>
        <time>2013-04-14T10:37:33Z</time>
      </trkpt>
      <trkpt lat="43.94056" lon="7.41269">
        <ele>788.41845703125</ele>
        <time>2013-04-14T10:38:04Z</time>
      </trkpt>
      <trkpt lat="43.94052" lon="7.41269">
        <ele>788.41845703125</ele>
        <time>2013-04-14T10:38:29Z</time>
      </trkpt>
      <trkpt lat="43.94047" lon="7.4127">
        <ele>788.41845703125</ele>
        <time>2013-04-14T10:38:50Z</time>
      </trkpt>
      <trkpt lat="43.94052" lon="7.41269">
        <ele>788.41845703125</ele>
        <time>2013-04-14T10:39:25Z</time>
      </trkpt>
      <trkpt lat="43.94052" lon="7.4127">
        <ele>787.93774414062</ele>
        <time>2013-04-14T10:39:57Z</time>
      </trkpt>
      <trkpt lat="43.94052" lon="7.4127">
        <ele>787.93774414062</ele>
        <time>2013-04-14T10:40:33Z</time>
      </trkpt>
      <trkpt lat="43.94052" lon="7.4127">
        <ele>788.41845703125</ele>
        <time>2013-04-14T10:41:30Z</time>
      </trkpt>
      <trkpt lat="43.94055" lon="7.41273">
        <ele>788.89916992188</ele>
        <time>2013-04-14T10:41:51Z</time>
      </trkpt>
      <trkpt lat="43.94054" lon="7.41271">
        <ele>788.89916992188</ele>
        <time>2013-04-14T10:42:25Z</time>
      </trkpt>
      <trkpt lat="43.94054" lon="7.41271">
        <ele>787.93774414062</ele>
        <time>2013-04-14T10:43:09Z</time>
      </trkpt>
    </trkseg>
  </trk>
</gpx>